     2              OBSERVATION DATA    GPS                 RINEX VERSION / TYPE
teqc 1998Mar9 19981006 17:08:30UTC                          PGM / RUN BY / DATE
                                                            COMMENT
Original Marker Name: 0607                                  COMMENT
Campaign Name: HPGN 1998                                    COMMENT
4-Character Station Name: 0607                              COMMENT
6-Character Antenna Code: TRMCMP                            COMMENT
Vertical Measurement Point: BPA                             COMMENT
Vertical Offset to Rinex Ref. Point: 0.0000                 COMMENT
Radial Measurement Point: RRP                               COMMENT
Radial Offset to Rinex Ref. Point: 0.0000                   COMMENT
Antenna Height from Field Measurement: 2.0000 m             COMMENT
Original XYZ: -2593992.1380 -4429522.5514 3773073.4298      COMMENT
New XYZ position is based on association with SCEC monument COMMENT
E1F7A7B9+0011. Position of that monument is believed to be  COMMENT
valid to within 1 m horizontally; vertical accuracy         COMMENT
should be no worse than 3-times this value.                 COMMENT
                                                            COMMENT
Revised Rinex header created by UCSD GPS archive for        COMMENT
GSAC on 19-Apr-1999 (1999:109) 06:40:04 GMT                 COMMENT
For assistance contact dagnew@ucsd.edu or hjohnson@ucsd.edu COMMENT
                                                            COMMENT
HPGN CA 06 07                                               MARKER NAME
unknown CALIF DEPT TRANSPORTATION                           OBSERVER / AGENCY
4871 TRIMBLE 4000 SSE NP 7.25; SP 3.07                      REC # / TYPE / VERS
30429 TR GEOD L1/L2 GP                                      ANT # / TYPE
 -2593993.0000 -4429526.0000  3773069.0000                  APPROX POSITION XYZ
        2.0000        0.0000        0.0000                  ANTENNA: DELTA H/E/N
     1     1     0                                          WAVELENGTH FACT L1/2
     7    L1    L2    C1    P2    P1    D1    D2            # / TYPES OF OBSERV
     0                                                      INTERVAL
  1998     7     8    20    18   45.000000                  TIME OF FIRST OBS
  1998     7     9     1    51   45.000000                  TIME OF LAST OBS
                                                            END OF HEADER
 98  7  8 20 18 45.0000000  0  6G 6G17G21G22G23G26
    124154.77257     68190.16557  21176821.3524   21176824.9614
     -2828.1414      -2203.7464
     34415.52357     20100.98357  20907816.9534   20907821.5824
      -782.2664       -609.5584
    -86492.47855    -33706.12655  23917486.8444   23917493.4534
      1966.0784       1532.0094
     54927.40255     21455.54755  23480207.2194   23480213.2304
     -1256.3284       -978.9574
    -27386.01656    -14037.50256  21415743.5084   21415747.7154
       617.4224        481.1084
     38436.94956     25218.51855  22424993.2894   22424998.1644
      -882.6564       -687.7844
 98  7  8 20 19  0.0000000  0  6G 6G17G21G22G23G26
    166622.94947    101282.24446  21184903.1094   21184906.6134
     -2834.4844      -2208.6894
     46165.17747     29256.57147  20910052.8284   20910057.2234
      -784.5624       -611.3474
   -115970.30845    -56675.79945  23911876.8914   23911883.1254
      1964.0944       1530.4634
     73825.63045     36181.42945  23483803.9064   23483809.4494
     -1263.6414       -984.6554
    -36608.18446    -21223.57146  21413988.7734   21413992.8754
       612.0474        476.9204
     51738.57646     35583.44245  22427525.1094   22427529.9384
      -891.0784       -694.3474
 98  7  8 20 19 15.0000000  0  6G 6G17G21G22G23G26
    209193.16847    134453.83246  21193003.7664   21193007.1884
     -2841.6254      -2214.2534
     57956.52647     38444.64947  20912296.6414   20912300.9534
      -787.7034       -613.7954
   -145411.59345    -79616.97645  23906274.8204   23906280.8324
      1961.2974       1528.2834
     92840.98845     50998.59245  23487422.4224   23487428.0824
     -1271.8594       -991.0594
    -45744.23946    -28342.54246  21412250.1804   21412254.0704
       605.9694        472.1834
     65171.47846     46050.65946  22430081.3284   22430085.4884
      -900.0944       -701.3724
 98  7  8 20 19 30.0000000  0  6G 6G17G21G22G23G26
    251875.06547    167712.44946  21201125.8834   21201129.4574
     -2849.2664      -2220.2074
     69802.21647     47675.07247  20914550.8674   20914555.0984
      -791.8124       -616.9974
   -174804.50945   -102520.47445  23900681.2344   23900687.6094
      1957.6884       1525.4714
    111987.09445     65917.63545  23491065.9064   23491071.9534
     -1280.9534       -998.1454
    -54781.17746    -35384.27846  21410530.4614   21410534.4574
       598.9384        466.7054
     78748.05646     56629.84045  22432664.6804   22432668.6994
      -910.0944       -709.1644
 98  7  8 20 19 45.0000000  0  6G 6G17G21G22G23G26
    294666.90047    201056.72946  21209268.7664   21209272.2464
     -2856.4224      -2225.7834
     81705.79947     56950.60647  20916816.1254   20916820.3324
      -795.4224       -619.8094
   -204146.43245   -125384.23545  23895097.6094   23895103.3524
      1954.5314       1523.0114
    131262.72845     80937.61645  23494734.0234   23494740.0234
     -1289.2194      -1004.5864
    -63716.14446    -42346.55846  21408830.2114   21408834.3484
       592.2814        461.5184
     92469.86846     67322.17946  22435275.8754   22435279.8244
      -919.6564       -716.6154
 98  7  8 20 20  0.0000000  0  6G 6G17G21G22G23G26
    337573.36347    234490.32546  21217433.6804   21217437.0904
     -2864.5944      -2232.1514
     93671.88647     66274.84047  20919093.2974   20919097.3754
      -800.2664       -623.5844
   -233433.51245   -148205.27345  23889524.8834   23889531.4224
      1950.2814       1519.7004
    150668.87845     96059.29045  23498426.5784   23498432.7664
     -1298.3124      -1011.6724
    -72543.54546    -49225.01446  21407150.1644   21407154.3954
       584.6254        455.5524
    106343.80246     78133.05946  22437915.9384   22437919.9694
      -930.3124       -724.9194
 98  7  8 20 20 15.0010000  0  6G 6G17G21G22G23G26
    380610.53547    268025.77646  21225623.5914   21225627.1064
     -2873.0784      -2238.7624
    105717.14147     75660.76347  20921385.3414   20921389.2314
      -805.4374       -627.6144
   -262654.21845   -170974.60745  23883964.1144   23883970.0674
      1945.7504       1516.1694
    170215.97245    111290.78545  23502146.3804   23502152.3924
     -1307.5624      -1018.8804
    -81254.41146    -56012.66946  21405492.4424   21405496.4854
       577.0004        449.6104
    120381.42646     89071.48346  22440587.2944   22440591.7714
      -941.0164       -733.2594
 98  7  8 20 20 30.0010000  0  6G 6G17G21G22G23G26
    423770.69746    301657.05946  21233836.6224   21233840.4424
     -2881.5474      -2245.3614
    117838.03447     85105.63047  20923691.9424   20923695.9154
      -810.5164       -631.5714
   -291805.58745   -193689.87345  23878416.7164   23878423.0094
      1941.1724       1512.6014
    189900.01245    126628.99945  23505892.3804   23505898.1224
     -1316.8914      -1026.1494
    -89852.17046    -62712.19446  21403856.4814   21403860.5604
       569.4844        443.7544
    134577.96446    100133.74445  22443288.5754   22443292.7004
      -951.8124       -741.6724
 98  7  8 20 20 45.0010000  0  6G 6G17G21G22G23G26
    467056.54147    335386.27646  21242073.7474   21242077.5214
     -2889.9064      -2251.8754
    130032.56647     94607.87547  20926012.4584   20926016.5604
      -815.4064       -635.3814
   -320890.95745   -216353.71745  23872881.7714   23872887.9354
      1936.8914       1509.2654
    209721.34045    142074.19045  23509664.0364   23509670.0604
     -1326.0314      -1033.2714
    -98338.92546    -69325.21746  21402241.7084   21402245.7164
       562.0474        437.9594
    148936.06946    111321.89846  22446020.8414   22446025.2474
      -962.5314       -750.0244
 98  7  8 20 21  0.0010000  0  6G 6G17G21G22G23G26
    510472.48846    369216.87746  21250335.4274   21250339.1774
     -2898.7344      -2258.7544
    142306.38547    104171.89947  20928348.0994   20928352.0954
      -820.9694       -639.7164
   -349904.91745   -238961.93245  23867360.7244   23867366.5714
      1931.7344       1505.2484
    229686.82745    157631.72545  23513462.5994   23513468.7394
     -1335.8594      -1040.9294
   -106706.59346    -75845.44746  21400648.9814   21400653.2004
       553.7814        431.5184
    163461.44746    122640.40746  22448784.9034   22448788.9234
      -974.0314       -758.9854
 98  7  8 20 21 15.0010000  0  6G 6G17G21G22G23G26
    554018.58746    403148.89046  21258622.0914   21258625.9354
     -2907.2504      -2265.3904
    154661.22047    113799.05247  20930699.1774   20930703.3254
      -826.1094       -643.7224
   -378842.92945   -261510.95445  23861853.9974   23861860.4314
      1926.8134       1501.4124
    249797.26745    173302.18445  23517289.9034   23517295.3414
     -1345.3914      -1048.3564
   -114952.64846    -82270.91646  21399079.9584   21399084.0954
       545.7974        425.2964
    178156.33146    134090.99446  22451581.5214   22451585.5874
      -985.0944       -767.6064
 98  7  8 20 21 30.0010000  0  6G 6G17G21G22G23G26
    597692.44947    437180.46346  21266932.9664   21266936.6224
     -2915.6414      -2271.9284
    167092.03247    123485.41247  20933064.7084   20933068.9274
      -831.0314       -647.5574
   -407706.70345   -284002.13145  23856361.3414   23856367.3534
      1921.9534       1497.6264
    270052.29745    189085.33145  23521144.5994   23521150.2124
     -1354.9374      -1055.7954
   -123074.61946    -88599.69046  21397534.1924   21397538.3064
       537.3754        418.7344
    193017.54746    145671.17446  22454408.7554   22454413.1034
      -996.2194       -776.2744
 98  7  8 20 21 45.0010000  0  6G 6G17G21G22G23G26
    641493.79046    471311.36446  21275268.1464   21275271.9784
     -2924.5474      -2278.8684
    179598.24547    133230.52147  20935444.3884   20935448.5014
      -836.3914       -651.7334
   -436496.61845   -306435.76745  23850881.9034   23850887.9854
      1916.7194       1493.5474
    290449.67245    204979.40345  23525026.1304   23525032.0244
     -1364.6254      -1063.3444
   -131069.28146    -94829.26946  21396013.0054   21396017.1304
       528.6724        411.9524
    208049.00046    157384.01146  22457269.4424   22457274.1184
     -1007.8754       -785.3574
 98  7  8 20 22  0.0010000  0  6G 6G17G21G22G23G26
    685426.73446    505544.81147  21283628.4114   21283632.0444
     -2933.2344      -2285.6374
    192178.72247    143033.49847  20937838.5914   20937842.6574
      -841.0624       -655.3734
   -465211.08345   -328810.58445  23845418.3104   23845424.6034
      1911.8134       1489.7244
    310987.49145    220982.90345  23528934.5524   23528940.4814
     -1373.8594      -1070.5404
   -138938.75446   -100961.28846  21394515.6224   21394519.6654
       520.5784        405.6454
    223251.49246    169230.12745  22460162.6854   22460167.4544
     -1019.1724       -794.1604
 98  7  8 20 22 15.0010000  0  6G 6G17G21G22G23G26
    729500.36247    539887.89547  21292015.2164   21292018.7084
     -2942.9374      -2293.1984
    204839.51247    152899.06247  20940247.8254   20940251.9974
      -846.7194       -659.7814
   -493840.46645   -351119.11545  23839970.2314   23839976.8764
      1905.7504       1485.0004
    331676.34345    237104.06445  23532871.4354   23532876.7554
     -1384.4064      -1078.7584
   -146678.28546   -106992.06046  21393042.6224   21393046.5134
       511.6254        398.6694
    238631.76446    181214.77746  22463089.4274   22463093.2244
     -1031.1874       -803.5234
 98  7  8 20 22 30.0010000  0  6G 6G17G21G22G23G26
    773710.42447    574337.28046  21300428.0524   21300431.5444
     -2951.9374      -2300.2114
    217574.77647    162822.65447  20942671.1694   20942675.4584
      -851.5474       -663.5434
   -522388.53245   -373364.30645  23834537.7244   23834543.8064
      1900.5004       1480.9094
    352516.22845    253342.94845  23536837.3804   23536843.7784
     -1394.4534      -1086.5874
   -154290.75446   -112923.83046  21391594.1384   21391598.1104
       503.1564        392.0704
    254182.76146    193332.46046  22466048.5214   22466052.5284
     -1042.4844       -812.3254
 98  7  8 20 22 45.0010000  0  6G 6G17G21G22G23G26
    818052.61846    608889.62346  21308866.1464   21308869.6964
     -2960.4064      -2306.8104
    230381.53147    172801.95647  20945108.3104   20945112.6224
      -856.1254       -667.1104
   -550860.90245   -395550.50645  23829119.5444   23829125.9314
      1895.7814       1477.2324
    373505.41645    269698.14045  23540830.9664   23540836.9544
     -1404.1874      -1094.1724
   -161778.94346   -118758.75446  21390169.2474   21390173.2904
       495.2034        385.8734
    269902.54946    205581.66845  22469040.1304   22469044.4784
     -1053.5164       -820.9214
 98  7  8 20 23  0.0010000  0  6G 6G17G21G22G23G26
    862531.20946    643548.25746  21317330.2554   21317334.1694
     -2969.9224      -2314.2254
    243268.47447    182843.74047  20947560.7244   20947564.8724
      -861.9844       -671.6764
   -579252.57945   -417673.81845  23823716.5994   23823722.7514
      1889.9534       1472.6914
    394650.32245    286174.67845  23544855.0994   23544861.1344
     -1415.0004      -1102.5974
   -169138.04546   -124493.08846  21388768.5834   21388772.8844
       486.1094        378.7874
    285797.83846    217967.62746  22472064.7084   22472069.8064
     -1065.6254       -830.3574
 98  7  8 20 23 15.0010000  0  6G 6G17G21G22G23G26
    907152.94146    678318.42646  21325821.4504   21325825.2244
     -2979.6564      -2321.8104
    256241.54947    192952.64047  20950029.4114   20950033.5834
      -867.7344       -676.1574
   -607557.50045   -439729.53745  23818330.2784   23818336.8294
      1884.0784       1468.1134
    415955.41145    302776.04945  23548909.2474   23548915.2594
     -1425.6724      -1110.9134
   -176361.06846   -130121.39146  21387394.2164   21387398.2124
       477.0164        371.7004
    301874.73846    230495.09445  22475123.8884   22475129.0564
     -1077.9064       -839.9274
 98  7  8 20 23 30.0010000  0  6G 6G17G21G22G23G26
    951918.12346    713200.37346  21334340.0054   21334343.8254
     -2989.1094      -2329.1764
    269296.63547    203125.44247  20952513.5444   20952517.5994
      -873.0164       -680.2724
   -635779.52645   -461720.65945  23812960.1064   23812966.6694
      1878.7974       1463.9984
    437417.65445    319499.87745  23552992.9814   23552998.7004
     -1436.0314      -1118.9854
   -183452.56646   -135647.21046  21386044.7554   21386048.9154
       468.4384        365.0164
    318130.48046    243161.92146  22478217.5054   22478221.9934
     -1089.6874       -849.1074
 98  7  8 20 23 45.0010000  0  6G 6G17G21G22G23G26
    996828.38746    748195.37446  21342886.2714   21342889.8454
     -2998.8124      -2336.7374
    282434.99047    213363.13447  20955013.7784   20955017.8454
      -878.6414       -684.6554
   -663919.56545   -483647.89945  23807604.7244   23807610.5364
      1873.3284       1459.7364
    459038.21145    336347.05645  23557107.6774   23557113.3254
     -1446.5314      -1127.1674
   -190413.34946   -141071.16246  21384720.2084   21384724.2514
       459.8754        358.3444
    334568.10646    255970.48845  22481345.5134   22481349.3804
     -1101.8594       -858.5924
 98  7  8 20 24  0.0010000  0  6G 6G17G21G22G23G26
   1041882.92046    783302.79046  21351459.7944   21351463.4854
     -3008.1874      -2344.0424
    295656.41147    223665.54647  20957529.7314   20957533.7744
      -884.0004       -688.8314
   -691978.72045   -505512.10945  23802265.2714   23802271.3994
      1868.1414       1455.6944
    480814.36145    353315.49145  23561251.4584   23561257.5404
     -1456.7344      -1135.1184
   -197250.03446   -146398.42746  21383419.1224   21383423.0954
       451.9224        352.1474
    351184.15746    268918.08046  22484507.4274   22484511.4234
     -1113.3594       -867.5534
 98  7  8 20 24 15.0010000  0  6G 6G17G21G22G23G26
   1087077.75946    818519.53146  21360060.2784   21360063.9234
     -3017.5004      -2351.2994
    308960.85847    234032.65647  20960061.4274   20960065.5754
      -889.7344       -693.3004
   -719958.50945   -527314.46945  23796940.8804   23796947.5364
      1862.7504       1451.4944
    502746.67445    370405.60645  23565425.1924   23565430.7474
     -1467.3444      -1143.3854
   -203964.59846   -151630.52546  21382141.3174   21382145.5364
       443.5634        345.6334
    367974.75946    282001.67446  22487702.2714   22487707.1694
     -1125.1254       -876.7214
 98  7  8 20 24 30.0010000  0  6G 6G17G21G22G23G26
   1132407.14146    853841.11446  21368685.9034   21368689.8644
     -3026.5004      -2358.3124
    322347.87047    244464.10747  20962609.0674   20962613.0754
      -895.3124       -697.6464
   -747862.33045   -549057.62845  23791631.0054   23791637.6034
      1857.6884       1447.5494
    524833.62345    387616.19745  23569628.0754   23569633.8414
     -1477.6724      -1151.4334
   -210557.49846   -156767.82146  21380886.8334   21380890.8644
       435.3754        339.2534
    384937.38446    295219.32146  22490930.3334   22490935.0324
     -1136.7034       -885.7434
 98  7  8 20 24 45.0010000  0  6G 6G17G21G22G23G26
   1177874.82946    889270.46846  21377338.4034   21377342.5054
     -3035.8754      -2365.6174
    335823.20847    254964.38047  20965173.1854   20965177.2864
      -901.3754       -702.3704
   -775687.04445   -570739.17245  23786335.7784   23786342.2124
      1852.2664       1443.3244
    547078.43745    404949.81745  23573861.2784   23573866.8684
     -1488.2814      -1159.7004
   -217023.96546   -161806.60246  21379656.4974   21379660.3884
       426.8284        332.5934
    402078.74546    308576.24546  22494192.1384   22494196.2284
     -1148.8594       -895.2154
 98  7  8 20 25  0.0010000  0  6G 6G17G21G22G23G26
   1223486.35046    924811.89646  21386017.5754   21386021.6654
     -3045.7344      -2373.3004
    349391.87647    265537.37547  20967755.3254   20967759.5444
      -907.7344       -707.3254
   -803426.22445   -592354.06545  23781057.6304   23781063.8534
      1846.3284       1438.6974
    569484.79445    422409.30245  23578125.0284   23578130.8884
     -1499.2344      -1168.2354
   -223358.07346   -166742.24546  21378450.8174   21378454.8374
       417.6564        325.4464
    419406.73546    322078.59846  22497489.5604   22497493.2984
     -1161.5164       -905.0774
 98  7  8 20 25 15.0010000  0  6G 6G17G21G22G23G26
   1269236.95046    960461.69846  21394723.6924   21394727.7004
     -3054.4064      -2380.0574
    363044.61347    276175.88047  20970353.2164   20970357.4934
      -912.6564       -711.1614
   -831086.75645   -613907.65945  23775793.9744   23775800.6304
      1841.7344       1435.1184
    592043.43345    439987.45645  23582418.1384   23582424.0794
     -1508.5784      -1175.5154
   -229562.43446   -171576.78546  21377270.1224   21377274.0834
       409.5004        319.0914
    436912.53346    335719.49745  22500820.8494   22500824.8564
     -1172.6724       -913.7704
 98  7  8 20 25 30.0010000  0  7G 3G 6G17G21G22G23G26
    -27648.52552                  25021239.7784
      2512.7664
   1315123.58746    996217.51146  21403455.7084   21403459.6694
     -3063.7194      -2387.3134
    376777.85447    286877.11947  20972966.6384   20972970.8454
      -918.4844       -715.7024
   -858672.23545   -635402.76845  23770544.2394   23770550.8024
      1836.3594       1430.9294
    614748.05145    457679.35445  23586738.2314   23586743.5524
     -1518.7194      -1183.4174
   -235637.89646   -176310.88546  21376114.2784   21376118.4034
       400.6094        312.1634
    454593.66946    349497.01745  22504185.7004   22504190.9744
     -1184.7974       -923.2184
 98  7  8 20 25 45.0010000  0  7G 3G 6G17G21G22G23G26
    -65322.63042                  25014070.6384
      2510.4534
   1361147.14346   1032080.01346  21412213.7554   21412217.6344
     -3072.7344      -2394.3384
    390598.97847    297646.83447  20975596.6464   20975601.0174
      -924.2974       -720.2314
   -886178.08845   -656835.85845  23765310.3334   23765316.3564
      1831.0944       1426.8264
    637604.11645    475489.28945  23591087.4194   23591093.6884
     -1528.6874      -1191.1854
   -241580.53646   -180941.48846  21374983.4034   21374987.6344
       391.7814        305.2844
    472455.79046    363415.56446  22507584.6694   22507589.3104
     -1196.8444       -932.6064
 98  7  8 20 26  0.0010000  0  7G 3G 6G17G21G22G23G26
   -102956.59442                  25006908.8414
      2507.5314
   1407310.22346   1068051.22846  21420998.5214   21421002.2474
     -3082.1724      -2401.6924
    404512.84347    308488.81347  20978244.4584   20978248.7474
      -930.7194       -725.2354
   -913599.43445   -678203.06345  23760092.0364   23760098.1064
      1825.2504       1422.2734
    660613.64045    493418.76545  23595466.5674   23595472.8724
     -1539.1094      -1199.3064
   -247386.53146   -185465.62046  21373878.5604   21373882.4744
       382.5314        298.0764
    490502.95546    377478.30846  22511019.0524   22511023.4354
     -1209.2504       -942.2734
 98  7  8 20 26 15.0010000  0  7G 3G 6G17G21G22G23G26
   -140547.25941                  24999754.8334
      2504.5004
   1453611.99446   1104130.50946  21429809.3564   21429813.2824
     -3091.5624      -2409.0104
    418520.53647    319403.91047  20980909.9354   20980914.0244
      -937.1414       -730.2394
   -940935.83145   -699504.11545  23754890.2314   23754896.4894
      1819.4384       1417.7444
    683778.15545    511469.03445  23599874.4814   23599879.8724
     -1549.6564      -1207.5244
   -253055.35746   -189882.86046  21372799.7474   21372803.7674
       373.1254        290.7474
    508734.04746    391684.37846  22514488.0754   22514492.3994
     -1221.7344       -952.0014
 98  7  8 20 26 30.0010000  0  7G 3G 6G17G21G22G23G26
   -178102.40742                  24992608.3644
      2502.3444
   1500046.23546   1140313.01646  21438645.6854   21438649.7164
     -3100.1874      -2415.7314
    432615.15547    330386.73847  20983592.4424   20983596.4504
      -942.5164       -734.4284
   -968193.73345   -720743.96745  23749703.3644   23749709.9854
      1814.5164       1413.9084
    707091.54645    529635.32645  23604310.9664   23604316.6494
     -1559.2504      -1215.0004
   -258591.05446   -194196.36746  21371746.2944   21371750.3724
       364.5784        284.0874
    527143.40646    406029.33845  22517990.6144   22517995.3964
     -1233.2974       -961.0114
 98  7  8 20 26 45.0010000  0  7G 3G 6G17G21G22G23G26
   -215616.20842    -17533.32352  24985470.2244   24985477.2004
      2499.3444       1947.5414
   1546618.36446   1176602.97346  21447508.1384   21447511.6184
     -3109.5004      -2422.9874
    446794.34447    341435.46747  20986290.3174   20986294.4424
      -948.1254       -738.7994
   -995372.04845   -741921.80945  23744531.2474   23744537.3534
      1809.2034       1409.7694
    730553.49745    547917.34945  23608775.6854   23608781.6144
     -1569.0624      -1222.6464
   -263994.12446   -198406.53046  21370718.0604   21370721.8924
       355.7194        277.1834
    545731.71846    420513.74845  22521528.8644   22521533.3294
     -1245.2034       -970.2884
 98  7  8 20 27  0.0010000  0  7G 3G 6G17G21G22G23G26
   -253078.91942    -46724.93342  24978341.5674   24978346.1734
      2495.8284       1944.8014
   1593334.86246   1213005.41946  21456397.9034   21456401.5604
     -3119.2504      -2430.5844
    461062.41247    352553.45247  20989005.2314   20989009.1574
      -954.1414       -743.4864
  -1022466.41745   -763034.26345  23739376.0214   23739381.9384
      1803.5004       1405.3254
    754165.92845    566316.64445  23613268.5834   23613273.9744
     -1579.1094      -1230.4754
   -269258.59346   -202508.69046  21369716.5134   21369720.5444
       346.3284        269.8664
    564501.86846    435139.85846  22525100.4744   22525103.9074
     -1257.4064       -979.7974
 98  7  8 20 27 15.0010000  0  7G 3G 6G17G21G22G23G26
   -290490.76843    -75876.94242  24971221.7004   24971227.4894
      2492.4844       1942.1964
   1640198.08446   1249522.20646  21465315.6854   21465319.4464
     -3129.1094      -2438.2674
    475420.95447    363741.93347  20991737.8884   20991741.7554
      -960.2664       -748.2594
  -1049475.21845   -784080.02445  23734235.4194   23734241.2904
      1797.7034       1400.8084
    777927.81745    584832.38745  23617790.3414   23617796.2594
     -1589.0474      -1238.2184
   -274383.02346   -206501.72746  21368741.1694   21368745.2004
       337.0634        262.6464
    583454.91546    449908.50046  22528706.8104   22528710.5364
     -1269.5624       -989.2694
 98  7  8 20 27 30.0010000  0  7G 3G 6G17G21G22G23G26
   -327850.09943   -104988.04443  24964112.8414   24964120.4034
      2488.5164       1939.1034
   1687210.80846   1286155.48046  21474261.9664   21474265.8214
     -3139.4374      -2446.3154
    489873.47447    375003.64647  20994487.8964   20994491.6924
      -966.9374       -753.4584
  -1076394.03945   -805055.65145  23729113.0054   23729119.2864
      1791.2504       1395.7794
    801840.48145    603465.63745  23622340.7864   23622346.7044
     -1599.5944      -1246.4374
   -279368.77646   -210386.71346  21367792.5214   21367796.6224
       327.5474        255.2314
    602591.09646    464819.82346  22532348.1464   22532353.5244
     -1282.2034       -999.1194
 98  7  8 20 27 45.0010000  0  7G 3G 6G17G21G22G23G26
   -365150.56543   -134053.26642  24957014.4894   24957022.7554
      2484.7814       1936.1934
   1734376.51346   1322907.96546  21483237.4354   21483241.3134
     -3149.3754      -2454.0584
    504423.91847    386341.66547  20997256.9664   20997260.9504
      -973.1254       -758.2794
  -1103217.12645   -825956.69945  23724008.8564   23724015.2204
      1785.1564       1391.0314
    825913.15145    622223.54545  23626921.6534   23626927.5954
     -1610.1254      -1254.6434
   -284215.32846   -214163.22446  21366870.2084   21366874.3804
       318.6564        248.3044
    621915.69446    479877.93745  22536025.8494   22536032.0484
     -1294.3754      -1008.6044
 98  7  8 20 28  0.0010000  0  7G 3G 6G17G21G22G23G26
   -402393.02144   -163073.29242  24949928.0284   24949934.6964
      2480.3594       1932.7484
   1781692.79646   1359777.77446  21492241.3104   21492245.1064
     -3159.9694      -2462.3134
    519065.63447    397750.80247  21000043.0674   21000047.1694
      -979.5624       -763.2954
  -1129949.54245   -846787.10445  23718921.8104   23718927.7984
      1778.7194       1386.0154
    850143.23945    641104.12845  23631532.4584   23631538.4704
     -1621.0314      -1263.1414
   -288928.36746   -217835.69646  21365973.1924   21365977.1884
       309.3134        241.0234
    641420.97146    495076.84645  22539737.9584   22539742.7164
     -1306.7344      -1018.2354
 98  7  8 20 28 15.0010000  0  7G 3G 6G17G21G22G23G26
   -439570.25044   -192042.49943  24942853.5214   24942860.0484
      2476.2194       1929.5214
   1829165.29646   1396769.31246  21501275.2714   21501278.9154
     -3170.1254      -2470.2274
    533801.05547    409232.95747  21002847.2004   21002851.3134
      -985.5164       -767.9344
  -1156588.40645   -867544.57745  23713852.0444   23713857.9034
      1772.7664       1381.3764
    874535.00845    660110.71045  23636174.0524   23636179.7714
     -1631.5944      -1271.3724
   -293503.69046   -221400.85646  21365102.7004   21365106.6734
       300.2974        233.9984
    661109.05346    510418.25146  22543484.6304   22543486.7394
     -1318.7344      -1027.5854
 98  7  8 20 28 30.0010000  0  7G 3G 6G17G21G22G23G26
   -476680.21844   -220959.31843  24935791.0054   24935797.4274
      2472.0634       1926.2824
   1876797.32346   1433885.16046  21510339.1534   21510342.8924
     -3180.5944      -2478.3854
    548631.83847    420789.42047  21005669.5214   21005673.4464
      -991.6564       -772.7194
  -1183132.35545   -888228.10845  23708801.2164   23708807.2164
      1766.6414       1376.6034
    899090.35545    679244.71245  23640846.6144   23640852.8374
     -1642.1724      -1279.6144
   -297935.77746   -224854.41346  21364259.0214   21364262.8294
       290.9224        226.6924
    680983.42246    525904.81746  22547265.9814   22547268.0214
     -1330.9374      -1037.0944
 98  7  8 20 28 45.0010000  0  7G 3G 6G17G21G22G23G26
   -513731.68644   -249830.51643  24928740.6774   24928746.7004
      2468.0784       1923.1784
   1924581.31346   1471119.41746  21519431.9034   21519435.6534
     -3190.6564      -2486.2264
    563549.52747    432413.60347  21008507.9974   21008512.0634
      -997.3914       -777.1874
  -1209588.48345   -908843.20845  23703766.9894   23703773.3884
      1760.7974       1372.0504
    923798.58245    698497.88145  23645548.5214   23645554.3214
     -1652.3284      -1287.5284
   -302232.94646   -228202.82946  21363441.6464   21363445.2674
       281.9844        219.7284
    701036.26246    541530.42246  22551081.5994   22551086.6384
     -1342.8914      -1046.4084
 98  7  8 20 29  0.0010000  0  7G 3G 6G17G21G22G23G26
   -550718.60044   -278651.39043  24921702.2164   24921709.0244
      2463.8754       1919.9034
   1972520.36846   1508474.51046  21528554.7864   21528558.4074
     -3200.8124      -2494.1404
    578559.81147    444109.93947  21011364.4974   21011368.4584
     -1003.6724       -782.0824
  -1235951.96545   -929386.11045  23698750.1384   23698756.3024
      1754.6884       1367.2894
    948664.34745    717873.79045  23650280.4974   23650286.2394
     -1662.7974      -1295.6864
   -306389.42746   -231441.62246  21362650.5284   21362654.1614
       272.5634        212.3864
    721274.47646    557300.45246  22554933.0604   22554939.5994
     -1355.2664      -1056.0514
 98  7  8 20 29 15.0010000  0  7G 3G 6G17G21G22G23G26
   -587647.21944   -307426.91143  24914674.6774   24914681.2744
      2460.2344       1917.0664
   2020605.64646   1545943.54346  21537705.0754   21537708.9544
     -3210.2344      -2501.4814
    593661.45747    455877.46447  21014238.2394   21014242.4234
     -1009.5474       -786.6604
  -1262227.35945   -949860.36845  23693750.3494   23693757.0404
      1748.9694       1362.8334
    973684.72945    737370.18645  23655042.0364   23655048.0014
     -1673.0164      -1303.6494
   -310409.14246   -234573.84046  21361885.5604   21361889.1574
       263.6884        205.4714
    741696.32046    573213.55446  22558819.7474   22558825.1384
     -1367.4224      -1065.5244
 98  7  8 20 29 30.0010000  0  7G 3G 6G17G21G22G23G26
   -624520.07044   -336158.92543  24907658.3644   24907664.1184
      2456.0314       1913.7914
   2068832.19546   1583522.64646  21546882.2084   21546885.9234
     -3220.0474      -2509.1274
    608850.93147    467713.42847  21017128.8644   21017132.8844
     -1015.7814       -791.5184
  -1288415.72945   -970266.83445  23688766.5054   23688772.5874
      1742.6884       1357.9384
    998861.15745    756988.19145  23659832.5754   23659838.5994
     -1684.0004      -1312.2084
   -314294.15746   -237601.10246  21361146.2784   21361150.1224
       254.1564        198.0444
    762302.19946    589270.11446  22562740.5444   22562743.8964
     -1380.1564      -1075.4464
 98  7  8 20 29 45.0010000  0  7G 3G 6G17G21G22G23G26
   -661333.72244   -364844.85343  24900652.4664   24900658.5244
      2452.4844       1911.0274
   2117201.04346   1621212.64146  21556086.4274   21556090.1884
     -3229.1094      -2516.1894
    624129.26447    479618.62847  21020036.1614   21020040.2394
     -1021.3914       -795.8894
  -1314514.91745   -990603.80845  23683800.1534   23683806.4234
      1737.2194       1353.6774
   1024199.82145    776732.59845  23664654.5754   23664660.0714
     -1694.5004      -1320.3904
   -318037.79046   -240518.19346  21360434.0214   21360437.7824
       244.9384        190.8604
    783096.65646    605473.62345  22566697.5994   22566700.3064
     -1392.5474      -1085.1014
 98  7  8 20 30  0.0010000  0  7G 3G 6G17G21G22G23G26
   -698089.34644   -393485.51743  24893657.5214   24893664.6964
      2448.5474       1907.9594
   2165711.55546   1659013.02246  21565317.9424   21565321.8564
     -3238.6874      -2523.6534
    639498.82847    491594.92847  21022960.8644   21022965.0244
     -1027.6724       -800.7834
  -1340526.38445  -1010872.40845  23678850.0284   23678856.8884
      1731.2034       1348.9894
   1049700.68245    796603.37345  23669507.2634   23669512.8294
     -1705.3444      -1328.8394
   -321635.53446   -243321.61046  21359749.4194   21359753.3454
       234.9694        183.0934
    804082.90546    621826.55745  22570690.9974   22570694.2084
     -1405.3754      -1095.0974
 98  7  8 20 30 15.0010000  0  7G 3G 6G17G21G22G23G26
   -734791.52044   -422084.57743  24886673.7474   24886679.6534
      2444.7814       1905.0244
   2214361.50746   1696922.05546  21574575.8494   21574579.6814
     -3248.2504      -2531.1044
    654960.18547    503642.74747  21025903.2004   21025907.2314
     -1034.1724       -805.8484
  -1366449.86245  -1031072.47745  23673916.6464   23673922.9974
      1724.9384       1344.1074
   1075360.18045    816597.78945  23674389.8414   23674396.0754
     -1716.2344      -1337.3254
   -325086.54446   -246010.67846  21359092.5054   21359096.3374
       224.8914        175.2394
    825259.35646    638327.69445  22574720.8414   22574724.8844
     -1418.4534      -1105.2884
 98  7  8 20 30 30.0010000  0  7G 3G 6G17G21G22G23G26
   -771439.30844   -450641.22343  24879700.2394   24879706.4154
      2441.4064       1902.3944
   2263152.26946   1734940.81246  21583860.2084   21583863.7824
     -3257.4374      -2538.2634
    670517.18147    515765.08947  21028863.3174   21028867.3844
     -1040.2974       -810.6214
  -1392280.55745  -1051200.21645  23669001.3564   23669007.3334
      1718.9064       1339.4074
   1101182.03045    836718.71245  23679303.9504   23679310.5244
     -1726.8914      -1345.6294
   -328388.20846   -248583.38246  21358464.3644   21358468.4314
       215.1254        167.6304
    846630.83746    654980.80746  22578787.8104   22578792.1344
     -1431.2504      -1115.2604
 98  7  8 20 30 45.0010000  0  7G 3G 6G17G21G22G23G26
   -808036.68144   -479158.59043  24872735.9814   24872742.4034
      2437.9064       1899.6674
   2312080.60446   1773066.76746  21593171.0444   21593174.4544
     -3266.6414      -2545.4344
    686166.36347    527959.26547  21031841.3884   21031845.3374
     -1046.5314       -815.4794
  -1418019.51545  -1071256.49545  23664103.7084   23664109.6264
      1712.6564       1334.5374
   1127163.29445    856963.82645  23684247.7864   23684253.4464
     -1737.6414      -1354.0064
   -331545.33846   -251043.45946  21357863.5674   21357867.6104
       205.5474        160.1664
    868193.05846    671782.54846  22582890.9504   22582895.1104
     -1444.0164      -1125.2074
 98  7  8 20 31  0.0010000  0  7G 3G 6G17G21G22G23G26
   -844577.12744   -507631.67942  24865781.8414   24865787.9234
      2434.3134       1896.8674
   2361149.45246   1811302.21546  21602508.5674   21602512.1064
     -3275.7664      -2552.5454
    701911.79747    540228.44347  21034837.7554   21034841.7864
     -1052.7194       -820.3004
  -1443660.79445  -1091236.63445  23659223.9744   23659230.2674
      1706.3134       1329.5944
   1153310.89545    877338.56645  23689223.7164   23689229.5524
     -1748.5784      -1362.5284
   -334556.06846   -253389.45946  21357290.5994   21357294.4894
       196.0314        152.7524
    889950.04446    688736.04946  22587030.9664   22587035.7124
     -1456.8124      -1135.1794
 98  7  8 20 31 15.0010000  0  7G 3G 6G17G21G22G23G26
   -881062.67643   -536061.86943  24858839.0214   24858846.9114
      2430.5164       1893.9084
   2410358.18046   1849646.65046  21611872.6384   21611876.4704
     -3285.2974      -2559.9724
    717752.82347    552572.11147  21037851.8724   21037855.9504
     -1059.2974       -825.4264
  -1469204.28845  -1111140.58345  23654363.4274   23654369.4384
      1699.5944       1324.3594
   1179624.46545    897842.63945  23694230.8964   23694236.6734
     -1759.7974      -1371.2704
   -337422.68646   -255623.16446  21356744.7474   21356748.8254
       186.3134        145.1794
    911901.70346    705841.23845  22591208.2714   22591212.8534
     -1469.9374      -1145.4064
 98  7  8 20 31 30.0010000  0  7G 3G 6G17G21G22G23G26
   -917492.65243   -564448.82842  24851906.9664   24851912.6264
      2426.8134       1891.0234
   2459709.76046   1888102.41046  21621263.9274   21621267.6184
     -3294.9534      -2567.4964
    733688.46947    564989.50547  21040884.6464   21040888.5134
     -1065.4064       -830.1874
  -1494647.47545  -1130966.39045  23649521.5214   23649527.3924
      1692.7974       1319.0634
   1206103.78345    918475.86845  23699270.1144   23699276.4314
     -1770.7344      -1379.7934
   -340144.99746   -257744.42446  21356226.8254   21356230.6814
       176.6254        137.6304
    934046.78946    723097.15445  22595422.4114   22595426.3134
     -1482.6724      -1155.3294
 98  7  8 20 31 45.0010000  0  7G 3G 6G17G21G22G23G26
   -953864.74142   -592790.66142  24844984.6614   24844994.1694
      2422.8594       1887.9424
   2509211.29546   1926675.01046  21630684.1534   21630688.0094
     -3305.2504      -2575.5194
    749718.35947    577480.33747  21043935.1144   21043939.1344
     -1071.8594       -835.2154
  -1519985.28845  -1150710.07545  23644700.2314   23644706.2784
      1685.6884       1313.5234
   1232748.43645    939237.92845  23704340.5754   23704346.1774
     -1781.8124      -1388.4254
   -342719.29346   -259750.34346  21355737.0444   21355740.7824
       166.7504        129.9354
    956383.47746    740502.38846  22599672.8174   22599675.9584
     -1495.4694      -1165.3004
 98  7  8 20 32  0.0010000  0  7G 3G 6G17G21G22G23G26
   -990180.39043   -621088.49142  24838074.3804   24838079.0794
      2418.8594       1884.8254
   2558864.76747   1965366.00446  21640132.6224   21640136.3604
     -3315.5314      -2583.5314
    765841.70447    590043.99247  21047003.0604   21047006.6574
     -1078.2194       -840.1704
  -1545221.24446  -1170374.38045  23639897.6854   23639903.8024
      1678.7974       1308.1534
   1259553.69845    960125.13745  23709441.3254   23709447.3254
     -1792.5314      -1396.7784
   -345152.42546   -261646.26646  21355273.8884   21355277.6034
       157.4384        122.6794
    978906.91946    758053.14046  22603959.0834   22603962.5634
     -1507.9534      -1175.0284
 98  7  8 20 32 15.0010000  0  7G 3G 6G17G21G22G23G26
  -1026432.86242   -649337.11342  24831175.9114   24831182.4854
      2414.5944       1881.5024
   2608675.12846   2004179.24646  21649611.1774   21649615.0324
     -3326.0784      -2591.7494
    782061.19947    602682.56747  21050089.5834   21050093.3564
     -1084.5784       -845.1264
  -1570351.75945  -1189956.53645  23635115.5674   23635121.4274
      1671.7504       1302.6624
   1286521.56645    981139.03745  23714572.9504   23714579.2084
     -1803.3914      -1405.2394
   -347446.75246   -263434.03546  21354837.5914   21354841.2354
       148.2664        115.5324
   1001618.39546    775750.39345  22608280.7244   22608285.0014
     -1520.4694      -1184.7814
 98  7  8 20 32 30.0010000  0  7G 3G 6G17G21G22G23G26
  -1062620.96443   -677535.56842  24824289.3724   24824297.5324
      2410.2974       1878.1534
   2658642.98046   2043115.21546  21659119.8414   21659123.4854
     -3336.4374      -2599.8214
    798374.44247    615394.19047  21053194.1144   21053197.8764
     -1090.6254       -849.8384
  -1595378.31145  -1209457.67845  23630352.7244   23630358.8294
      1665.0164       1297.4154
   1313649.76545   1002277.88545  23719735.3644   23719740.5444
     -1813.7814      -1413.3364
   -349605.38846   -265116.06246  21354426.7554   21354430.5994
       139.4224        108.6404
   1024517.54446    793593.89445  22612638.2474   22612642.6884
     -1532.8914      -1194.4604
 98  7  8 20 32 45.0010000  0  7G 3G 6G17G21G22G23G26
  -1098739.62842   -705679.94542  24817415.7004   24817423.3804
      2405.3594       1874.3064
   2708770.32746   2082175.46446  21668658.5914   21668662.6344
     -3347.4064      -2608.3694
    814781.56447    628178.96747  21056316.1304   21056319.7044
     -1097.2504       -855.0004
  -1620299.36945  -1228876.61045  23625610.6534   23625616.2904
      1657.5634       1291.6074
   1340935.70045   1023539.64845  23724927.5214   23724933.3104
     -1824.5004      -1421.6884
   -351626.97246   -266691.30346  21354041.9424   21354045.6814
       129.9224        101.2384
   1047607.56946    811586.12245  22617032.4814   22617036.6304
     -1545.9844      -1204.6634
 98  7  8 20 33  0.0010000  0  7G 3G 6G17G21G22G23G26
  -1134780.89042   -733763.96742  24810557.9194   24810564.1064
      2400.1094       1870.2154
   2759065.74246   2121366.66646  21678229.6694   21678233.5484
     -3358.6414      -2617.1234
    831292.80247    641044.87047  21059458.1694   21059461.8494
     -1104.2814       -860.4794
  -1645104.77745  -1248205.42645  23620890.1304   23620896.0954
      1649.8594       1285.6054
   1368385.50145   1044929.09545  23730151.5914   23730157.5094
     -1835.5004      -1430.2604
   -353501.63746   -268152.06146  21353685.3884   21353688.9504
       119.9844         93.4944
   1070898.14546    829734.63845  22621464.5994   22621468.7474
     -1559.5004      -1215.1954
 98  7  8 20 33 15.0010000  0  7G 3G 6G17G21G22G23G26
  -1170749.48643   -761791.33742  24803712.9504   24803716.1034
      2395.5164       1866.6364
   2809523.30646   2160684.22846  21687831.6614   21687835.6574
     -3369.2814      -2625.4144
    847903.00247    653987.88947  21062618.9504   21062622.6064
     -1110.6564       -865.4464
  -1669801.64445  -1267449.67845  23616190.8494   23616196.4974
      1642.8914       1280.1754
   1395992.43645   1066440.98145  23735404.3414   23735410.3064
     -1845.6094      -1438.1374
   -355233.73646   -269501.72746  21353355.5994   21353359.2784
       110.7034         86.2624
   1094386.05646    848036.91045  22625934.0994   22625938.5284
     -1572.4534      -1225.2884
 98  7  8 20 33 30.0010000  0  7G 3G 6G17G21G22G23G26
  -1206646.11243   -789762.71542  24796882.6854   24796889.2244
      2390.3594       1862.6184
   2860143.26546   2200128.32846  21697464.1614   21697468.4274
     -3380.3124      -2634.0104
    864611.49347    667007.50047  21065798.3174   21065802.0214
     -1117.3754       -870.6824
  -1694392.78345  -1286611.53345  23611510.7084   23611516.5564
      1635.7034       1274.5744
   1423752.97145   1088072.55145  23740687.2314   23740692.4814
     -1856.0784      -1446.2954
   -356821.77546   -270739.13846  21353053.4974   21353057.3764
       100.7344         78.4944
   1118069.81546    866491.79545  22630440.7944   22630445.2824
     -1585.6564      -1235.5764
 98  7  8 20 33 45.0010000  0  7G 3G 6G17G21G22G23G26
  -1242468.32143   -817676.07342  24790066.0994   24790071.7824
      2385.6254       1858.9294
   2910924.89046   2239698.40546  21707127.5444   21707131.5634
     -3390.7974      -2642.1794
    881416.33547    680102.18947  21068996.2244   21069000.0914
     -1123.5944       -875.5284
  -1718881.42145  -1305693.52245  23606850.7714   23606856.9234
      1629.2344       1269.5334
   1451666.98045   1109823.71845  23745999.1924   23746004.8644
     -1866.0944      -1454.0994
   -358264.00046   -271862.93246  21352778.7634   21352782.5014
        91.3134         71.1534
   1141947.20246    885097.55645  22634984.6694   22634988.7824
     -1598.3124      -1245.4384
 98  7  8 20 34  0.0010000  0  7G 3G 6G17G21G22G23G26
  -1278213.76843   -845529.58942  24783263.9034   24783270.1734
      2380.0944       1854.6194
   2961867.46246   2279393.88046  21716821.9744   21716825.8764
     -3401.7974      -2650.7514
    898322.91947    693276.15347  21072213.7004   21072217.5214
     -1130.9224       -881.2384
  -1743269.12245  -1324696.84745  23602210.2244   23602216.1184
      1622.2034       1264.0544
   1479738.59345   1131697.70545  23751341.1064   23751346.2044
     -1877.0944      -1462.6704
   -359561.68846   -272874.09446  21352531.9584   21352535.6614
        81.3914         63.4214
   1166022.45846    903857.49445  22639566.4274   22639570.6464
     -1612.0004      -1256.1044
 98  7  8 20 34 15.0010000  0  7G 3G 6G17G21G22G23G26
  -1313879.75943   -873321.22842  24776477.0604   24776481.8414
      2375.3594       1850.9294
   3012968.46946   2319212.82246  21726545.8414   21726549.5444
     -3411.7034      -2658.4704
    915335.57447    706532.77247  21075450.8254   21075454.5054
     -1137.5314       -886.3884
  -1767556.49145  -1343622.00545  23597588.3104   23597594.1814
      1615.9844       1259.2094
   1507971.17845   1153697.09845  23756713.5994   23756719.1064
     -1887.3594      -1470.6704
   -360712.23546   -273770.60546  21352313.2004   21352316.8214
        71.8594         55.9944
   1190299.62546    922774.78545  22644185.5994   22644189.4424
     -1625.1094      -1266.3194
 98  7  8 20 34 30.0010000  0  7G 3G 6G17G21G22G23G26
  -1349468.47843   -901052.68742  24769704.0754   24769709.6184
      2369.8754       1846.6564
   3064224.66546   2359152.69946  21736299.7314   21736303.4704
     -3422.3754      -2666.7864
    932456.35647    719873.64847  21078709.1774   21078712.8684
     -1145.1874       -892.3544
  -1791740.69245  -1362466.77645  23592986.0834   23592991.8494
      1608.5634       1253.4254
   1536365.88245   1175822.84145  23762117.1464   23762122.5244
     -1898.5314      -1479.3754
   -361709.26446   -274547.48746  21352123.4114   21352127.0214
        61.0784         47.5934
   1214782.50846    941852.36446  22648844.5994   22648848.4784
     -1639.2194      -1277.3134
 98  7  8 20 34 45.0010000  0  7G 3G 6G17G21G22G23G26
  -1384977.39043   -928721.86043  24762947.1064   24762954.0714
      2364.6724       1842.6014
   3115636.86846   2399214.12346  21746083.2554   21746086.9814
     -3432.5624      -2674.7244
    949688.80547    733301.53347  21081987.9194   21081991.7634
     -1152.4694       -898.0284
  -1815815.14645  -1381226.01845  23588405.3494   23588411.1144
      1601.4384       1247.8734
   1564925.85545   1198077.34345  23767551.8414   23767558.0174
     -1909.5474      -1487.9594
   -362546.13246   -275199.56846  21351963.9274   21351967.3374
        50.5004         39.3514
   1239473.05546    961091.74445  22653543.1534   22653547.8534
     -1652.8124      -1287.9064
 98  7  8 20 35  0.0010000  0  7G 3G 6G17G21G22G23G26
  -1420404.53144   -956327.38643  24756206.3724   24756212.3024
      2358.8134       1838.0364
   3167206.48846   2439398.21646  21755896.6144   21755900.3994
     -3443.4844      -2683.2354
    967036.04647    746818.87047  21085289.3104   21085293.2004
     -1160.6414       -904.3954
  -1839779.38045  -1399899.37145  23583844.7474   23583850.6424
      1593.7344       1241.8714
   1593659.30045   1220467.03845  23773019.6614   23773025.6264
     -1921.7504      -1497.4684
   -363218.25046   -275723.27846  21351836.0914   21351839.6064
        39.0004         30.3904
   1264370.56846    980492.41846  22658280.9194   22658285.3374
     -1667.0004      -1298.9614
 98  7  8 20 35 15.0010000  0  7G 3G 6G17G21G22G23G26
  -1455748.35644   -983867.98543  24749479.3414   24749487.2204
      2353.5164       1833.9084
   3218933.24046   2479704.75446  21765739.7784   21765743.6574
     -3453.5944      -2691.1124
    984498.71347    760426.14747  21088612.4814   21088616.5364
     -1167.8754       -910.0324
  -1863637.29345  -1418489.89545  23579304.3564   23579310.0874
      1587.1414       1236.7334
   1622570.90445   1242995.53645  23778521.2944   23778527.5754
     -1933.3124      -1506.4774
   -363725.12646   -276118.22246  21351739.6464   21351743.0794
        28.4224         22.1474
   1289473.92246   1000053.47046  22663057.9504   22663062.3564
     -1680.2974      -1309.3224
 98  7  8 20 35 30.0010000  0  7G 3G 6G17G21G22G23G26
  -1491008.34644  -1011343.26343  24742769.9664   24742775.7084
      2348.0164       1829.6234
   3270816.09846   2520132.93146  21775613.0284   21775616.9544
     -3463.9374      -2699.1724
   1002073.49047    774120.78247  21091956.6534   21091960.5094
     -1175.2504       -915.7794
  -1887390.52946  -1436998.84445  23574784.3494   23574789.7864
      1580.1564       1231.2914
   1651659.75145   1265662.16345  23784056.4744   23784062.4274
     -1945.0314      -1515.6094
   -364068.49646   -276385.76146  21351674.3724   21351677.8294
        17.4844         13.6244
   1314779.99846   1019772.50645  22667873.4114   22667877.4894
     -1693.6564      -1319.7324
 98  7  8 20 35 45.0010000  0  7G 3G 6G17G21G22G23G26
  -1526184.50543  -1038753.17342  24736075.2084   24736081.3254
      2342.1564       1825.0574
   3322853.79646   2560681.75646  21785515.3174   21785519.2784
     -3474.4844      -2707.3904
   1019760.31047    787902.72747  21095322.4354   21095326.2554
     -1183.0624       -921.8674
  -1911037.99745  -1455425.35545  23570284.0754   23570289.7244
      1572.7504       1225.5194
   1680926.97645   1288467.78945  23789626.2314   23789632.2554
     -1957.2974      -1525.1664
   -364247.40146   -276525.14046  21351640.3964   21351643.8644
         6.4064          4.9924
   1340286.37046   1039647.59945  22672727.0674   22672731.2984
     -1707.2504      -1330.3254
 98  7  8 20 36  0.0010000  0  7G 3G 6G17G21G22G23G26
  -1561279.61043  -1066099.93342  24729397.6924   24729404.7394
      2336.7664       1820.8564
   3375044.20246   2601349.57446  21795446.7164   21795450.7594
     -3484.6564      -2715.3174
   1037561.07947    801773.46247  21098709.7714   21098713.6614
     -1190.8754       -927.9554
  -1934577.15445  -1473767.50045  23565804.9274   23565810.9504
      1565.3134       1219.7244
   1710373.88545   1311413.40945  23795229.6384   23795235.1924
     -1969.4374      -1534.6274
   -364266.69446   -276540.15346  21351636.6614   21351640.0364
        -4.3284         -3.3734
   1365992.93246   1059678.70346  22677618.9114   22677622.8604
     -1720.7504      -1340.8444
 98  7  8 20 36 15.0010000  0  7G 3G 6G17G21G22G23G26
  -1596293.51844  -1093383.45643  24722735.1304   24722741.8924
      2331.5164       1816.7654
   3427389.06646   2642137.76046  21805407.8804   21805412.1464
     -3494.8914      -2723.2914
   1055480.33047    815736.52047  21102119.6384   21102123.5994
     -1198.5314       -933.9204
  -1958002.28945  -1492020.80245  23561346.9034   23561353.3024
      1557.7814       1213.8564
   1740004.37845   1334502.07445  23800868.6774   23800874.5364
     -1981.4224      -1543.9654
   -364121.96546   -276427.35446  21351664.2314   21351667.9464
       -15.2034        -11.8474
   1391903.13346   1079868.47546  22682549.4974   22682553.7984
     -1734.0944      -1351.2424
 98  7  8 20 36 30.0010000  0  7G 3G 6G17G21G22G23G26
  -1631229.94144  -1120606.56643  24716086.3334   24716092.7904
      2326.3594       1812.7484
   3479886.17046   2683044.56446  21815397.6614   21815401.8454
     -3505.0164      -2731.1814
   1073511.43047    829786.73447  21105550.7474   21105554.6614
     -1205.9374       -939.6924
  -1981314.21745  -1510185.87645  23556911.2784   23556917.0794
      1550.1414       1207.9024
   1769811.37245   1357728.27745  23806540.1064   23806546.0604
     -1993.1874      -1553.1334
   -363814.48846   -276187.74346  21351722.7164   21351726.4424
       -26.0474        -20.2964
   1418011.54246   1100212.68846  22687517.6854   22687521.8564
     -1747.3594      -1361.5794
 98  7  8 20 36 45.0010000  0  7G 3G 6G17G21G22G23G26
  -1666076.94344  -1147760.02843  24709455.7084   24709462.8134
      2319.8284       1807.6584
   3532545.77146   2724077.98646  21825418.5674   21825422.8214
     -3516.3594      -2740.0204
   1091663.66747    843931.34047  21109005.2164   21109009.1304
     -1214.4224       -946.3034
  -2004502.08945  -1528254.28345  23552498.5214   23552504.1574
      1541.5634       1201.2184
   1799805.02245   1381099.95145  23812248.2634   23812254.2394
     -2006.0164      -1563.1294
   -363336.69146   -275815.40846  21351813.5054   21351817.1964
       -37.7034        -29.3794
   1444327.44746   1120718.60245  22692525.4664   22692530.5404
     -1761.4064      -1372.5244
 98  7  8 20 37  0.0010000  0  7G 3G 6G17G21G22G23G26
  -1700831.42144  -1174841.35243  24702842.0054   24702849.6964
      2313.7034       1802.8864
   3585371.58646   2765240.92746  21835470.9584   21835475.0604
     -3527.5004      -2748.7014
   1109939.17947    858172.00647  21112483.0524   21112487.1304
     -1222.7344       -952.7804
  -2027568.43245  -1546227.99545  23548109.4424   23548115.4664
      1533.5784       1194.9964
   1829986.74245   1404618.15245  23817990.8174   23817997.2394
     -2018.6094      -1572.9424
   -362690.15546   -275311.59746  21351936.7714   21351940.4854
       -48.8594        -38.0724
   1470848.28846   1141384.18945  22697572.1534   22697576.9114
     -1775.1094      -1383.2024
 98  7  8 20 37 15.0010000  0  7G 3G 6G17G21G22G23G26
  -1735497.01044  -1201853.43743  24696245.2864   24696251.6144
      2308.2034       1798.6004
   3638362.32346   2806532.38946  21845554.5994   21845558.6424
     -3538.0314      -2756.9074
   1128337.37647    872508.26747  21115984.1924   21115988.0954
     -1230.4694       -958.8074
  -2050516.49945  -1564109.53845  23543742.2944   23543748.3064
      1525.9844       1189.0794
   1860352.55945   1428279.82545  23823769.7474   23823775.9704
     -2030.2344      -1582.0014
   -361880.01546   -274680.29446  21352090.8254   21352094.4704
       -59.2194        -46.1444
   1497573.16946   1162208.79046  22702657.9974   22702662.2044
     -1788.3754      -1393.5394
 98  7  8 20 37 30.0010000  0  7G 3G 6G17G21G22G23G26
  -1770071.24144  -1228794.34443  24689665.4034   24689671.6854
      2302.0164       1793.7784
   3691519.76046   2847953.73546  21855670.3564   21855674.3294
     -3549.3124      -2765.6984
   1146860.45847    886941.84347  21119508.8414   21119512.7084
     -1239.0314       -965.4794
  -2073339.95546  -1581893.98845  23539399.1694   23539405.4854
      1517.4064       1182.3944
   1890899.99245   1452082.97545  23829582.5134   23829588.9354
     -2042.4844      -1591.5464
   -360906.97247   -273922.05846  21352275.8564   21352279.3604
       -70.2974        -54.7774
   1524506.14246   1183195.53346  22707783.3334   22707787.4354
     -1802.4224      -1404.4854
 98  7  8 20 37 45.0010000  0  7G 3G 6G17G21G22G23G26
  -1804560.51945  -1255669.05143  24683103.5524   24683109.5524
      2296.5474       1789.5174
   3744839.24846   2889501.35146  21865816.7084   21865820.5054
     -3559.9694      -2774.0024
   1165507.45847    901471.97747  21123056.9974   21123060.8294
     -1247.2814       -971.9074
  -2096040.69046  -1599582.82545  23535079.2944   23535085.0714
      1509.3754       1176.1364
   1921624.57545   1476024.19345  23835429.3254   23835435.3374
     -2054.1564      -1600.6414
   -359772.50047   -273038.03346  21352492.0364   21352495.4584
       -80.9534        -63.0804
   1551643.41846   1204341.48045  22712947.1464   22712951.4114
     -1815.9694      -1415.0414
 98  7  8 20 38  0.0010000  0  7G 3G 6G17G21G22G23G26
  -1838965.84945  -1282478.34543  24676556.1144   24676562.5364
      2290.6564       1784.9274
   3798320.00246   2931174.64146  21875993.7944   21875997.7204
     -3570.9844      -2782.5854
   1184279.60047    916099.62247  21126629.4974   21126633.4114
     -1255.8284       -978.5674
  -2118620.46446  -1617177.37645  23530782.5214   23530788.4154
      1501.1094       1169.6964
   1952525.78145   1500103.02845  23841309.9424   23841315.9894
     -2066.1414      -1609.9804
   -358477.93447   -272029.25946  21352738.1224   21352741.5794
       -91.8444        -71.5674
   1578987.49546   1225648.54745  22718150.5994   22718155.4154
     -1830.0944      -1426.0474
 98  7  8 20 38 15.0010000  0  7G 3G 6G17G21G22G23G26
  -1873281.47545  -1309217.70943  24670025.7864   24670032.1264
      2284.6724       1780.2644
   3851966.41646   2972977.01746  21886202.4424   21886206.3214
     -3581.9064      -2791.0964
   1203179.48947    930826.81347  21130225.9584   21130229.8844
     -1264.1564       -985.0574
  -2141077.64946  -1634676.42045  23526508.9894   23526514.8724
      1493.1724       1163.5114
   1983606.75445   1524321.95245  23847224.3644   23847230.3294
     -2077.9844      -1619.2094
   -357017.55547   -270891.28346  21353016.0524   21353019.4034
      -102.9224        -80.1994
   1606544.14746   1247121.26245  22723394.3724   22723398.5214
     -1844.2034      -1437.0414
 98  7  8 20 38 30.0010000  0  7G 3G 6G17G21G22G23G26
  -1907505.94045  -1335886.10343  24663512.6384   24663518.8134
      2278.3134       1775.3084
   3905776.48446   3014906.90846  21896442.2084   21896446.2984
     -3593.0004      -2799.7404
   1222201.60447    945649.24747  21133845.8414   21133849.6614
     -1272.3914       -991.4734
  -2163416.60346  -1652083.34345  23522258.2244   23522264.0484
      1485.0474       1157.1794
   2014861.85245   1548676.55245  23853172.2634   23853178.2284
     -2089.6094      -1628.2674
   -355392.02047   -269624.61546  21353325.4034   21353328.7904
      -114.0474        -88.8684
   1634310.82546   1268757.65145  22728678.7784   22728682.7284
     -1858.3594      -1448.0724
 98  7  8 20 38 45.0010000  0  7G 3G 6G17G21G22G23G26
  -1941634.48145  -1362479.68543  24657017.9664   24657024.8844
      2272.3134       1770.6334
   3959751.18746   3056965.09046  21906713.0994   21906717.0244
     -3603.5164      -2807.9344
   1241347.33547    960568.00047  21137489.0284   21137493.1424
     -1280.2814       -997.6224
  -2185633.77646  -1669395.35445  23518030.1694   23518036.2984
      1477.4064       1151.2264
   2046291.32345   1573167.02545  23859152.6304   23859158.9814
     -2100.8594      -1637.0334
   -353600.88547   -268228.90346  21353666.2004   21353669.7394
      -124.5944        -97.0864
   1662290.43746   1290559.96146  22734002.7474   22734006.2044
     -1872.0624      -1458.7504
 98  7  8 20 39  0.0010000  0  7G 3G 6G17G21G22G23G26
  -1975669.55545  -1389000.48643  24650540.9744   24650546.5054
      2266.1564       1765.8364
   4013889.77246   3099150.97346  21917015.4034   21917019.3174
     -3614.5624      -2816.5424
   1260616.27647    975582.76447  21141155.8174   21141159.7554
     -1288.4694      -1004.0024
  -2207732.79946  -1686615.31745  23513824.8494   23513830.9894
      1469.4694       1145.0414
   2077893.89045   1597792.38545  23865166.7164   23865173.0214
     -2112.3594      -1645.9944
   -351647.66347   -266706.89446  21354037.9584   21354041.3454
      -135.4534       -105.5484
   1690478.42046   1312524.63545  22739366.4894   22739370.4854
     -1885.9694      -1469.5864
 98  7  8 20 39 15.0010000  0  7G 3G 6G17G21G22G23G26
  -2009613.25245  -1415450.06443  24644082.0604   24644088.6464
      2259.7814       1760.8694
   4068194.19246   3141466.07846  21927349.2164   21927353.0364
     -3625.8594      -2825.3454
   1280006.92447    990692.36647  21144845.5214   21144849.3884
     -1296.7504      -1010.4554
  -2229710.04045  -1703740.38145  23509642.7314   23509648.6854
      1460.9224       1138.3814
   2109668.98045   1622552.17745  23871213.4814   23871219.5634
     -2124.1724      -1655.1994
   -349530.02847   -265056.77546  21354440.9034   21354444.1384
      -146.7504       -114.3514
   1718878.76846   1334654.77245  22744770.9974   22744775.6494
     -1900.6094      -1480.9944
 98  7  8 20 39 30.0010000  0  7G 3G 6G17G21G22G23G26
  -2043465.13045  -1441828.08944  24637640.2084   24637645.9274
      2253.8594       1756.2544
   4122662.45146   3183908.84646  21937714.3644   21937718.3844
     -3636.4694      -2833.6124
   1299515.87647   1005894.15247  21148558.1854   21148561.9934
     -1304.3754      -1016.3964
  -2251562.25346  -1720768.01045  23505484.3174   23505489.7904
      1452.7974       1132.0504
   2141615.63945   1647445.65445  23877292.5994   23877298.5994
     -2135.2974      -1663.8684
   -347247.24147   -263277.96246  21354875.5364   21354878.7474
      -157.4844       -122.7154
   1747495.89246   1356953.82845  22750217.1384   22750221.8494
     -1914.9224      -1492.1474
 98  7  8 20 39 45.0010000  0  7G 3G 6G17G21G22G23G26
  -2077227.65745  -1468136.48143  24631215.4974   24631223.0244
      2247.6564       1751.4204
   4177289.64346   3226475.45646  21948109.7474   21948113.8134
     -3647.3284      -2842.0744
   1319140.37347   1021185.97447  21152292.5674   21152296.4234
     -1312.3594      -1022.6184
  -2273292.89846  -1737700.92545  23501349.0134   23501354.6144
      1444.4534       1125.5484
   2173730.57945   1672470.27845  23883403.8724   23883408.8764
     -2146.8594      -1672.8774
   -344802.89847   -261373.26546  21355340.3494   21355343.7004
      -168.5784       -131.3604
   1776327.74246   1379420.21645  22755703.5994   22755706.9744
     -1929.5164      -1503.5194
 98  7  8 20 40  0.0010000  0  7G 3G 6G17G21G22G23G26
  -2110895.28344  -1494370.90043  24624808.3564   24624813.8174
      2241.0314       1746.2584
   4232081.14746   3269170.10446  21958536.1144   21958540.2514
     -3658.5474      -2850.8164
   1338883.15947   1036569.96647  21156049.5284   21156053.4424
     -1320.2814      -1028.7914
  -2294897.52846  -1754535.62745  23497238.0524   23497244.3214
      1435.8594       1118.8514
   2206018.26445   1697629.48245  23889548.6304   23889553.9744
     -2158.4374      -1681.8994
   -342193.70647   -259340.11046  21355836.9744   21355840.2434
      -179.5624       -139.9194
   1805379.83146   1402058.21645  22761231.7634   22761235.2554
     -1944.4064      -1515.1224
 98  7  8 20 40 15.0010000  0  7G 3G 6G17G21G22G23G26
  -2144467.63144  -1520531.10843  24618420.2084   24618425.8804
      2235.2034       1741.7174
   4287036.53046   3311992.45246  21968993.6224   21968997.5834
     -3668.8914      -2858.8764
   1358739.23447   1052042.23747  21159827.9354   21159831.8724
     -1327.2814      -1034.2454
  -2316377.50646  -1771273.23145  23493150.3804   23493156.0284
      1428.0784       1112.7884
   2238474.63345   1722920.14745  23895724.4974   23895730.2634
     -2169.1094      -1690.2154
   -339425.28647   -257182.87946  21356363.7004   21356367.0404
      -189.6094       -147.7484
   1834649.70546   1424865.93045  22766801.5994   22766805.4664
     -1958.2504      -1525.9094
 98  7  8 20 40 30.0010000  0  7G 3G 6G17G21G22G23G26
  -2177939.41244  -1546612.96343  24612050.6924   24612057.9744
      2228.2344       1736.2874
   4342161.23746   3354946.73846  21979483.7474   21979487.9784
     -3680.5624      -2867.9714
   1378714.68347   1067607.52547  21163629.1384   21163633.0404
     -1335.6564      -1040.7714
  -2337725.72846  -1787908.16345  23489087.8024   23489093.7674
      1418.7974       1105.5564
   2271105.20445   1748346.54845  23901933.7554   23901939.8374
     -2181.0944      -1699.5544
   -336491.52447   -254896.81546  21356921.9584   21356925.3334
      -201.0164       -156.6364
   1864139.17446   1447844.73245  22772413.0364   22772417.7354
     -1973.2344      -1537.5854
 98  7  8 20 40 45.0010000  0  7G 3G 6G17G21G22G23G26
  -2211308.98444  -1572615.12043  24605700.3964   24605706.6184
      2221.0314       1730.6744
   4397459.45046   3398036.22246  21990006.8564   21990011.0054
     -3692.5624      -2877.3214
   1398814.43047   1083269.67647  21167454.0834   21167457.8214
     -1344.3754      -1047.5654
  -2358935.88146  -1804435.47945  23485051.5674   23485057.5564
      1409.2194       1098.0934
   2303912.97245   1773911.02345  23908177.0054   23908182.5604
     -2193.3444      -1709.0994
   -333390.39247   -252480.33546  21357512.1304   21357515.4584
      -212.5164       -165.5974
   1893851.97846   1470997.56745  22778067.4034   22778072.1964
     -1988.5624      -1549.5294
 98  7  8 20 41  0.0010000  0  7G 3G 6G17G21G22G23G26
  -2244577.48344  -1598538.57043  24599369.5524   24599376.4934
      2215.0474       1726.0114
   4452931.70146   3441261.32446  22000562.5834   22000566.7554
     -3703.4844      -2885.8324
   1419040.04847   1099029.90247  21171302.6384   21171306.5054
     -1352.0784      -1053.5674
  -2380010.69846  -1820857.35545  23481041.0604   23481046.4974
      1401.0474       1091.7254
   2336900.00745   1799615.16545  23914454.5364   23914460.3024
     -2204.6564      -1717.9144
   -330122.05347   -249933.56546  21358134.2004   21358137.7284
      -223.0164       -173.7784
   1923788.71146   1494324.89445  22783764.0054   22783768.4114
     -2002.7504      -1560.5844
 98  7  8 20 41 15.0010000  0  7G 3G 6G17G21G22G23G26
  -2277748.25544  -1624385.80643  24593057.6144   24593063.2514
      2207.8914       1720.4344
   4508574.85246   3484619.58946  22011151.3494   22011155.6494
     -3715.3914      -2895.1104
   1439386.26247   1114884.10447  21175174.6774   21175178.4384
     -1360.5624      -1060.1794
  -2400955.36546  -1837177.82545  23477055.4814   23477061.5524
      1391.7504       1084.4814
   2370063.67445   1825456.96845  23920765.2084   23920770.8214
     -2217.0004      -1727.5324
   -326687.99947   -247257.66146  21358787.4354   21358790.5404
      -234.7034       -182.8864
   1953947.69646   1517825.41245  22789502.9974   22789507.2634
     -2018.2974      -1572.6994
 98  7  8 20 41 30.0010000  0  7G 3G 6G17G21G22G23G26
  -2310815.29244  -1650152.31843  24586765.1144   24586769.9894
      2201.0944       1715.1384
   4564389.54546   3528111.52246  22021772.4034   22021776.7164
     -3726.5004      -2903.7664
   1459854.39747   1130833.30747  21179069.4354   21179073.1264
     -1368.5164      -1066.3764
  -2421766.08646  -1853393.90245  23473095.4194   23473101.3604
      1383.1564       1077.7844
   2403407.07145   1851438.81745  23927110.1304   23927115.8134
     -2228.7194      -1736.6644
   -323084.12347   -244449.42946  21359473.4894   21359476.8644
      -245.7344       -191.4814
   1984333.01746   1541502.29345  22795285.2554   22795289.5564
     -2032.9694      -1584.1314
 98  7  8 20 41 45.0010000  0  7G 3G 6G17G21G22G23G26
  -2343778.85144  -1675838.09843  24580491.9424   24580498.1884
      2194.0474       1709.6474
   4620371.96746   3571734.16346  22032425.3724   22032429.5094
     -3737.8594      -2912.6184
   1480444.91447   1146877.87547  21182987.8724   21182991.8334
     -1376.8594      -1072.8774
  -2442448.35046  -1869509.89645  23469159.4424   23469165.2204
      1374.5164       1071.0514
   2436926.87245   1877558.12945  23933488.7864   23933494.9034
     -2240.5944      -1745.9174
   -319314.05247   -241511.69446  21360190.8494   21360194.1654
      -256.9534       -200.2234
   2014937.84646   1565350.21145  22801109.2084   22801112.8534
     -2047.5944      -1595.5284
 98  7  8 20 42  0.0010000  0  7G 3G 6G17G21G22G23G26
  -2376634.58244  -1701439.92643  24574240.4504   24574245.6774
      2187.0164       1704.1684
   4676528.12546   3615492.17346  22043111.4034   22043115.6574
     -3749.3284      -2921.5544
   1501160.26747   1163019.71047  21186929.8024   21186933.8564
     -1384.8594      -1079.1114
  -2463000.66545  -1885524.63545  23465248.2474   23465254.0244
      1366.0944       1064.4894
   2470627.87645   1903818.64445  23939901.9424   23939907.8494
     -2252.5474      -1755.2314
   -315372.12347   -238440.04646  21360940.9584   21360944.4154
      -268.3594       -209.1114
   2045761.36746   1589368.54245  22806974.8804   22806978.8064
     -2061.9224      -1606.6924
 98  7  8 20 42 15.0010000  0  7G 3G 6G17G21G22G23G26
  -2409385.27944  -1726959.90143  24568007.7164   24568015.8994
      2180.1564       1698.8234
   4732855.79046   3659383.82746  22053830.4114   22053834.4424
     -3760.6254      -2930.3574
   1521994.91047   1179254.50547  21190894.5214   21190898.4584
     -1392.7664      -1085.2724
  -2483427.12246  -1901441.28545  23461361.0284   23461366.8534
      1357.7664       1057.9994
   2504507.48545   1930218.32645  23946348.8884   23946354.8644
     -2264.4064      -1764.4724
   -311258.38547   -235234.51847  21361723.7784   21361726.8494
      -279.8444       -218.0604
   2076798.70446   1613553.49045  22812881.0754   22812885.1064
     -2076.0004      -1617.6624
 98  7  8 20 42 30.0010000  0  7G 3G 6G17G21G22G23G26
  -2442034.11745  -1752400.46343  24561794.8024   24561800.7314
      2173.3594       1693.5274
   4789350.06646   3703405.30846  22064580.7784   22064584.9974
     -3771.6094      -2938.9164
   1542948.42047   1195581.92847  21194881.8644   21194885.8134
     -1400.6874      -1091.4454
  -2503728.56045  -1917260.53645  23457498.2554   23457504.2084
      1349.4064       1051.4854
   2538566.67245   1956757.91945  23952830.1224   23952836.5094
     -2276.4694      -1773.8724
   -306971.66247   -231894.19647  21362539.6774   21362542.8534
      -291.3444       -227.0214
   2108046.07146   1637902.09045  22818827.0444   22818831.7314
     -2089.9534      -1628.5354
 98  7  8 20 42 45.0010000  0  7G 3G 6G17G21G22G23G26
  -2474581.58644  -1777762.09242  24555601.5054   24555607.2944
      2166.6564       1688.3044
   4846009.53746   3747555.51346  22075362.9274   22075367.0994
     -3782.6094      -2947.4884
   1564019.94947   1212001.30847  21198891.5994   21198895.5714
     -1408.4534      -1097.4964
  -2523904.67646  -1932982.11545  23453658.4424   23453664.3024
      1341.1724       1045.0694
   2572806.06345   1983437.94345  23959345.7714   23959351.7594
     -2288.3594      -1783.1374
   -302513.25747   -228420.09647  21363387.9034   21363391.2674
      -302.6414       -235.8244
   2139503.17046   1662414.10045  22824813.3174   22824817.9234
     -2103.9374      -1639.4324
 98  7  8 20 43  0.0010000  0  7G 3G 6G17G21G22G23G26
  -2507026.94044  -1803044.13943  24549427.0214   24549432.5174
      2159.2504       1682.5324
   4902834.85746   3791834.94946  22086176.6534   22086181.1654
     -3794.2664      -2956.5714
   1585208.20647   1228511.64947  21202923.3644   21202927.4894
     -1416.8284      -1104.0224
  -2543958.16846  -1948608.17345  23449842.6144   23449848.3804
      1332.4694       1038.2874
   2607224.38045   2010257.37245  23965895.2554   23965901.6884
     -2300.9224      -1792.9264
   -297886.49947   -224814.81447  21364268.3964   21364271.9354
      -314.5004       -245.0654
   2171170.71646   1687090.11045  22830839.5674   22830843.6224
     -2118.5314      -1650.8044
 98  7  8 20 43 15.0010000  0  7G 3G 6G17G21G22G23G26
  -2539368.16144  -1828245.01543  24543272.3884   24543278.6104
      2152.9064       1677.5894
   4959828.95246   3836245.90046  22097022.2944   22097026.8994
     -3804.9374      -2964.8864
   1606516.84347   1245115.78947  21206978.5524   21206982.7244
     -1424.3124      -1109.8544
  -2563885.88846  -1964136.18145  23446050.0754   23446055.8644
      1324.5314       1032.1024
   2641826.61245   2037220.14345  23972480.1534   23972486.1064
     -2312.6724      -1802.0824
   -293085.81047   -221073.99646  21365182.0444   21365185.3724
      -325.5474       -253.6734
   2203050.65646   1711931.62945  22836905.9744   22836909.4194
     -2132.1254      -1661.3964
 98  7  8 20 43 30.0010000  0  7G 3G 6G17G21G22G23G26
  -2571613.01844  -1853370.80143  24537136.7634   24537142.6344
      2146.7974       1672.8294
   5016985.81146   3880783.67346  22107898.6774   22107903.2124
     -3815.6094      -2973.2024
   1627940.46847   1261809.53447  21211055.2474   21211059.4074
     -1431.8754      -1115.7474
  -2583691.56846  -1979569.12045  23442281.8494   23442287.1814
      1316.6094       1025.9294
   2676606.89045   2064321.64945  23979098.5994   23979104.1534
     -2324.2974      -1811.1404
   -288118.66047   -217203.47746  21366126.9974   21366130.5014
      -336.3284       -262.0744
   2235135.58146   1736932.87245  22843011.2944   22843015.1734
     -2145.5004      -1671.8184
 98  7  8 20 43 45.0010000  0  7G 3G 6G17G21G22G23G26
  -2603761.94845  -1878421.91043  24531019.3104   24531024.4664
      2140.0164       1667.5454
   5074308.62746   3925450.77446  22118806.8024   22118811.2904
     -3827.2504      -2982.2734
   1649485.25747   1278597.69147  21215154.9584   21215158.9424
     -1440.5474      -1122.5044
  -2603374.29746  -1994906.26645  23438535.9194   23438541.0874
      1308.0164       1019.2334
   2711566.40945   2091562.79745  23985751.0994   23985757.0284
     -2336.7814      -1820.8694
   -282985.68147   -213203.73346  21367103.7554   21367107.3064
      -347.8594       -271.0594
   2267426.64046   1762094.73345  22849156.4744   22849160.8564
     -2159.7974      -1682.9594
 98  7  8 20 44  0.0010000  0  7G 3G 6G17G21G22G23G26
  -2635813.70145  -1903397.19143  24524919.5134   24524925.3964
      2133.7664       1662.6754
   5131802.89146   3970251.46846  22129747.7474   22129752.2124
     -3838.4534      -2991.0024
   1671155.05747   1295483.25847  21219278.7554   21219282.6924
     -1448.5474      -1128.7384
  -2622931.48046  -2010145.56045  23434814.0994   23434819.8174
      1299.8594       1012.8774
   2746709.72645   2118947.18345  23992438.1924   23992444.3564
     -2348.8284      -1830.2564
   -277683.54147   -209072.17246  21368112.8254   21368116.3174
      -358.9064       -279.6674
   2299929.94346   1787421.96445  22855341.5364   22855345.8964
     -2173.7814      -1693.8564
 98  7  8 20 44 15.0010000  0  7G 3G 6G17G21G22G23G26
  -2667775.24945  -1928302.28543  24518837.3334   24518842.7354
      2127.7664       1657.9994
   5189461.76446   4015180.41846  22140720.0444   22140724.6734
     -3849.3444      -2999.4894
   1692943.56347   1312461.32747  21223425.0284   21223428.8964
     -1456.6254      -1135.0324
  -2642369.56046  -2025292.04345  23431115.1224   23431120.6304
      1291.8594       1006.6444
   2782031.31745   2146470.47545  23999160.1774   23999165.9784
     -2360.7194      -1839.5214
   -272218.10147   -204813.37446  21369152.8644   21369156.3564
      -369.7664       -288.1294
   2332640.42046   1812910.65945  22861566.3494   22861570.2984
     -2187.5624      -1704.5944
 98  7  8 20 44 30.0010000  0  7G 3G 6G17G21G22G23G26
  -2699642.21045  -1953133.58944  24512773.3804   24512779.2864
      2121.4224       1653.0564
   5247287.49946   4060239.39446  22151723.7554   22151728.1854
     -3860.4844      -3008.1704
   1714859.19747   1329538.45247  21227595.4744   21227599.3644
     -1465.2034      -1141.7174
  -2661683.86146  -2040342.11445  23427439.7554   23427445.7084
      1283.6724       1000.2644
   2817534.66745   2174135.42145  24005916.1694   24005922.5094
     -2372.7974      -1848.9334
   -266586.85847   -200425.37446  21370224.3804   21370227.9074
      -380.7814       -296.7134
   2365561.90146   1838563.75545  22867830.9744   22867834.6654
     -2201.7034      -1715.6134
 98  7  8 20 44 45.0010000  0  7G 3G 6G17G21G22G23G26
  -2731412.37345  -1977889.50143  24506727.6464   24506733.9034
      2114.6094       1647.7484
   5305282.00246   4105429.88346  22162759.8024   22162764.3024
     -3872.1414      -3017.2524
   1736904.60947   1346716.70347  21231790.3644   21231794.2084
     -1474.1564      -1148.6934
  -2680876.67946  -2055297.48445  23423787.9034   23423793.8104
      1275.3914        993.8114
   2853217.79845   2201940.42045  24012706.5604   24012712.0914
     -2384.8914      -1858.3564
   -260790.54347   -195908.74946  21371327.3174   21371330.6224
      -392.0784       -305.5154
   2398696.45946   1864382.89645  22874136.1854   22874139.6774
     -2216.2664      -1726.9604
 98  7  8 20 45  0.0020000  0  7G 3G 6G17G21G22G23G26
  -2763085.00145  -2002569.40644  24500700.3934   24500706.3464
      2108.1724       1642.7314
   5363453.85746   4150758.56346  22173829.7524   22173834.2524
     -3883.4844      -3026.0924
   1759083.37847   1363998.87247  21236010.9004   21236014.8034
     -1482.7664      -1155.4024
  -2699949.58646  -2070159.43645  23420158.0494   23420163.6504
      1267.5474        987.6994
   2889081.63545   2229886.24845  24019531.1354   24019537.3464
     -2396.5784      -1867.4634
   -254825.78147   -191260.86546  21372462.3774   21372465.7644
      -403.1564       -314.1484
   2432050.58646   1890373.12345  22880483.3304   22880487.4324
     -2230.5944      -1738.1254
 98  7  8 20 45 15.0020000  0  7G 3G 6G17G21G22G23G26
  -2794657.78045  -2027171.51644  24494692.1274   24494698.4794
      2101.5474       1637.5694
   5421790.22146   4196215.42446  22184930.8934   22184935.4284
     -3894.6874      -3034.8214
   1781390.60947   1381381.14047  21240255.8304   21240259.6744
     -1491.5164      -1162.2204
  -2718901.86946  -2084927.39645  23416551.3544   23416557.0254
      1259.4224        981.3684
   2925119.20845   2257967.46945  24026389.1504   24026395.2794
     -2408.3754      -1876.6564
   -248693.46947   -186482.42746  21373629.3854   21373632.6894
      -414.5004       -322.9874
   2465617.83546   1916529.41045  22886870.7834   22886875.5534
     -2245.0164      -1749.3634
 98  7  8 20 45 30.0020000  0  7G 3G 6G17G21G22G23G26
  -2826134.03445  -2051698.39943  24488702.3074   24488708.5534
      2095.2194       1632.6384
   5480291.39046   4241800.71946  22196063.2684   22196067.7564
     -3905.4534      -3043.2104
   1803826.51747   1398863.67547  21244525.3934   21244529.2714
     -1499.9374      -1168.7824
  -2737734.34346  -2099601.99945  23412967.9084   23412973.7094
      1251.5784        975.2564
   2961328.97245   2286182.84045  24033279.3544   24033285.2604
     -2419.5314      -1885.3494
   -242395.04447   -181574.54346  21374827.7684   21374831.0494
      -425.2194       -331.3394
   2499398.62646   1942852.09745  22893299.3694   22893303.7174
     -2259.0474      -1760.2964
 98  7  8 20 45 45.0020000  0  7G 3G 6G17G21G22G23G26
  -2857507.12145  -2076144.92143  24482731.9084   24482738.6934
      2088.1884       1627.1594
   5538959.35846   4287515.98246  22207227.2914   22207231.7564
     -3916.5474      -3051.8554
   1826394.48147   1416449.11547  21248819.6664   21248823.4984
     -1508.7664      -1175.6624
  -2756442.66246  -2114179.85645  23409407.7754   23409413.7054
      1243.1884        968.7184
   2997709.83845   2314531.52645  24040202.4394   24040208.1234
     -2430.8444      -1894.1644
   -235931.69547   -176538.14946  21376057.7914   21376061.0964
      -436.2344       -339.9234
   2533394.18146   1969342.14845  22899768.5414   22899772.2324
     -2273.3754      -1771.4614
 98  7  8 20 46  0.0020000  0  7G 3G 6G17G21G22G23G26
  -2888771.76545  -2100506.91443  24476783.0574   24476789.1274
      2080.4064       1621.0964
   5597793.69946   4333360.88746  22218423.1824   22218427.5184
     -3928.0004      -3060.7794
   1849095.60447   1434138.31047  21253139.4794   21253143.4164
     -1518.0474      -1182.8944
  -2775022.58446  -2128657.66245  23405871.8614   23405877.5334
      1234.0944        961.6314
   3034260.68445   2343012.69445  24047157.8144   24047163.6394
     -2442.6254      -1903.3444
   -229300.18647   -171370.72346  21377319.6194   21377323.0764
      -447.9844       -349.0794
   2567605.26946   1996000.13245  22906278.5574   22906282.1544
     -2288.0624      -1782.9064
 98  7  8 20 46 15.0020000  0  7G 3G 6G17G21G22G23G26
  -2919921.45645  -2124779.36243  24470855.2994   24470860.2214
      2072.9064       1615.2524
   5656794.26446   4379335.31846  22229650.6744   22229655.0684
     -3938.6874      -3069.1074
   1871932.43247   1451933.25047  21257485.1974   21257489.1464
     -1526.8914      -1189.7854
  -2793467.78346  -2143030.48545  23402362.1664   23402367.6394
      1225.2974        954.7774
   3070983.91345   2371628.16745  24054146.0964   24054151.9554
     -2453.7974      -1912.0504
   -222496.07847   -166068.80246  21378614.4084   21378617.8894
      -459.2194       -357.8334
   2602031.86446   2022826.05545  22912829.6824   22912833.6664
     -2302.0624      -1793.8154
 98  7  8 20 46 30.0020000  0  7G 3G 6G17G21G22G23G26
  -2950958.79345  -2148964.25444  24464949.0724   24464955.6464
      2065.4844       1609.4684
   5715954.04946   4425433.82046  22240908.2754   22240912.7054
     -3949.1874      -3077.2894
   1894902.70347   1469832.16947  21261856.3614   21261860.2874
     -1535.6564      -1196.6154
  -2811780.27446  -2157299.89945  23398877.2444   23398882.8814
      1216.4224        947.8614
   3107874.28945   2400373.90145  24061166.2214   24061171.6464
     -2464.7974      -1920.6214
   -215523.80647   -160635.84946  21379941.1824   21379944.6744
      -470.2974       -366.4654
   2636668.75646   2049815.83145  22919420.7754   22919425.2054
     -2316.0784      -1804.7364
 98  7  8 20 46 45.0020000  0  7G 3G 6G17G21G22G23G26
  -2981881.96345  -2173060.16043  24459064.1664   24459070.1314
      2057.5784       1603.3084
   5775273.83246   4471656.98546  22252196.6664   22252200.9324
     -3960.1724      -3085.8484
   1918004.49647   1487833.57547  21266252.5184   21266256.5254
     -1544.6254      -1203.6044
  -2829956.06346  -2171462.79845  23395418.7134   23395424.1864
      1206.9384        940.4714
   3144930.53145   2429248.87945  24068218.0494   24068224.2014
     -2476.1414      -1929.4604
   -208383.97847   -155072.33246  21381300.0334   21381303.4794
      -481.7344       -375.3774
   2671519.13746   2076971.97045  22926052.9474   22926057.2484
     -2330.7034      -1816.1324
 98  7  8 20 47  0.0020000  0  7G 3G 6G17G21G22G23G26
  -3012686.73345  -2197063.83243  24453202.3144   24453207.3184
      2049.8444       1597.2814
   5834757.99646   4518008.24946  22263516.3384   22263520.7444
     -3970.9374      -3094.2374
   1941240.72547   1505939.74147  21270674.2914   21270678.1114
     -1553.4374      -1210.4714
  -2847986.82746  -2185512.69345  23391986.8464   23391992.8574
      1197.1564        932.8494
   3182158.64745   2458257.80945  24075301.7444   24075308.2604
     -2487.5944      -1938.3854
   -201072.66347   -149375.18547  21382691.1274   21382694.7834
      -493.0164       -384.1684
   2706588.36946   2104298.63545  22932726.4244   22932730.8304
     -2345.1094      -1827.3584
 98  7  8 20 47 15.0020000  0  7G 3G 6G17G21G22G23G26
  -3043374.54345  -2220976.33543  24447362.7684   24447368.7444
      2041.9064       1591.0964
   5894403.85946   4564485.50746  22274866.4004   22274870.8424
     -3981.7814      -3102.6874
   1964610.28647   1524149.79647  21275121.3854   21275125.2754
     -1562.4694      -1217.5084
  -2865867.39446  -2199445.55245  23388584.7134   23388590.6194
      1186.9844        924.9234
   3219561.06845   2487402.50845  24082419.5104   24082425.3934
     -2499.3124      -1947.5164
   -193590.39947   -143544.83146  21384115.0414   21384118.6624
      -504.5314       -393.1414
   2741874.62346   2131794.42045  22939441.0414   22939445.3424
     -2359.5784      -1838.6324
 98  7  8 20 47 30.0020000  0  7G 3G 6G17G21G22G23G26
  -3073945.61645  -2244797.89243  24441545.3694   24441550.6434
      2034.1094       1585.0204
   5954210.06946   4611087.71246  22286247.2604   22286251.8424
     -3992.5784      -3111.1004
   1988112.45447   1542463.18247  21279593.8544   21279597.5334
     -1571.3124      -1224.3994
  -2883599.59146  -2213262.79545  23385210.1114   23385216.0644
      1177.1564        917.2654
   3257134.18045   2516680.21945  24089569.5334   24089575.3464
     -2510.5944      -1956.3074
   -185938.58347   -137582.35646  21385571.0724   21385574.6354
      -515.8914       -401.9934
   2777373.63646   2159455.98145  22946196.3614   22946200.6504
     -2373.7344      -1849.6634
 98  7  8 20 47 45.0020000  0  7G 3G 6G17G21G22G23G26
  -3104404.52345  -2268532.06044  24435749.0414   24435754.3964
      2026.8754       1579.3834
   6014173.74346   4657812.61446  22297658.1044   22297662.5804
     -4002.7504      -3119.0264
   2011742.98847   1560876.59147  21284090.5024   21284094.2404
     -1579.5624      -1230.8284
  -2901189.69446  -2226969.31445  23381862.8934   23381868.8694
      1168.0164        910.1424
   3294873.29745   2546087.31945  24096750.7444   24096756.8854
     -2521.4694      -1964.7814
   -178120.85047   -131490.60646  21387059.0024   21387062.5064
      -526.7034       -410.4184
   2813079.73946   2187278.90745  22952991.0184   22952994.9434
     -2387.2344      -1860.1834
 98  7  8 20 48  0.0020000  0  7G 3G 6G17G21G22G23G26
  -3134751.45245  -2292178.93843  24429973.8854   24429979.5574
      2019.3134       1573.4904
   6074293.83446   4704659.39646  22309098.5334   22309103.0214
     -4013.3444      -3127.2814
   2035499.09547   1579387.84947  21288611.0104   21288614.8894
     -1587.9694      -1237.3784
  -2918640.70146  -2240567.45345  23378542.1744   23378548.0214
      1158.7344        902.9104
   3332780.29945   2575625.21545  24103964.7524   24103970.5414
     -2532.9374      -1973.7184
   -170134.71447   -125267.62546  21388578.4004   21388581.7754
      -538.2664       -419.4284
   2848992.08846   2215262.54845  22959824.7754   22959828.4434
     -2401.1724      -1871.0434
 98  7  8 20 48 15.0020000  0  7G 3G 6G17G21G22G23G26
  -3164989.00845  -2315740.60144  24424219.7604   24424225.7134
      2012.1414       1567.9024
   6134569.78346   4751627.63246  22320568.7444   22320573.1744
     -4023.7504      -3135.3904
   2059376.10447   1597993.31647  21293154.6824   21293158.5494
     -1595.8914      -1243.5514
  -2935958.25246  -2254061.60745  23375246.7134   23375252.8544
      1150.0474        896.1404
   3370858.07645   2605296.18645  24111210.5414   24111216.3424
     -2544.4064      -1982.6544
   -161977.15447   -118911.06646  21390130.7994   21390134.3384
      -549.6254       -428.2794
   2885110.74946   2243406.95545  22966697.7364   22966702.1194
     -2414.9534      -1881.7824
 98  7  8 20 48 30.0020000  0  7G 3G 6G17G21G22G23G26
  -3195115.09145  -2339215.37544  24418487.3304   24418493.7524
      2004.6564       1562.0704
   6195007.00246   4798721.52946  22332069.4794   22332074.0374
     -4034.6564      -3143.8884
   2083375.54747   1616694.18747  21297721.7294   21297725.5024
     -1604.0624      -1249.9194
  -2953143.48546  -2267452.62845  23371976.3774   23371982.0614
      1141.2974        889.3224
   3409112.00445   2635104.41845  24118490.3304   24118496.4824
     -2556.2194      -1991.8594
   -153646.46447   -112419.60646  21391716.0024   21391719.3774
      -561.1724       -437.2774
   2921441.21946   2271716.40045  22973611.1894   22973615.7364
     -2429.1724      -1892.8614
 98  7  8 20 48 45.0020000  0  7G 3G 6G17G21G22G23G26
  -3225131.26945  -2362604.59843  24412775.4004   24412781.1434
      1997.2194       1556.2744
   6255607.95046   4845943.00946  22343601.3304   22343605.7484
     -4045.7194      -3152.5084
   2107494.77647   1635488.39847  21302311.3224   21302315.1314
     -1612.0624      -1256.1534
  -2970200.40846  -2280743.71745  23368730.5024   23368736.0804
      1132.7194        882.6384
   3447540.82745   2665048.92745  24125802.9324   24125808.5104
     -2567.8594      -2000.9294
   -145144.94747   -105795.03046  21393333.8464   21393337.4674
      -572.6254       -446.2014
   2957983.28146   2300190.72645  22980565.0414   22980569.0844
     -2443.3594      -1903.9164
 98  7  8 20 49  0.0020000  0  7G 3G 6G17G21G22G23G26
  -3255029.43545  -2385901.77743  24407085.8544   24407091.5724
      1989.3444       1550.1384
   6316381.94246   4893299.32746  22355166.7754   22355171.0414
     -4057.2974      -3161.5304
   2131741.12247   1654381.65547  21306925.3224   21306929.0724
     -1620.6414      -1262.8374
  -2987121.68746  -2293929.05345  23365510.4794   23365516.4204
      1123.6564        875.5764
   3486151.53045   2695135.16345  24133150.2524   24133156.1234
     -2580.0944      -2010.4634
   -136463.20447    -99030.02446  21394985.7834   21394989.2294
      -584.7974       -455.6864
   2994744.41346   2328835.75845  22987560.3694   22987564.4364
     -2457.9694      -1915.3004
 98  7  8 20 49 15.0020000  0  7G 3G 6G17G21G22G23G26
  -3284816.98545  -2409112.79843  24401417.2294   24401422.5614
      1981.8134       1544.2694
   6377321.77846   4940784.87746  22366762.8304   22366767.5414
     -4068.5474      -3170.2964
   2156109.37047   1673369.90647  21311562.4864   21311566.2134
     -1629.0164      -1269.3634
  -3003915.15446  -2307014.82745  23362314.4004   23362320.0024
      1115.0164        868.8434
   3524937.32045   2725357.83545  24140531.0024   24140537.1664
     -2591.8284      -2019.6064
   -127606.15847    -92128.41746  21396671.4244   21396674.6934
      -596.6564       -464.9274
   3031716.57146   2357645.22545  22994595.9864   22994600.1004
     -2472.1724      -1926.3684
 98  7  8 20 49 30.0020000  0  7G 3G 6G17G21G22G23G26
  -3314495.03045  -2432238.49544  24395769.2684   24395775.7364
      1974.8444       1538.8394
   6438427.34346   4988399.56146  22378391.1974   22378395.8384
     -4079.2814      -3178.6614
   2180600.40747   1692453.83247  21316222.8774   21316226.3464
     -1636.8754      -1275.4874
  -3020585.63346  -2320004.77545  23359142.2754   23359148.0764
      1107.2814        862.8174
   3563894.42445   2755713.99445  24147943.9394   24147949.9754
     -2602.8754      -2028.2144
   -118575.52147    -85091.54446  21398389.7994   21398393.1864
      -607.8124       -473.6204
   3068897.94446   2386617.73445  23001671.4324   23001675.8854
     -2485.7664      -1936.9604
 98  7  8 20 49 45.0020000  0  7G 3G 6G17G21G22G23G26
  -3344051.92445  -2455269.76943  24390145.0574   24390150.6114
      1966.3754       1532.2404
   6499709.93346   5036152.19246  22390053.0414   22390057.1664
     -4091.4064      -3188.1094
   2205225.41747   1711642.15447  21320909.0104   21320912.6664
     -1646.1564      -1282.7194
  -3037123.62746  -2332891.47845  23355995.1274   23356000.9394
      1098.0164        855.5974
   3603035.25345   2786213.31845  24155392.2364   24155398.7644
     -2615.6724      -2038.1864
   -109362.76247    -77912.75746  21400143.1114   21400146.4754
      -620.2194       -483.2874
   3106301.11646   2415763.04845  23008788.6894   23008793.6704
     -2500.9844      -1948.8194
 98  7  8 20 50  0.0020000  0  7G 3G 6G17G21G22G23G26
  -3373491.58045  -2478209.70644  24384543.1354   24384549.2174
      1959.0944       1526.5674
   6561163.03346   5084037.69046  22401747.1434   22401751.4674
     -4102.1254      -3196.4614
   2229978.71947   1730930.44847  21325619.3464   21325622.8964
     -1654.0624      -1288.8804
  -3053531.46246  -2345676.76545  23352873.2214   23352878.8694
      1089.8914        849.2654
   3642358.84245   2816855.04145  24162875.3464   24162880.8654
     -2627.2344      -2047.1964
    -99976.27647    -70598.59946  21401929.2134   21401932.7294
      -631.1254       -491.7864
   3143923.14446   2445078.90245  23015948.2834   23015953.2054
     -2515.0624      -1959.7894
 98  7  8 20 50 15.0020000  0  7G 3G 6G17G21G22G23G26
  -3402816.94445  -2501060.56743  24378962.8774   24378968.2564
      1951.0004       1520.2604
   6622782.22046   5132052.59346  22413472.5804   22413476.9284
     -4113.7034      -3205.4834
   2254855.63547   1750315.06047  21330353.2604   21330356.9164
     -1662.8594      -1295.7354
  -3069811.66646  -2358362.58645  23349775.2214   23349781.0924
      1080.8134        842.1924
   3681859.94245   2847635.08645  24170392.4164   24170398.1354
     -2639.4844      -2056.7414
    -90421.08147    -63152.98546  21403747.3934   21403751.0724
      -642.7664       -500.8564
   3181761.35846   2474563.21245  23023148.4554   23023153.3894
     -2530.0784      -1971.4894
 98  7  8 20 50 30.0020000  0  7G 3G 6G17G21G22G23G26
  -3432026.11045  -2523820.87944  24373404.1044   24373409.6704
      1943.5314       1514.4404
   6684570.10346   5180198.96146  22425230.4794   22425234.7684
     -4124.6724      -3214.0304
   2279861.53847   1769800.18147  21335111.8774   21335115.6394
     -1671.3284      -1302.3344
  -3085959.88446  -2370945.58645  23346701.9244   23346707.4904
      1072.2034        835.4834
   3721538.14845   2878553.12645  24177942.9864   24177949.0804
     -2650.9224      -2065.6534
    -80699.97047    -55578.07546  21405597.0964   21405600.6354
      -653.3444       -509.0994
   3219820.53446   2504219.70645  23030391.1434   23030395.5494
     -2544.5474      -1982.7644
 98  7  8 20 50 45.0020000  0  7G 3G 6G17G21G22G23G26
  -3461125.01145  -2546495.28943  24367866.5254   24367871.1664
      1936.3594       1508.8514
   6746518.78046   5228470.61046  22437019.2054   22437023.5764
     -4135.0944      -3222.1514
   2304993.68347   1789383.67447  21339894.2054   21339897.8504
     -1679.5314      -1308.7264
  -3101979.47946  -2383428.34945  23343653.6894   23343659.7014
      1063.7344        828.8844
   3761384.03145   2909601.83545  24185525.1274   24185531.0454
     -2661.8124      -2074.1404
    -70823.78547    -47882.33746  21407476.5254   21407480.2054
      -663.4694       -516.9894
   3258093.70246   2534042.95845  23037674.3614   23037678.2174
     -2558.5004      -1993.6364
 98  7  8 20 51  0.0020000  0  7G 3G 6G17G21G22G23G26
  -3490109.82445  -2569080.80244  24362350.7914   24362355.9594
      1928.0944       1502.4114
   6808629.91246   5276868.86046  22448838.6664   22448843.6004
     -4146.5004      -3231.0394
   2330255.10947   1809067.90747  21344701.3614   21344704.8544
     -1688.8124      -1315.9584
  -3117862.80846  -2395804.92045  23340631.3074   23340637.2254
      1053.8594        821.1894
   3801399.18045   2940782.43545  24193139.9864   24193145.4364
     -2673.7194      -2083.4174
    -60787.02847    -40061.47946  21409386.6664   21409390.1464
      -674.9224       -525.9134
   3296585.23646   2564036.36645  23044998.8224   23045003.2294
     -2573.7814      -2005.5444
 98  7  8 20 51 15.0020000  0  7G 3G 6G17G21G22G23G26
  -3518966.59845  -2591566.53143  24356860.1274   24356865.7874
      1919.5474       1495.7514
   6870914.77346   5325402.47146  22460690.6894   22460695.2714
     -4158.0944      -3240.0734
   2355659.13447   1828863.25347  21349535.5884   21349539.0334
     -1698.2974      -1323.3484
  -3133595.34646  -2408064.02245  23337637.3774   23337643.0254
      1043.9384        813.4584
   3841597.30845   2972105.63045  24200789.4324   24200794.8344
     -2685.9694      -2092.9634
    -50575.49247    -32104.42246  21411329.7054   21411333.2094
      -686.4534       -534.8994
   3335307.85046   2594209.81245  23052367.4864   23052372.1274
     -2589.1254      -2017.5004
 98  7  8 20 51 30.0020000  0  7G 3G 6G17G21G22G23G26
  -3547703.12645  -2613958.57644  24351391.3774   24351396.6394
      1911.7504       1489.6754
   6933366.92946   5374066.45146  22472575.4084   22472579.9554
     -4169.0944      -3248.6444
   2381197.21047   1848763.05447  21354395.3614   21354398.9244
     -1706.9694      -1330.1064
  -3149188.19646  -2420214.24345  23334670.1744   23334675.9514
      1034.9224        806.4334
   3881970.65245   3003565.36745  24208472.1114   24208477.9944
     -2697.4064      -2101.8754
    -40201.03347    -24020.41646  21413303.7604   21413307.3934
      -697.0164       -543.1294
   3374251.48946   2624555.49245  23059778.3384   23059782.9324
     -2603.5624      -2028.7504
 98  7  8 20 51 45.0020000  0  7G 3G 6G17G21G22G23G26
  -3576325.05245  -2636261.31044  24345944.7754   24345950.5644
      1903.9844       1483.6244
   6995978.60046   5422854.72246  22484489.4794   22484493.9324
     -4179.6254      -3256.8514
   2406858.54347   1868758.90747  21359278.3464   21359282.0024
     -1714.9844      -1336.3514
  -3164651.81646  -2432263.78445  23331727.3694   23331732.6314
      1026.3594        799.7614
   3922511.22845   3035155.38245  24216186.5724   24216193.3114
     -2708.5314      -2110.5444
    -29672.37147    -15816.25246  21415307.5804   21415311.1784
      -707.3754       -551.2014
   3413408.54446   2655067.47945  23067229.7524   23067233.9124
     -2617.8754      -2039.9034
 98  7  8 20 52  0.0020000  0  7G 3G 6G17G21G22G23G26
  -3604827.78945  -2658471.17444  24340520.7054   24340526.5294
      1896.2504       1477.5974
   7058750.80346   5471768.08546  22496434.7754   22496439.2994
     -4190.1724      -3265.0694
   2432641.80947   1888849.75947  21364184.7524   21364188.5494
     -1722.9694      -1342.5734
  -3179984.40546  -2444211.22645  23328810.0024   23328815.6974
      1017.8284        793.1134
   3963220.51245   3066876.85645  24223933.7604   24223939.4674
     -2719.5004      -2119.0914
    -18983.79247     -7487.48046  21417341.4004   21417344.9984
      -717.9694       -559.4564
   3452782.61246   2685748.56445  23074722.6274   23074726.6004
     -2632.1094      -2050.9944
 98  7  8 20 52 15.0020000  0  7G 3G 6G17G21G22G23G26
  -3633221.23145  -2680595.87443  24335117.3934   24335123.8264
      1889.1564       1472.0704
   7121677.51446   5520801.84346  22508409.4244   22508414.3344
     -4200.5004      -3273.1174
   2458541.41747   1909031.27547  21369113.6664   21369117.3344
     -1730.7664      -1348.6494
  -3195195.04046  -2456063.61845  23325915.0724   23325920.6044
      1009.8444        786.8914
   4004088.16145   3098721.77145  24231710.4324   24231716.8774
     -2729.9534      -2127.2364
     -8139.26647       962.81246  21419405.0414   21419408.5334
      -728.4224       -567.6014
   3492365.31446   2716592.23345  23082255.1114   23082259.1434
     -2645.9534      -2061.7824
 98  7  8 20 52 30.0020000  0  7G 3G 6G17G21G22G23G26
  -3661503.69345  -2702634.07243  24329735.7524   24329741.6354
      1881.8914       1466.4084
   7184766.30346   5569961.88746  22520414.9554   22520419.7484
     -4211.2974      -3281.5304
   2484565.14547   1929309.51047  21374065.3074   21374068.9514
     -1739.0314      -1355.0894
  -3210279.88346  -2467818.01745  23323044.5104   23323050.3464
      1001.5314        780.4144
   4045119.28145   3130694.01145  24239518.9084   24239524.9204
     -2740.8284      -2135.7104
      2869.02747      9540.71246  21421499.8144   21421503.2714
      -739.2344       -576.0274
   3532161.36746   2747602.13845  23089827.3854   23089830.9944
     -2660.1094      -2072.8124
 98  7  8 20 52 45.0020000  0  7G 3G 6G17G21G22G23G26
  -3689672.14545  -2724583.47444  24324375.5644   24324380.9674
      1874.3914       1460.5644
   7248022.12146   5619252.09646  22532452.1114   22532457.0804
     -4222.2664      -3290.0774
   2510717.73147   1949688.15247  21379042.1354   21379045.7444
     -1747.4534      -1361.6524
  -3225234.16946  -2479470.65745  23320198.4324   23320204.0924
       992.8754        773.6694
   4086319.61745   3162798.15545  24247358.8934   24247365.3504
     -2752.0624      -2144.4644
     14045.66747     18249.79946  21423626.7364   21423629.9364
      -750.5474       -584.8424
   3572173.23646   2778780.21045  23097441.6434   23097445.8964
     -2674.2664      -2083.8434
 98  7  8 20 53  0.0020000  0  7G 3G 6G17G21G22G23G26
  -3717732.34545  -2746448.48044  24319035.5254   24319041.6434
      1866.6884       1454.5624
   7311437.24346   5668666.44046  22544519.6664   22544524.2834
     -4233.3754      -3298.7344
   2536990.81447   1970160.69147  21384041.8384   21384045.5064
     -1755.8914      -1368.2264
  -3240063.20646  -2491025.71845  23317376.8074   23317382.4674
       984.0634        766.8024
   4127683.14045   3195029.43845  24255230.0494   24255236.1894
     -2763.3594      -2153.2674
     25390.66447     27090.06746  21425785.7294   21425789.1274
      -762.4224       -594.0954
   3612392.12046   2810119.59545  23105095.2294   23105099.7644
     -2688.5314      -2094.9594
 98  7  8 20 53 15.0020000  0  7G 3G 6G17G21G22G23G26
  -3745684.49445  -2768229.33944  24313716.7524   24313722.9164
      1860.1414       1449.4604
   7375013.70846   5718206.49546  22556617.9864   22556622.8034
     -4243.6564      -3306.7454
   2563383.98347   1990726.79647  21389064.3144   21389068.0414
     -1763.4064      -1374.0834
  -3254767.67446  -2502483.70345  23314578.7524   23314584.6934
       976.4064        760.8364
   4169209.54845   3227387.64245  24263132.0884   24263138.0534
     -2773.7034      -2161.3274
     36907.36647     36064.13646  21427977.2914   21427980.8304
      -773.2194       -602.5084
   3652817.13546   2841619.61445  23112787.9244   23112792.9044
     -2701.5624      -2105.1144
 98  7  8 20 53 30.0020000  0  7G 3G 6G17G21G22G23G26
  -3773534.88745  -2789930.87344  24308417.1044   24308423.2564
      1853.4694       1444.2614
   7438749.30746   5767870.54646  22568746.5574   22568751.3734
     -4254.2034      -3314.9634
   2589895.72947   2011385.30847  21394109.2134   21394112.9514
     -1771.2814      -1380.2194
  -3269354.34446  -2513849.90445  23311803.0574   23311808.5184
       968.6414        754.7854
   4210896.84045   3259871.21245  24271064.4634   24271070.2874
     -2784.3594      -2169.6314
     48589.22747     45166.89846  21430200.0574   21430203.4674
      -784.1564       -611.0314
   3693441.56846   2873275.00745  23120518.5334   23120523.4434
     -2714.8284      -2115.4504
 98  7  8 20 53 45.0020000  0  7G 3G 6G17G21G22G23G26
  -3801285.31045  -2811554.51344  24303135.5334   24303140.5024
      1847.3134       1439.4644
   7502641.36446   5817656.51846  22580904.8854   22580910.0764
     -4263.9064      -3322.5244
   2616526.66847   2032136.69147  21399176.8544   21399180.5924
     -1778.7194      -1386.0154
  -3283822.03646  -2525123.39245  23309049.7684   23309055.4984
       961.1724        748.9654
   4252743.58845   3292479.04645  24279027.8304   24279034.0294
     -2794.4064      -2177.4594
     60436.93347     54398.89246  21432454.5574   21432457.9204
      -794.7664       -619.2984
   3734265.10446   2905085.55545  23128286.6044   23128290.9394
     -2727.5784      -2125.3864
 98  7  8 20 54  0.0020000  0  7G 3G 6G17G21G22G23G26
  -3828953.60945  -2833114.16745  24297870.5334   24297875.9244
      1840.7814       1434.3754
   7566665.37546   5867545.31346  22593088.2054   22593093.2794
     -4273.6874      -3330.1464
   2643257.80247   2052966.15147  21404263.7754   21404267.5724
     -1786.5314      -1392.1024
  -3298188.27246  -2536317.81545  23306316.1504   23306321.7994
       953.2344        742.7804
   4294729.34745   3325195.20045  24287018.3934   24287024.7564
     -2804.7344      -2185.5074
     72432.69147     63746.24746  21434737.0644   21434740.5804
      -805.7034       -627.8214
   3775268.46346   2937036.22745  23136089.5414   23136093.5144
     -2740.5624      -2135.5034
 98  7  8 20 54 15.0020000  0  7G 3G 6G17G21G22G23G26
  -3856486.05845  -2854567.94244  24292631.3614   24292636.0964
      1829.8134       1425.8284
   7630876.05346   5917579.56046  22605307.4164   22605312.3854
     -4288.1254      -3341.3964
   2670148.17147   2073919.68647  21409381.0104   21409384.9364
     -1799.2814      -1402.0374
  -3312394.71346  -2547387.73545  23303612.4164   23303617.6894
       940.5784        732.9184
   4336910.69845   3358063.73945  24295044.9864   24295051.5844
     -2819.8124      -2197.2564
     84630.40047     73250.97446  21437058.6194   21437061.8774
      -821.0164       -639.7524
   3816504.38846   2969168.12045  23143936.7994   23143940.7834
     -2757.9534      -2149.0544
 98  7  8 20 54 30.0020000  0  7G 3G 6G17G21G22G23G26
  -3883873.24545  -2875908.57044  24287420.4864   24287425.5374
      1823.7194       1421.0804
   7695281.87346   5967765.85846  22617563.2364   22617567.9474
     -4297.3124      -3348.5554
   2697208.60747   2095005.74347  21414530.1744   21414534.0764
     -1806.7344      -1407.8454
  -3326431.26046  -2558325.26845  23300941.3854   23300946.9864
       932.8914        726.9284
   4379296.20645   3391091.37345  24303110.7054   24303116.7994
     -2829.6254      -2204.9034
     97034.97847     82916.88046  21439418.9164   21439422.1624
      -830.8914       -647.4474
   3857979.80946   3001486.62645  23151829.0414   23151833.1314
     -2770.0474      -2158.4784
 98  7  8 20 54 45.0020000  0  7G 3G 6G17G21G22G23G26
  -3911198.28145  -2897200.74345  24282219.9394   24282225.0144
      1819.4384       1417.7444
   7759792.92646   6018034.15546  22629839.3074   22629843.7134
     -4304.2344      -3353.9494
   2724346.93147   2116152.48947  21419694.5644   21419698.1974
     -1811.8124      -1411.8024
  -3340383.69246  -2569197.24645  23298286.7294   23298291.9554
       927.3134        722.5814
   4421795.60745   3424207.75045  24311198.0644   24311204.3694
     -2837.0784      -2210.7104
    109554.09947     92672.05046  21441801.2754   21441804.3814
      -838.4694       -653.3524
   3899603.71246   3033920.83445  23159749.6744   23159754.5024
     -2779.9224      -2166.1734
 98  7  8 20 55  0.0020000  0  7G 3G 6G17G21G22G23G26
  -3938445.80545  -2918432.52644  24277035.3074   24277040.6044
      1813.5784       1413.1784
   7824417.94946   6068391.27946  22642137.2134   22642141.8074
     -4312.3914      -3360.3044
   2751573.13547   2137367.71847  21424875.5104   21424879.2364
     -1818.3124      -1416.8674
  -3354240.13946  -2579994.44845  23295649.6274   23295654.9364
       920.3284        717.1394
   4464417.66245   3457419.69845  24319308.8934   24319315.3034
     -2845.7974      -2217.5044
    122199.71647    102525.79046  21444207.8934   21444210.9864
      -847.5474       -660.4264
   3941386.96446   3066479.19945  23167700.7134   23167705.6584
     -2791.1414      -2174.9154
 98  7  8 20 55 15.0020000  0  7G 3G 6G17G21G22G23G26
  -3965595.76945  -2939588.30845  24271869.0494   24271874.5804
      1806.1884       1407.4194
   7889174.41546   6118850.80946  22654459.8854   22654464.8774
     -4322.0624      -3367.8414
   2778905.83447   2158665.92647  21430076.7834   21430080.4634
     -1826.2664      -1423.0644
  -3367985.20346  -2590704.83645  23293034.1824   23293039.5614
       912.1414        710.7594
   4507179.49945   3490740.57845  24327445.7524   24327452.4084
     -2856.0624      -2225.5034
    134988.19047    112490.84846  21446641.2684   21446644.3384
      -857.7974       -668.4134
   3983347.20546   3099175.48445  23175685.8074   23175690.2134
     -2803.8124      -2184.7894
 98  7  8 20 55 30.0020000  0  7G 3G 6G17G21G22G23G26
  -3992630.76345  -2960654.45645  24266723.9714   24266728.8224
      1798.6414       1401.5384
   7954079.53746   6169426.17946  22666811.1894   22666815.7954
     -4331.6874      -3375.3414
   2806362.12747   2180060.44347  21435301.6974   21435305.3774
     -1834.3594      -1429.3714
  -3381604.28346  -2601317.06545  23290442.3774   23290447.5214
       903.9384        704.3674
   4550100.64145   3524185.57845  24335613.8224   24335619.3424
     -2866.5314      -2233.6614
    147933.44047    122578.06346  21449104.6194   21449107.4794
      -868.0314       -676.3884
   4025502.13446   3132023.49845  23183707.5884   23183711.2444
     -2816.6724      -2194.8094
 98  7  8 20 55 45.0020000  0  7G 3G 6G17G21G22G23G26
  -4019543.58545  -2981625.41944  24261602.8614   24261608.7684
      1790.0944       1394.8784
   8019133.26746   6220117.35746  22679190.4794   22679194.5804
     -4341.7344      -3383.1704
   2833944.97547   2201553.57747  21440550.4714   21440554.0454
     -1842.8754      -1436.0064
  -3395093.29346  -2611827.94145  23287875.6194   23287880.7174
       894.9534        697.3664
   4593184.53845   3557757.39645  24343812.3384   24343818.7954
     -2877.5314      -2242.2324
    161039.09547    132790.27646  21451598.7214   21451601.6624
      -878.9844       -684.9234
   4067857.80446   3165027.92245  23191767.3694   23191770.8034
     -2830.3284      -2205.4504
 98  7  8 20 56  0.0020000  0  7G 3G 6G17G21G22G23G26
  -4046321.10545  -3002490.95045  24256507.0644   24256512.8894
      1780.7344       1387.5854
   8084344.04646   6270930.89846  22691599.6664   22691604.0844
     -4352.6414      -3391.6684
   2861660.48647   2223150.08647  21445824.7294   21445828.1394
     -1852.0624      -1443.1664
  -3408441.47346  -2622229.07046  23285335.3464   23285340.4904
       885.3134        689.8544
   4636438.25345   3591461.52844  24352043.3144   24352049.1394
     -2889.2034      -2251.3274
    174314.36447    143134.65246  21454124.8304   21454127.7254
      -890.5474       -693.9334
   4110425.24446   3198197.36345  23199867.6974   23199872.1504
     -2844.8124      -2216.7374
 98  7  8 20 56 15.0020000  0  7G 3G 6G17G21G22G23G26
  -4072965.02145  -3023252.42144  24251436.8074   24251442.0684
      1772.0164       1380.7914
   8149714.80446   6321869.10446  22704039.2604   22704043.7604
     -4363.2664      -3399.9474
   2889508.30847   2244849.68947  21451123.7754   21451127.3614
     -1860.8124      -1449.9844
  -3421649.71846  -2632521.16045  23282822.0104   23282827.2604
       875.9844        682.5854
   4679863.35045   3625299.24445  24360307.1584   24360312.5614
     -2900.6254      -2260.2274
    187757.58747    153609.90446  21456682.9324   21456685.8264
      -901.7034       -702.6264
   4153205.25546   3231532.41945  23208008.3694   23208013.1744
     -2858.9534      -2227.7564
 98  7  8 20 56 30.0020000  0  7G 3G 6G17G21G22G23G26
  -4099497.51945  -3043927.05645  24246387.3934   24246392.2684
      1765.6724       1375.8484
   8215227.49046   6372917.90546  22716505.9004   22716510.6704
     -4371.7194      -3406.5344
   2917468.74347   2266637.04647  21456444.2914   21456447.7364
     -1867.2344      -1454.9884
  -3434736.52546  -2642718.63146  23280331.4794   23280336.4944
       868.9384        677.0944
   4723440.20745   3659255.18145  24368599.0574   24368604.6004
     -2909.5944      -2267.2164
    201349.46847    164200.99246  21459269.5104   21459272.5334
      -910.5624       -709.5294
   4196178.28946   3265017.90245  23216186.3144   23216190.5804
     -2870.7664      -2236.9604
 98  7  8 20 56 45.0020000  0  7G 3G 6G17G21G22G23G26
  -4125921.17145  -3064516.82244  24241359.5494   24241365.9364
      1757.4064       1369.4074
   8280880.42546   6424075.98346  22728999.3384   22729003.7914
     -4382.1094      -3414.6314
   2945539.26747   2288510.18547  21461786.2054   21461789.7094
     -1875.6094      -1461.5144
  -3447703.47346  -2652822.70246  23277863.7994   23277869.4124
       859.8754        670.0324
   4767165.88145   3693327.10345  24376919.6894   24376924.6934
     -2920.6564      -2275.8364
    215089.58047    174907.58146  21461884.0804   21461886.9284
      -921.6564       -718.1744
   4239343.23846   3298652.92145  23224400.1354   23224403.7914
     -2884.6874      -2247.8084
 98  7  8 20 57  0.0020000  0  7G 3G 6G17G21G22G23G26
  -4152219.35845  -3085008.84745  24236354.9394   24236360.8344
      1749.3134       1363.1014
   8346691.97546   6475357.66746  22741522.8304   22741527.2254
     -4392.4374      -3422.6794
   2973739.35047   2310484.27847  21467152.3854   21467155.8304
     -1884.1414      -1468.1624
  -3460531.21146  -2662818.28846  23275423.1894   23275428.1234
       850.7664        662.9344
   4811061.17545   3727531.20345  24385272.9634   24385279.7834
     -2931.8284      -2284.5414
    229002.55847    185748.88046  21464531.6504   21464534.5804
      -933.1254       -727.1104
   4282722.51246   3332454.97145  23232654.9794   23232658.8934
     -2898.9224      -2258.9004
 98  7  8 20 57 15.0020000  0  7G 3G 6G17G21G22G23G26
  -4178399.84445  -3105409.16445  24231373.4164   24231379.5104
      1741.7974       1357.2444
   8412655.78446   6526757.98346  22754075.7754   22754080.4284
     -4402.3914      -3430.4344
   3002065.12147   2332556.31547  21472542.6504   21472546.1784
     -1892.2194      -1474.4564
  -3473224.51846  -2672709.13646  23273007.2054   23273012.1394
       842.0944        656.1774
   4855123.25145   3761865.25445  24393657.8224   24393663.5884
     -2942.7194      -2293.0284
    243084.56347    196721.87846  21467211.2444   21467214.0924
      -944.0474       -735.6214
   4326312.33046   3366421.07345  23240949.5494   23240953.5214
     -2912.6724      -2269.6144
 98  7  8 20 57 30.0020000  0  7G 3G 6G17G21G22G23G26
  -4204463.51045  -3125718.47745  24226413.6114   24226419.1314
      1733.3134       1350.6334
   8478773.56046   6578278.28446  22766657.1194   22766661.4674
     -4413.3914      -3439.0064
   3030515.69147   2354725.59047  21477956.4324   21477959.8304
     -1901.2974      -1481.5304
  -3485782.89146  -2682494.82546  23270617.5884   23270622.9324
       832.2034        648.4704
   4899352.96745   3796329.91845  24402074.0494   24402080.5064
     -2954.6724      -2302.3424
    257334.36647    207825.63646  21469922.9864   21469925.8464
      -956.0474       -744.9724
   4370113.55846   3400551.88745  23249284.7134   23249288.8964
     -2927.5624      -2281.2184
 98  7  8 20 57 45.0020000  0  7G 3G 6G17G21G22G23G26
  -4230402.98445  -3145930.99544  24221476.6824   24221481.8964
      1725.9224       1344.8744
   8545053.82546   6629925.19846  22779270.0964   22779274.2094
     -4423.3594      -3446.7744
   3059101.94547   2377000.60247  21483396.0574   21483399.3854
     -1909.5944      -1487.9954
  -3498193.07446  -2692165.05145  23268256.0494   23268260.7714
       823.0634        641.3474
   4943757.35745   3830930.72045  24410524.4944   24410530.2364
     -2965.2974      -2310.6214
    271761.49747    219067.56646  21472668.0804   21472671.0104
      -966.9064       -753.4334
   4414135.74646   3434854.89245  23257661.3544   23257665.5964
     -2941.3914      -2291.9934
 98  7  8 20 58  0.0020000  0  7G 3G 6G17G21G22G23G26
  -4256229.05645  -3166055.13345  24216562.3464   24216568.2404
      1718.1724       1338.8354
   8611487.24646   6681691.44546  22791912.0494   22791915.9394
     -4433.8914      -3454.9804
   3087815.97447   2399375.17147  21488860.3774   21488863.7994
     -1918.4224      -1494.8744
  -3510462.05946  -2701725.24946  23265921.2914   23265926.5534
       813.3914        633.8114
   4988323.36245   3865657.42444  24419005.1974   24419010.5764
     -2976.2814      -2319.1804
    286353.45047    230437.93046  21475445.1744   21475447.9394
      -978.1254       -762.1754
   4458366.43846   3469320.36845  23266078.7914   23266082.5414
     -2955.4374      -2302.9384
 98  7  8 20 58 15.0020000  0  7G 3G 6G17G21G22G23G26
  -4281953.56145  -3186100.15645  24211667.0884   24211672.7134
      1711.7194       1333.8074
   8678066.04646   6733570.98546  22804581.7834   22804586.0494
     -4443.3284      -3462.3344
   3116651.66247   2421844.54647  21494347.6114   21494351.0454
     -1926.4224      -1501.1084
  -3522599.68246  -2711183.09346  23263611.4324   23263616.2014
       804.9064        627.2004
   5033041.61545   3900502.80345  24427514.8694   24427520.4004
     -2986.2034      -2326.9124
    301101.07747    241929.59746  21478251.5024   21478254.4674
      -988.2974       -770.1014
   4502794.00446   3503939.25845  23274533.0884   23274536.4394
     -2968.2664      -2312.9344
 98  7  8 20 58 30.0020000  0  7G 3G 6G17G21G22G23G26
  -4307575.53645  -3206065.28445  24206791.3694   24206796.6434
      1704.6414       1328.2914
   8744788.80546   6785562.69646  22817278.5104   22817283.0804
     -4452.9374      -3469.8214
   3145611.56247   2444410.70647  21499858.5494   21499862.2404
     -1934.7344      -1507.5854
  -3534605.55846  -2720538.27046  23261326.9794   23261332.2294
       796.0634        620.3084
   5077912.10945   3935466.78745  24436053.4004   24436060.4714
     -2996.2974      -2334.7774
    316006.24647    253544.03046  21481087.9794   21481090.7564
      -998.8914       -778.3564
   4547417.95846   3538711.16745  23283024.6584   23283028.8894
     -2981.4224      -2323.1864
 98  7  8 20 58 45.0020000  0  7G 3G 6G17G21G22G23G26
  -4333094.26345  -3225949.94845  24201935.7054   24201940.8854
      1698.2974       1323.3484
   8811653.09346   6837664.69546  22830002.4864   22830006.8224
     -4461.7814      -3476.7134
   3174692.64647   2467071.29347  21505392.5724   21505395.9124
     -1942.2504      -1513.4424
  -3546484.15146  -2729794.26646  23259066.3694   23259071.2214
       788.2504        614.2214
   5122928.85945   3970544.73245  24444619.8774   24444625.8074
     -3005.4694      -2341.9244
    331064.83547    265278.00646  21483953.5334   21483956.4984
     -1008.4534       -785.8084
   4592234.18046   3573632.90045  23291552.6974   23291556.4594
     -2993.6094      -2332.6834
 98  7  8 20 59  0.0020000  0  7G 3G 6G17G21G22G23G26
  -4358511.22645  -3245755.34145  24197098.6664   24197104.0334
      1690.6094       1317.3584
   8878654.66446   6889873.66446  22842752.5104   22842757.2444
     -4471.7344      -3484.4684
   3203890.92847   2489823.20647  21510948.6974   21510951.9084
     -1950.8124      -1520.1144
  -3558240.05646  -2738954.67246  23256829.0574   23256833.9554
       779.2504        607.2084
   5168090.14745   4005735.30045  24453213.7914   24453219.6744
     -3015.9534      -2350.0934
    346273.22847    277128.71646  21486847.5104   21486850.3694
     -1019.3284       -794.2824
   4637239.10346   3608701.67045  23300116.9164   23300120.9124
     -3007.0314      -2343.1414
 98  7  8 20 59 15.0020000  0  7G 3G 6G17G21G22G23G26
  -4383816.44645  -3265473.61845  24192282.6434   24192288.0574
      1682.9384       1311.3804
   8945799.01946   6942193.89046  22855529.8384   22855534.3264
     -4481.2974      -3491.9204
   3233211.02847   2512670.03747  21516528.1584   21516531.6744
     -1958.9534      -1526.4574
  -3569867.26246  -2748014.78446  23254616.5884   23254621.3574
       770.6414        600.4994
   5213402.12845   4041043.28345  24461836.4554   24461842.6434
     -3026.0314      -2357.9464
    361637.63847    289100.99746  21489771.0804   21489774.0924
     -1029.6564       -802.3304
   4682439.44846   3643922.73545  23308718.6114   23308722.4204
     -3020.1564      -2353.3694
 98  7  8 20 59 30.0020000  0  7G 3G 6G17G21G22G23G26
  -4409004.53345  -3285100.64845  24187489.9714   24187494.6354
      1675.0314       1305.2194
   9013089.23346   6994627.78046  22868334.5964   22868339.4594
     -4491.0944      -3499.5544
   3262654.21647   2535612.78247  21522131.1354   21522134.6744
     -1967.2034      -1532.8864
  -3581366.04746  -2756974.82846  23252428.5884   23252433.4284
       762.2034        593.9254
   5258864.90645   4076468.77445  24470487.9324   24470492.5144
     -3036.0314      -2365.7394
    377156.98347    301194.00846  21492724.5644   21492727.3074
     -1040.0164       -810.4024
   4727837.32746   3679297.70145  23317357.4084   23317361.0294
     -3033.3444      -2363.6444
 98  7  8 20 59 45.0020000  0  7G 3G 6G17G21G22G23G26
  -4434075.88545  -3304636.72745  24182719.0414   24182724.2914
      1667.5314       1299.3754
   9080521.76046   7047172.55246  22881166.6114   22881171.0534
     -4500.1724      -3506.6274
   3292219.79747   2558650.89947  21527757.1434   21527760.4474
     -1975.2034      -1539.1194
  -3592741.73246  -2765838.95146  23250263.6974   23250268.7714
       754.2974        587.7644
   5304474.74745   4112008.98044  24479166.9324   24479171.7954
     -3045.5474      -2373.1534
    392830.18647    313406.90746  21495707.0024   21495709.9794
     -1050.0624       -818.2314
   4773430.91746   3714825.15545  23326033.2914   23326037.5104
     -3046.1094      -2373.5924
 98  7  8 21  0  0.0020000  0  7G 3G 6G17G21G22G23G26
  -4459038.25145  -3324087.86945  24177968.6664   24177973.0964
      1660.1884       1293.6534
   9148086.07846   7099820.02246  22894023.7054   22894028.0184
     -4508.9694      -3513.4824
   3321900.52347   2581778.73747  21533405.0494   21533408.3544
     -1982.7814      -1545.0244
  -3604004.77046  -2774615.30146  23248120.2754   23248124.7644
       746.9064        582.0054
   5350222.10745   4147656.16744  24487871.9554   24487879.0254
     -3054.7344      -2380.3124
    408648.86047    325733.15846  21498717.2364   21498720.2134
     -1059.7194       -825.7554
   4819210.68146   3750497.73845  23334745.4084   23334749.9674
     -3058.4694      -2383.2224
 98  7  8 21  0 15.0020000  0  7G 3G 6G17G21G22G23G26
  -4483885.38745  -3343449.21345  24173240.5414   24173244.7014
      1652.4844       1287.6504
   9215786.09946   7152573.24046  22906906.5184   22906911.2294
     -4518.0164      -3520.5324
   3351698.29947   2604997.78347  21539075.2684   21539078.7254
     -1990.5314      -1551.0634
  -3615154.21046  -2783303.13746  23245998.6274   23246003.1624
       739.3754        576.1364
   5396114.59845   4183416.47644  24496605.4394   24496610.6074
     -3064.5624      -2387.9714
    424619.39647    338177.74746  21501756.3224   21501759.1704
     -1069.9694       -833.7424
   4865181.43446   3786319.08445  23343492.9394   23343497.3464
     -3071.2814      -2393.2064
 98  7  8 21  0 30.0020000  0  7G 3G 6G17G21G22G23G26
  -4508611.54845  -3362716.31045  24168535.0884   24168540.4794
      1644.9534       1281.7824
   9283627.63446   7205436.72346  22919816.4634   22919820.9514
     -4526.8754      -3527.4354
   3381615.95547   2628310.24247  21544768.7914   21544772.1784
     -1997.8124      -1556.7374
  -3626186.48246  -2791899.65746  23243899.5184   23243903.8894
       732.2344        570.5724
   5442159.72545   4219295.74045  24505367.2524   24505372.7134
     -3074.2034      -2395.4834
    440747.84847    350745.38646  21504825.3934   21504828.2644
     -1079.8444       -841.4374
   4911350.07946   3822294.67545  23352278.9164   23352282.4794
     -3083.9064      -2403.0444
 98  7  8 21  0 45.0020000  0  7G 3G 6G17G21G22G23G26
  -4533224.60645  -3381895.25645  24163851.2294   24163856.3964
      1636.8594       1275.4754
   9351601.36846   7258403.22746  22932751.5804   22932756.1974
     -4536.2814      -3534.7654
   3411641.17947   2651706.52247  21550482.3854   21550485.6664
     -2005.5164      -1562.7394
  -3637112.48846  -2800413.39346  23241820.2294   23241824.9754
       724.6254        564.6434
   5488349.55545   4255287.80445  24514157.3464   24514163.1704
     -3084.3754      -2403.4094
    457023.89647    363428.03546  21507922.8614   21507925.8854
     -1090.2034       -849.5094
   4957707.93346   3858417.67545  23361100.2604   23361103.5534
     -3097.1254      -2413.3444
 98  7  8 21  1  0.0020000  0  7G 3G 6G17G21G22G23G26
  -4557718.85345  -3400981.62545  24159190.2444   24159195.4944
      1629.1724       1269.4854
   9419714.05446   7311477.99446  22945712.8464   22945717.7794
     -4545.1724      -3541.6924
   3441779.59647   2675191.00047  21556217.4714   21556220.9044
     -2012.7504      -1568.3774
  -3647926.37846  -2808839.75346  23239762.3774   23239767.2994
       717.3754        558.9944
   5534690.57545   4291397.62345  24522975.9794   24522981.8384
     -3094.2344      -2411.0924
    473453.82347    376230.58546  21511049.1664   21511052.1544
     -1100.3284       -857.3994
   5004262.64446   3894694.08145  23369959.2524   23369963.0024
     -3110.0314      -2423.4014
 98  7  8 21  1 15.0020000  0  7G 3G 6G17G21G22G23G26
  -4582098.62645  -3419978.81945  24154551.2914   24154556.1894
      1621.7814       1263.7264
   9487957.28346   7364654.48846  22958699.2684   22958704.1314
     -4553.5944      -3548.2554
   3472025.11047   2698758.93447  21561973.1664   21561976.5414
     -2019.6564      -1573.7584
  -3658632.27746  -2817181.98046  23237725.3074   23237730.1464
       710.4844        553.6244
   5581175.94445   4327619.93445  24531821.8694   24531828.1154
     -3103.4224      -2418.2514
    490034.46247    389150.57646  21514204.2444   21514207.4204
     -1110.0004       -864.9354
   5051009.70746   3931120.37345  23378854.9944   23378858.5334
     -3122.5624      -2433.1664
 98  7  8 21  1 30.0020000  0  7G 3G 6G17G21G22G23G26
  -4606366.83445  -3438889.06045  24149932.9004   24149937.4124
      1613.9844       1257.6504
   9556329.12146   7417931.20446  22971710.0024   22971715.1114
     -4562.6874      -3555.3414
   3502376.80147   2722409.59947  21567748.7444   21567752.1784
     -2027.2504      -1579.6754
  -3669235.45346  -2825444.15446  23235707.0724   23235712.1584
       703.2664        547.9994
   5627799.77945   4363950.16345  24540694.0254   24540699.9554
     -3113.1254      -2425.8124
    506759.14547    402182.80746  21517386.8074   21517389.8424
     -1119.9534       -872.6914
   5097945.67846   3967693.87045  23387786.5254   23387789.9244
     -3135.5314      -2443.2714
 98  7  8 21  1 45.0020000  0  7G 3G 6G17G21G22G23G26
  -4630523.39845  -3457712.29945  24145335.8774   24145340.5534
      1607.1414       1252.3174
   9624834.46746   7471311.93646  22984746.1354   22984750.9284
     -4571.0314      -3561.8434
   3532839.49947   2746146.77047  21573545.7834   21573548.9244
     -2034.1564      -1585.0574
  -3679732.90446  -2833623.94346  23233709.7134   23233714.4004
       696.6094        542.8134
   5674566.19145   4400391.46344  24549593.1274   24549599.1044
     -3122.1254      -2432.8254
    523629.71347    415328.71546  21520596.9474   21520599.9364
     -1129.1724       -879.8744
   5145070.41346   4004414.44045  23396754.1194   23396757.5064
     -3147.4694      -2452.5734
 98  7  8 21  2  0.0020000  0  7G 3G 6G17G21G22G23G26
  -4654576.01745  -3476454.54945  24140758.7134   24140763.7994
      1600.0634       1246.8024
   9693466.53446   7524791.42146  22997806.7754   22997811.7094
     -4579.7974      -3568.6734
   3563407.08347   2769965.66547  21579362.2444   21579365.6664
     -2041.3124      -1590.6334
  -3690126.39046  -2841722.72246  23231731.6354   23231736.5574
       689.3594        537.1634
   5721469.86245   4436939.74144  24558519.0494   24558525.2364
     -3131.4694      -2440.1064
    540639.39747    428583.02546  21523834.1194   21523837.1664
     -1138.5624       -887.1924
   5192374.97446   4041275.14345  23405755.6274   23405759.0844
     -3159.6254      -2462.0454
 98  7  8 21  2 15.0020000  0  7G 3G 6G17G21G22G23G26
  -4678523.80445  -3495115.12145  24136202.1274   24136207.5884
      1593.0474       1241.3354
   9762230.49446   7578373.68646  23010891.7364   23010896.4714
     -4588.5784      -3575.5154
   3594078.25447   2793865.27947  21585199.1194   21585202.5644
     -2048.0314      -1595.8694
  -3700412.80346  -2849738.06946  23229774.4324   23229779.1664
       682.2194        531.5994
   5768511.60745   4473595.62645  24567470.9164   24567477.3504
     -3140.6414      -2447.2524
    557786.85147    441944.68846  21527097.0024   21527100.1074
     -1147.6564       -894.2784
   5239860.81946   4078277.11145  23414792.2054   23414796.2604
     -3171.6724      -2471.4334
 98  7  8 21  2 30.0020000  0  7G 3G 6G17G21G22G23G26
  -4702370.50045  -3513696.92045  24131663.9554   24131668.5494
      1586.3444       1236.1124
   9831120.96646   7632054.51245  23024001.2754   23024006.1154
     -4597.0164      -3582.0904
   3624844.59547   2817839.05247  21591053.5804   21591056.9554
     -2054.3444      -1600.7874
  -3710595.21146  -2857672.37646  23227836.8074   23227841.9394
       675.2034        526.1324
   5815684.53945   4510353.70245  24576447.2914   24576453.3144
     -3149.2194      -2453.9374
    575065.37447    455408.48246  21530384.9864   21530388.0334
     -1156.3444       -901.0474
   5287523.28146   4115416.69145  23423862.0804   23423866.2644
     -3183.4844      -2480.6374
 98  7  8 21  2 45.0020000  0  7G 3G 6G17G21G22G23G26
  -4726120.38445  -3532203.25945  24127144.6664   24127150.8074
      1580.3444       1231.4374
   9900134.77946   7685831.46446  23037134.7294   23037139.3344
     -4604.7034      -3588.0804
   3655702.85847   2841884.45547  21596925.9164   21596929.3854
     -2060.0314      -1605.2194
  -3720675.05946  -2865526.76546  23225918.4714   23225923.1824
       668.7664        521.1164
   5862980.64645   4547207.77845  24585447.6974   24585453.9084
     -3156.8594      -2459.8904
    592471.36147    468971.59846  21533697.4554   21533700.5024
     -1164.4534       -907.3664
   5335359.00546   4152691.29345  23432964.4794   23432968.0064
     -3194.5624      -2489.2694
 98  7  8 21  3  0.0020000  0  7G 3G 6G17G21G22G23G26
  -4749774.00145  -3550634.61845  24122643.1194   24122647.6664
      1573.6564       1226.2264
   9969268.99346   7739702.22546  23050290.0964   23050294.9364
     -4613.0474      -3594.5824
   3686653.10447   2866001.52747  21602815.4554   21602818.6544
     -2066.4844      -1610.2484
  -3730649.69846  -2873299.18246  23224020.3224   23224024.7874
       661.3914        515.3694
   5910396.35145   4584155.03644  24594470.3384   24594475.7644
     -3165.0164      -2466.2464
    610005.52047    482634.59046  21537033.9554   21537037.0144
     -1173.2034       -914.1844
   5383367.74346   4190100.69945  23442100.4944   23442104.4794
     -3206.3754      -2498.4744
 98  7  8 21  3 15.0020000  0  7G 3G 6G17G21G22G23G26
  -4773326.88445  -3568987.45245  24118161.3304   24118166.1114
      1567.1254       1221.1364
  10038529.25846   7793671.21445  23063469.7604   23063474.7404
     -4621.2664      -3600.9864
   3717700.97847   2890194.67647  21608723.7364   21608726.9714
     -2072.8914      -1615.2394
  -3740514.34046  -2880985.87046  23222143.1894   23222148.1584
       654.2974        509.8424
   5957934.69845   4621197.82745  24603516.5334   24603522.3574
     -3173.0164      -2472.4804
    627669.68947    496398.88446  21540395.1114   21540398.2054
     -1181.6724       -920.7834
   5431551.67646   4227646.63145  23451269.5494   23451273.0764
     -3217.7814      -2507.3624
 98  7  8 21  3 30.0020000  0  7G 3G 6G17G21G22G23G26
  -4796782.87045  -3587264.79445  24113697.8934   24113702.3114
      1560.4694       1215.9504
  10107913.61446   7847736.90045  23076673.1974   23076678.0614
     -4629.8754      -3607.6954
   3748845.53447   2914463.16347  21614650.2914   21614653.5374
     -2079.5474      -1620.4264
  -3750272.38746  -2888589.51146  23220286.2364   23220291.0184
       646.8754        504.0584
   6005593.95045   4658334.86944  24612586.1974   24612592.4904
     -3181.4844      -2479.0794
    645460.23147    510261.65346  21543780.7684   21543783.8734
     -1190.2974       -927.5044
   5479906.49346   4265325.71245  23460471.4714   23460475.5494
     -3229.4534      -2516.4574
 98  7  8 21  3 45.0030000  0  7G 3G 6G17G21G22G23G26
  -4820145.56645  -3605469.46145  24109252.0464   24109257.1554
      1553.9534       1210.8734
  10177427.47346   7901903.48645  23089901.2964   23089906.7224
     -4638.3754      -3614.3184
   3780086.04047   2938806.41147  21620595.1084   21620598.4014
     -2085.9534      -1625.4184
  -3759923.47646  -2896109.80846  23218449.8974   23218454.6324
       639.4064        498.2394
   6053379.93145   4695570.66844  24621679.4444   24621685.0584
     -3189.9374      -2485.6664
    663377.99147    524223.55646  21547190.4684   21547193.7614
     -1199.0314       -934.3104
   5528435.78846   4303140.74745  23469705.8194   23469709.7924
     -3241.0784      -2525.5154
 98  7  8 21  4  0.0030000  0  7G 3G 6G17G21G22G23G26
  -4843410.71245  -3623598.07845  24104824.8124   24104829.6284
      1547.9224       1206.1734
  10247060.02746   7956162.57045  23103151.9764   23103157.1554
     -4646.0624      -3620.3084
   3811418.13447   2963221.03147  21626557.4444   21626560.7724
     -2091.7814      -1629.9594
  -3769463.06846  -2903543.22546  23216634.4134   23216639.0654
       632.4064        492.7844
   6101285.24945   4732899.46944  24630795.6474   24630801.4134
     -3197.5474      -2491.5954
    681423.93247    538285.33246  21550624.4214   21550627.5734
     -1207.2664       -940.7264
   5577134.05146   4341087.44945  23478972.6474   23478977.0654
     -3252.2034      -2534.1844
 98  7  8 21  4 15.0030000  0  7G 3G 6G17G21G22G23G26
  -4866576.97245  -3641649.68045  24100416.2414   24100420.7764
      1540.7504       1200.5844
  10316816.50746   8010518.21745  23116426.3124   23116431.2574
     -4654.8914      -3627.1874
   3842845.74047   2987710.07747  21632538.0694   21632541.3974
     -2098.7344      -1635.3774
  -3778891.07546  -2910889.69146  23214840.1324   23214844.7844
       624.5164        486.6364
   6149312.70545   4770323.38044  24639934.9524   24639941.4214
     -3206.2814      -2498.4014
    699602.37347    552450.36546  21554083.7104   21554086.7924
     -1216.6724       -948.0564
   5626007.86846   4379170.93345  23488273.5074   23488277.4794
     -3264.4534      -2543.7304
 98  7  8 21  4 30.0030000  0  7G 3G 6G17G21G22G23G26
  -4889646.64245  -3659625.98745  24096025.9604   24096030.6714
      1535.1724       1196.2384
  10386691.39846   8064966.13245  23129723.2024   23129728.2884
     -4661.8444      -3632.6064
   3874365.90647   3012271.24247  21638536.2264   21638539.6364
     -2104.1094      -1639.5664
  -3788212.09946  -2918152.79046  23213066.3904   23213070.8904
       618.1884        481.7054
   6197458.78745   4807839.78544  24649096.7494   24649102.1634
     -3213.3124      -2503.8804
    717910.57647    566716.50746  21557567.5074   21557570.7184
     -1224.5474       -954.1924
   5675052.39846   4417387.47845  23497606.5694   23497609.9444
     -3274.8914      -2551.8634
 98  7  8 21  4 45.0030000  0  7G 3G 6G17G21G22G23G26
  -4912621.18845  -3677528.18645  24091654.0154   24091658.4094
      1528.2194       1190.8204
  10456685.23046   8119506.71445  23143042.5384   23143047.4374
     -4670.5624      -3639.3994
   3905983.54947   3036908.37147  21644552.5304   21644556.1044
     -2111.5164      -1645.3374
  -3797425.71546  -2925332.20446  23211313.1474   23211317.8124
       610.4224        475.6534
   6245724.70345   4845449.53544  24658281.9914   24658288.0974
     -3222.0944      -2510.7224
    736351.98147    581086.44346  21561076.7964   21561080.0304
     -1234.2664       -961.7654
   5724266.37946   4455736.02645  23506971.6324   23506975.0544
     -3286.8914      -2561.2134
 98  7  8 21  5  0.0030000  0  7G 3G 6G17G21G22G23G26
  -4935502.89445  -3695358.05545  24087300.0384   24087305.2884
      1522.2344       1186.1574
  10526797.51046   8174139.61845  23156384.7414   23156389.7924
     -4678.0474      -3645.2314
   3937701.91247   3061623.97647  21650588.4294   21650591.9094
     -2117.9534      -1650.3534
  -3806536.61946  -2932431.57246  23209579.3664   23209583.8664
       604.0474        470.6864
   6294112.39745   4883154.21444  24667489.3434   24667495.5774
     -3229.9694      -2516.8594
    754926.67847    595560.24246  21564611.4294   21564614.3944
     -1242.6874       -968.3284
   5773647.51246   4494214.82845  23516368.3584   23516372.7414
     -3297.5624      -2569.5294
 98  7  8 21  5 15.0030000  0  7G 3G 6G17G21G22G23G26
  -4958284.43045  -3713109.84845  24082964.9214   24082969.7614
      1515.4534       1180.8734
  10597030.71446   8228866.73545  23169749.6324   23169754.5654
     -4686.1414      -3651.5384
   3969525.82447   3086421.83547  21656644.0774   21656647.2534
     -2125.0164      -1655.8564
  -3815543.64046  -2939450.00546  23207865.4054   23207869.7654
       597.1254        465.2924
   6342627.51745   4920958.16444  24676721.7184   24676728.7184
     -3238.4844      -2523.4944
    773636.51347    610139.34846  21568171.8124   21568174.7764
     -1251.7974       -975.4264
   5823197.04346   4532824.85345  23525797.4524   23525801.6014
     -3308.7344      -2578.2354
 98  7  8 21  5 30.0030000  0  7G 3G 6G17G21G22G23G26
  -4980969.71745  -3730786.65045  24078647.5224   24078652.9484
      1509.2974       1176.0754
  10667377.68846   8283682.50145  23183136.2104   23183141.1204
     -4693.3914      -3657.1874
   4001449.21047   3111297.19747  21662719.1474   21662722.4994
     -2131.4224      -1660.8484
  -3824452.75946  -2946392.13846  23206170.0854   23206175.0194
       590.7344        460.3134
   6391264.48045   4958857.00944  24685977.1474   24685983.7454
     -3246.4064      -2529.6674
    792480.66347    624823.10746  21571757.6944   21571760.6364
     -1260.7814       -982.4274
   5872907.84946   4571560.53545  23535257.2804   23535261.3004
     -3319.3914      -2586.5384
 98  7  8 21  5 45.0030000  0  7G 3G 6G17G21G22G23G26
  -5003556.34245  -3748386.56645  24074349.4524   24074354.3744
      1502.1564       1170.5114
  10737839.22246   8338587.54545  23196544.5544   23196549.4644
     -4701.5474      -3663.5434
   4033474.57247   3136252.02547  21668813.3274   21668816.5734
     -2138.7504      -1666.5584
  -3833257.59346  -2953253.02046  23204494.6474   23204499.4294
       583.1414        454.3954
   6440025.89245   4996852.90444  24695255.8044   24695262.6634
     -3255.1724      -2536.4984
    811464.64947    639615.83446  21575370.2264   21575373.1324
     -1270.5164       -990.0124
   5922785.72946   4610426.42345  23544748.4994   23544751.6514
     -3331.0944      -2595.6574
 98  7  8 21  6  0.0030000  0  7G 3G 6G17G21G22G23G26
  -5026040.69145  -3765906.78045  24070070.6084   24070075.9874
      1495.4534       1165.2884
  10808417.06646   8393583.21245  23209975.2334   23209980.4134
     -4709.1094      -3669.4364
   4065606.62847   3161289.99347  21674927.9684   21674931.4134
     -2145.8444      -1672.0864
  -3841953.40546  -2960028.93846  23202839.8194   23202844.6124
       576.0314        448.8564
   6488911.04345   5034945.18744  24704558.5624   24704564.5034
     -3263.1564      -2542.7194
    830590.32247    654518.97146  21579009.6244   21579012.7764
     -1279.8754       -997.3054
   5972832.88446   4649424.21745  23554272.1874   23554275.5384
     -3342.1724      -2604.2904
 98  7  8 21  6 15.0030000  0  7G 3G 6G17G21G22G23G26
  -5048426.24745  -3783350.04345  24065811.3744   24065817.0464
      1489.0004       1160.2604
  10879106.94446   8448666.17945  23223427.0544   23223431.8124
     -4716.4844      -3675.1834
   4097843.73447   3186409.81047  21681062.4764   21681065.9334
     -2152.6724      -1677.4074
  -3850545.64646  -2966724.16546  23201204.7884   23201209.2064
       569.3594        443.6574
   6537915.67845   5073130.55444  24713883.7104   24713889.4054
     -3271.0944      -2548.9044
    849853.29547    669529.08846  21582675.3824   21582678.4874
     -1288.7974      -1004.2574
   6023044.92446   4688550.47245  23563827.2264   23563831.0584
     -3353.0474      -2612.7644
 98  7  8 21  6 30.0030000  0  7G 3G 6G17G21G22G23G26
  -5070713.29345  -3800716.52745  24061570.1244   24061575.5734
      1482.7344       1155.3774
  10949908.95846   8503836.52945  23236900.0694   23236905.1204
     -4723.6094      -3680.7354
   4130183.05447   3211609.28547  21687216.3974   21687219.8664
     -2159.1094      -1682.4234
  -3859037.80546  -2973341.39046  23199588.4764   23199593.2104
       563.0474        438.7384
   6587041.16245   5111410.09744  24723232.6244   24723238.7884
     -3278.7814      -2554.8944
    869249.67947    684643.16446  21586366.5304   21586369.5654
     -1297.2504      -1010.8444
   6073421.33346   4727804.82645  23573413.4914   23573417.8744
     -3363.7034      -2621.0674
 98  7  8 21  6 45.0030000  0  7G 3G 6G17G21G22G23G26
  -5092909.42145  -3818012.14745  24057346.1714   24057351.2574
      1476.1564       1150.2524
  11020813.87046   8559087.05645  23250392.9294   23250398.0854
     -4731.0004      -3686.4944
   4162614.81547   3236880.78847  21693387.9134   21693391.4054
     -2165.7344      -1687.5854
  -3867439.74846  -2979888.32346  23197989.7184   23197994.2064
       556.6724        433.7704
   6636277.79145   5149776.28244  24732601.6244   24732607.2264
     -3286.7034      -2561.0674
    888769.44247    699853.38046  21590081.0464   21590083.9404
     -1306.0004      -1017.6624
   6123955.80046   4767182.32245  23583029.7884   23583033.7264
     -3374.8444      -2629.7484
 98  7  8 21  7  0.0030000  0  7G 3G 6G17G21G22G23G26
  -5115004.70345  -3835229.21445  24053141.7574   24053146.4564
      1469.5314       1145.0894
  11091831.17146   8614425.15745  23263907.3744   23263912.7884
     -4738.2344      -3692.1314
   4195147.66647   3262231.05947  21699578.5854   21699581.9374
     -2172.2194      -1692.6384
  -3875744.57146  -2986359.59046  23196409.5854   23196414.1554
       550.2814        428.7914
   6685636.02545   5188237.19244  24741994.5224   24742000.6754
     -3294.6564      -2567.2654
    908422.60847    715167.54446  21593820.7024   21593823.7844
     -1314.6724      -1024.4204
   6174660.82146   4806692.72245  23592679.0774   23592682.5934
     -3386.1414      -2638.5514
 98  7  8 21  7 15.0030000  0  7G 3G 6G17G21G22G23G26
  -5136995.22045  -3852364.63545  24048956.6084   24048961.3434
      1462.5944       1139.6834
  11162959.38946   8669849.68245  23277442.6014   23277447.9564
     -4745.4844      -3697.7804
   4227779.78647   3287658.68647  21705788.3744   21705791.6904
     -2178.6724      -1697.6664
  -3883947.56346  -2992751.48346  23194848.5224   23194852.9874
       543.3914        423.4214
   6735115.54045   5226792.59944  24751409.8044   24751414.9014
     -3302.4844      -2573.3644
    928207.68247    730584.49846  21597585.5934   21597588.7104
     -1323.3284      -1031.1654
   6225538.18246   4846337.42145  23602360.2884   23602364.3904
     -3397.5164      -2647.4154
 98  7  8 21  7 30.0030000  0  7G 3G 6G17G21G22G23G26
  -5158885.76245  -3869422.14945  24044791.0624   24044795.4684
      1456.1884       1134.6924
  11234193.93146   8725357.07045  23290998.1244   23291003.6674
     -4752.5004      -3703.2474
   4260505.46347   3313159.21347  21712015.8044   21712018.9444
     -2184.6874      -1702.3544
  -3892047.70446  -2999063.25546  23193306.9524   23193311.4994
       536.6414        418.1624
   6784708.48545   5265436.39544  24760847.2804   24760852.9054
     -3309.8914      -2579.1364
    948121.08047    746101.44046  21601375.1084   21601378.1324
     -1331.7194      -1037.7034
   6276584.90946   4886114.10445  23612074.2184   23612078.2494
     -3408.6874      -2656.1204
 98  7  8 21  7 45.0030000  0  7G 3G 6G17G21G22G23G26
  -5180677.95545  -3886403.02745  24040644.0074   24040648.9294
      1449.2974       1129.3224
  11305539.17646   8780950.70545  23304574.6164   23304579.7374
     -4760.3754      -3709.3834
   4293324.78947   3338732.71347  21718261.2574   21718264.6444
     -2191.3754      -1707.5654
  -3900043.85946  -3005293.98346  23191785.2104   23191790.0854
       529.3594        412.4884
   6834416.38345   5304169.79144  24770306.1324   24770312.2724
     -3317.9694      -2585.4304
    968160.21047    761716.36046  21605188.4374   21605191.3664
     -1340.1874      -1044.3024
   6327804.13146   4926025.17045  23621820.8664   23621825.4014
     -3420.6874      -2665.4714
 98  7  8 21  8  0.0030000  0  7G 3G 6G17G21G22G23G26
  -5202367.90546  -3903304.24545  24036516.8044   24036521.5384
      1442.9694       1124.3914
  11377000.89346   8836635.11045  23318173.4834   23318178.6874
     -4767.5624      -3714.9844
   4326240.65147   3364381.44147  21724524.7654   21724528.1404
     -2197.0944      -1712.0214
  -3907934.46246  -3011442.47546  23190283.5224   23190287.4374
       523.0944        407.6064
   6884242.93245   5342995.61244  24779787.6244   24779794.0584
     -3325.2974      -2591.1404
    988320.49147    777425.68046  21609024.9294   21609027.9174
     -1347.6254      -1050.0974
   6379198.38946   4966072.63245  23631600.6404   23631604.9404
     -3431.5944      -2673.9694
 98  7  8 21  8 15.0030000  0  7G 3G 6G17G21G22G23G26
  -5223960.41746  -3920129.53045  24032407.9834   24032412.9644
      1436.5004       1119.3514
  11448572.73646   8892405.32245  23331793.2334   23331799.0224
     -4774.8914      -3720.6944
   4359242.73047   3390097.34947  21730805.0224   21730808.2924
     -2202.6564      -1716.3564
  -3915731.16446  -3017517.79346  23188799.9444   23188804.3044
       517.0164        402.8694
   6934182.14045   5381909.23844  24789290.9294   24789297.1874
     -3332.8124      -2596.9974
   1008596.74147    793225.36946  21612883.2654   21612886.1944
     -1355.3444      -1056.1124
   6430757.03646   5006248.20545  23641412.2804   23641416.3944
     -3442.4224      -2682.4074
 98  7  8 21  8 30.0030000  0  7G 3G 6G17G21G22G23G26
  -5245460.68246  -3936882.91945  24028316.3044   24028320.8514
      1429.5314       1113.9204
  11520250.05146   8948257.72745  23345432.9524   23345438.0854
     -4782.7034      -3726.7824
   4392321.57647   3415873.07547  21737099.6084   21737103.1014
     -2208.5314      -1720.9334
  -3923441.79246  -3023526.04246  23187332.6404   23187337.1284
       510.3914        397.7074
   6984228.36345   5420906.21444  24798814.8744   24798821.7454
     -3340.6254      -2603.0844
   1028982.19047    809110.14246  21616762.3194   21616765.3784
     -1363.4224      -1062.4074
   6482472.58246   5046546.04345  23651253.6944   23651256.8824
     -3453.5944      -2691.1124
 98  7  8 21  8 45.0030000  0  7G 3G 6G17G21G22G23G26
  -5266858.17846  -3953556.24145  24024244.4374   24024249.3124
      1423.5164       1109.2334
  11592041.61546   9004199.13945  23359094.3664   23359099.2294
     -4789.4844      -3732.0664
   4425489.01947   3441717.83047  21743411.1554   21743414.6124
     -2213.8284      -1725.0614
  -3931052.51846  -3029456.43846  23185884.5154   23185889.3904
       504.3914        393.0324
   7034388.27745   5459991.86144  24808359.9054   24808366.8944
     -3347.3124      -2608.2954
   1049489.14647    825089.59546  21620664.7414   21620667.6714
     -1370.8754      -1068.2144
   6534353.29146   5086972.56945  23661125.6874   23661129.3904
     -3463.7974      -2699.0624
 98  7  8 21  9  0.0030000  0  7G 3G 6G17G21G22G23G26
  -5288159.99646  -3970155.01545  24020191.1554   24020196.1944
      1417.0164       1104.1684
  11663941.82746   9060225.22845  23372776.5544   23372782.3084
     -4796.9694      -3737.8984
   4458743.35547   3467630.30047  21749739.3354   21749742.8514
     -2219.8444      -1729.7484
  -3938565.74346  -3035310.86146  23184454.8514   23184459.6084
       497.5634        387.7114
   7084655.60845   5499161.13144  24817925.1164   24817931.8544
     -3354.7034      -2614.0544
   1070116.24547    841162.66846  21624590.0074   21624592.9014
     -1379.1094      -1074.6314
   6586392.62446   5127522.70345  23671028.4134   23671031.9644
     -3474.4374      -2707.3544
 98  7  8 21  9 15.0030000  0  7G 3G 6G17G21G22G23G26
  -5309369.75646  -3986682.05345  24016154.7964   24016159.8824
      1410.5944       1099.1644
  11735948.28246   9116334.10545  23386479.2264   23386484.5224
     -4804.2194      -3743.5474
   4492082.93247   3493609.19647  21756083.6164   21756086.9684
     -2225.7664      -1734.3634
  -3945979.93446  -3041088.12146  23183043.6084   23183047.9444
       490.6724        382.3424
   7135027.28545   5538411.75144  24827511.1874   24827516.6474
     -3361.7974      -2619.5824
   1090860.31247    857326.89146  21628537.2804   21628540.2804
     -1387.0784      -1080.8404
   6638583.40546   5168190.83945  23680960.4444   23680963.6674
     -3484.6564      -2715.3174
 98  7  8 21  9 30.0030000  0  7G 3G 6G17G21G22G23G26
  -5330481.16245  -4003132.45645  24012137.5304   24012142.9444
      1404.1094       1094.1114
  11808064.83846   9172528.76545  23400202.8274   23400207.7494
     -4811.4844      -3749.2094
   4525512.60747   3519658.28947  21762445.2804   21762448.5974
     -2231.6724      -1738.9654
  -3953290.37646  -3046784.52746  23181652.5074   23181656.6794
       484.0164        377.1554
   7185505.51045   5577745.36944  24837116.7184   24837123.1284
     -3368.7974      -2625.0374
   1111724.25647    873584.51546  21632507.8194   21632510.7144
     -1394.9224      -1086.9524
   6690927.81446   5208978.69145  23690921.3514   23690924.5154
     -3494.7504      -2723.1824
 98  7  8 21  9 45.0030000  0  7G 3G 6G17G21G22G23G26
  -5351492.56445  -4019504.91245  24008138.8824   24008143.2064
      1397.7344       1089.1444
  11880293.51746   9228810.79745  23413947.1324   23413952.3354
     -4818.6724      -3754.8094
   4559033.57947   3545778.52847  21768824.0154   21768827.3784
     -2237.4534      -1743.4704
  -3960501.52746  -3052403.58046  23180280.3744   23180284.9684
       477.8594        372.3584
   7236093.54745   5617164.53844  24846743.2334   24846749.6204
     -3375.9694      -2630.6254
   1132708.65247    889936.00246  21636501.1324   21636504.0264
     -1402.6414      -1092.9674
   6743426.65246   5249886.87645  23700911.4834   23700914.6244
     -3504.6724      -2730.9134
 98  7  8 21 10  0.0030000  0  7G 3G 6G17G21G22G23G26
  -5372407.65146  -4035802.32245  24004158.9374   24004163.5544
      1390.4534       1083.4704
  11952628.28046   9285175.48445  23427712.0544   23427717.3274
     -4826.3754      -3760.8124
   4592642.57447   3571967.35347  21775219.6244   21775222.9294
     -2244.2344      -1748.7544
  -3967621.69146  -3057951.71146  23178925.4604   23178930.1364
       470.9384        366.9644
   7286788.44045   5656667.03644  24856390.3974   24856396.8664
     -3383.8124      -2636.7374
   1153809.27647    906378.05646  21640516.4994   21640519.4404
     -1411.3124      -1099.7244
   6796073.43946   5290910.35045  23710929.7884   23710933.5734
     -3515.4064      -2739.2784
 98  7  8 21 10 15.0030000  0  7G 3G 6G17G21G22G23G26
  -5393218.28546  -4052018.35445  24000198.8044   24000203.5034
      1383.9224       1078.3814
  12025071.44746   9341624.64845  23441497.3514   23441503.0584
     -4833.1414      -3766.0844
   4626348.20747   3598231.48447  21781633.5074   21781636.9874
     -2250.3284      -1753.5024
  -3974642.27746  -3063422.27246  23177589.2964   23177593.8434
       464.6884        362.0944
   7337594.98645   5696256.45744  24866058.5304   24866064.7184
     -3390.8284      -2642.2044
   1175037.99147    922919.92446  21644556.2264   21644558.9444
     -1419.6254      -1106.2014
   6848875.64946   5332054.92145  23720977.6794   23720981.3354
     -3525.4064      -2747.0704
 98  7  8 21 10 30.0030000  0  7G 3G 6G17G21G22G23G26
  -5413928.61446  -4068156.22945  23996257.7654   23996262.2294
      1377.3754       1073.2794
  12097619.16346   9398155.27545  23455303.0384   23455308.1474
     -4839.9694      -3771.4044
   4660151.27947   3624571.53647  21788066.0624   21788069.6244
     -2256.8914      -1758.6164
  -3981564.03146  -3068815.80446  23176272.3584   23176276.9174
       458.1254        356.9814
   7388508.95845   5735929.65544  24875746.9914   24875754.0504
     -3397.7814      -2647.6224
   1196393.40347    939560.50946  21648619.7104   21648622.6754
     -1427.7814      -1112.5574
   6901832.94046   5373320.34645  23731055.3124   23731058.0544
     -3535.6564      -2755.0574
 98  7  8 21 10 45.0030000  0  7G 3G 6G17G21G22G23G26
  -5434542.45145  -4084218.91145  23992334.8974   23992339.9724
      1370.9224       1068.2514
  12170265.99846   9454763.14145  23469126.9914   23469132.5584
     -4846.4844      -3776.4814
   4694053.22347   3650988.63547  21794517.4834   21794520.8824
     -2263.6254      -1763.8644
  -3988387.86646  -3074133.04646  23174973.7574   23174977.7414
       451.5314        351.8434
   7439525.80445   5775682.99843  24885455.1714   24885461.8514
     -3404.7194      -2653.0284
   1217868.99747    956294.75446  21652706.4834   21652709.5194
     -1435.8594      -1118.8514
   6954943.10946   5414704.88745  23741161.7494   23741164.6204
     -3545.9064      -2763.0444
 98  7  8 21 11  0.0030000  0  7G 3G 6G17G21G22G23G26
  -5455058.33046  -4100205.24445  23988430.7964   23988436.0814
      1364.2504       1063.0524
  12243011.30546   9511447.73945  23482969.8514   23482975.5344
     -4853.1564      -3781.6804
   4728057.59647   3677485.55647  21800988.1474   21800991.5694
     -2270.5004      -1769.2214
  -3995114.03846  -3079374.17846  23173693.7024   23173698.4724
       445.0784        346.8144
   7490649.25045   5815519.40844  24895183.2884   24895189.9334
     -3412.0314      -2658.7264
   1239466.95747    973124.33646  21656816.4054   21656819.1594
     -1444.0944      -1125.2684
   7008208.35646   5456210.27445  23751297.8904   23751301.8624
     -3556.3914      -2771.2134
 98  7  8 21 11 15.0030000  0  7G 3G 6G17G21G22G23G26
  -5475471.32246  -4116111.41445  23984546.3904   23984551.2294
      1357.3134       1057.6464
  12315858.13446   9568211.43545  23496832.7574   23496838.0654
     -4859.8284      -3786.8794
   4762164.11947   3704062.06247  21807478.5774   21807481.9404
     -2277.1254      -1774.3834
  -4001742.33646  -3084539.05746  23172432.4604   23172436.8784
       438.5784        341.7494
   7541884.49445   5855442.91744  24904933.2264   24904939.1794
     -3419.4534      -2664.5094
   1261187.76847    990049.65646  21660949.6634   21660952.6044
     -1452.0784      -1131.4894
   7061631.18146   5497838.45045  23761463.6014   23761467.4094
     -3566.8124      -2779.3344
 98  7  8 21 11 30.0030000  0  7G 3G 6G17G21G22G23G26
  -5495777.11646  -4131934.08045  23980682.4294   23980686.9294
      1350.7034       1052.4964
  12388805.70646   9625053.64045  23510714.1474   23510719.3154
     -4865.9534      -3791.6524
   4796371.96847   3730717.53047  21813988.0694   21813991.4094
     -2283.3284      -1779.2174
  -4008272.53146  -3089627.47746  23171189.6944   23171193.9604
       432.7194        337.1834
   7593233.89045   5895455.36444  24914704.9134   24914711.4524
     -3426.5474      -2670.0374
   1283029.84947   1007069.47046  21665106.0774   21665108.7964
     -1459.6564      -1137.3944
   7115213.01946   5539590.54045  23771659.7654   23771663.9374
     -3576.9064      -2787.2004
 98  7  8 21 11 45.0030000  0  7G 3G 6G17G21G22G23G26
  -5515986.89245  -4147681.90945  23976836.5384   23976840.9684
      1344.1884       1047.4194
  12461844.55546   9681966.97145  23524613.0624   23524618.8274
     -4872.2664      -3796.5714
   4830670.33547   3757443.52947  21820514.6404   21820517.9444
     -2289.5314      -1784.0504
  -4014716.69346  -3094648.86346  23169963.2334   23169967.1364
       426.7974        332.5694
   7644687.63645   5935549.13644  24924496.8824   24924503.2454
     -3433.7344      -2675.6374
   1304984.70547   1024177.15646  21669283.8744   21669286.6754
     -1467.4534      -1143.4704
   7168946.02746   5581460.40445  23781885.3354   23781888.9444
     -3587.2504      -2795.2604
 98  7  8 21 12  0.0030000  0  7G 3G 6G17G21G22G23G26
  -5536099.78045  -4163354.23545  23973009.0304   23973014.2804
      1337.5314       1042.2324
  12534976.38446   9738952.74545  23538529.4374   23538534.6044
     -4878.5944      -3801.5024
   4865061.56447   3784241.88847  21827059.3274   21827062.6444
     -2295.9224      -1789.0304
  -4021070.57846  -3099599.90446  23168753.9684   23168758.4794
       420.3594        327.5534
   7696249.15545   5975726.91144  24934308.4444   24934314.1044
     -3441.0474      -2681.3354
   1327059.06347   1041377.96246  21673484.6404   21673487.5344
     -1475.7344      -1149.9234
   7222833.65746   5623450.76445  23792139.5154   23792143.4764
     -3597.7034      -2803.4054
 98  7  8 21 12 15.0030000  0  7G 3G 6G17G21G22G23G26
  -5556117.49546  -4178952.40445  23969200.0224   23969204.6044
      1331.4534       1037.4964
  12608197.87546   9796008.38045  23552463.1244   23552468.3624
     -4884.3124      -3805.9584
   4899543.01747   3811110.55547  21833620.8274   21833624.0504
     -2301.5784      -1793.4374
  -4027330.46446  -3104477.69746  23167563.0544   23167567.1444
       414.2194        322.7684
   7747912.85245   6015984.28144  24944140.1014   24944146.7334
     -3447.5004      -2686.3644
   1349252.26847   1058671.37946  21677707.8124   21677710.6944
     -1483.3594      -1155.8644
   7276874.34846   5665560.38545  23802423.1164   23802427.4054
     -3607.6874      -2811.1854
 98  7  8 21 12 30.0030000  0  7G 3G 6G17G21G22G23G26
  -5576035.57046  -4194472.93445  23965409.1944   23965413.6834
      1324.6094       1032.1634
  12681514.49446   9853138.16345  23566414.9374   23566420.1284
     -4890.9224      -3811.1084
   4934116.26647   3838050.75247  21840199.8664   21840203.2884
     -2307.9224      -1798.3814
  -4033490.30546  -3109277.54346  23166390.7334   23166395.4094
       407.3914        317.4474
   7799682.20645   6056323.96143  24953990.6084   24953996.3044
     -3454.7974      -2692.0504
   1371566.90247   1076059.41646  21681954.1244   21681956.9254
     -1491.5784      -1162.2694
   7331070.56146   5707791.19345  23812736.3354   23812739.8394
     -3618.1564      -2819.3434
 98  7  8 21 12 45.0030000  0  7G 3G 6G17G21G22G23G26
  -5595856.48946  -4209917.75245  23961637.6554   23961643.2924
      1318.3134       1027.2564
  12754924.27946   9910340.51545  23580383.9914   23580389.4054
     -4896.9224      -3815.7834
   4968779.49347   3865061.05647  21846796.1244   21846799.4644
     -2313.6724      -1802.8614
  -4039553.75546  -3114002.26246  23165236.9054   23165241.2294
       401.2344        312.6504
   7851555.86445   6096744.97344  24963862.0544   24963868.6284
     -3461.6094      -2697.3584
   1393998.00747   1093538.20646  21686222.7494   21686225.6794
     -1499.2034      -1168.2104
   7385416.97646   5750139.05145  23823078.2494   23823082.2804
     -3627.9064      -2826.9404
 98  7  8 21 13  0.0030000  0  7G 3G 6G17G21G22G23G26
  -5615582.30946  -4225288.48845  23957883.8044   23957888.6324
      1311.6414       1022.0584
  12828424.54646   9967613.40745  23594371.2334   23594376.4134
     -4903.2814      -3820.7394
   5003527.31447   3892137.27947  21853408.4054   21853411.6634
     -2319.5004      -1807.4034
  -4045524.89746  -3118655.07046  23164100.5854   23164105.1444
       394.7344        307.5854
   7903532.97645   6137246.53843  24973753.1634   24973758.7184
     -3468.7814      -2702.9464
   1416546.31547   1111108.32646  21690513.4994   21690516.3584
     -1507.3914      -1174.5904
   7439911.47046   5792602.28545  23833448.1084   23833451.5194
     -3638.1874      -2834.9514
 98  7  8 21 13 15.0030000  0  7G 3G 6G17G21G22G23G26
  -5635210.01846  -4240582.75645  23954149.0854   23954153.8904
      1305.7344       1017.4554
  12902018.55546  10024959.30545  23608375.7884   23608381.1904
     -4908.8914      -3825.1104
   5038359.72547   3919279.41647  21860036.6554   21860040.1124
     -2324.4534      -1811.2624
  -4051398.71946  -3123232.02046  23162983.1164   23162987.2884
       388.7344        302.9104
   7955614.20245   6177829.27244  24983663.6084   24983669.6794
     -3475.0164      -2707.8044
   1439215.28147   1128772.46046  21694827.2884   21694830.2184
     -1514.7504      -1180.3254
   7494557.71446   5835183.76345  23843847.0624   23843850.6834
     -3647.6414      -2842.3174
 98  7  8 21 13 30.0030000  0  7G 3G 6G17G21G22G23G26
  -5654740.86446  -4255801.55345  23950432.3124   23950436.9054
      1298.3284       1011.6844
  12975704.88846  10082377.16545  23622398.0854   23622403.5114
     -4916.0314      -3830.6744
   5073274.95647   3946486.08947  21866681.2024   21866684.6124
     -2331.0314      -1816.3884
  -4057173.35946  -3127731.71946  23161883.9294   23161888.1594
       381.1884        297.0294
   8007795.98445   6218490.36444  24993594.3904   24993601.5774
     -3482.6094      -2713.7224
   1462001.20947   1146527.73846  21699163.1944   21699166.1014
     -1523.4694      -1187.1194
   7549354.55046   5877882.59545  23854274.5464   23854278.4954
     -3658.6724      -2850.9134
 98  7  8 21 13 45.0030000  0  7G 3G 6G17G21G22G23G26
  -5674173.04746  -4270943.46845  23946734.2104   23946739.1794
      1292.4534       1007.1064
  13049487.45046  10139869.99845  23636437.9764   23636443.0974
     -4921.8594      -3835.2154
   5108278.25547   3973761.38347  21873341.9604   21873345.2654
     -2336.2504      -1820.4554
  -4062847.88046  -3132153.37846  23160804.1084   23160808.4444
       375.2034        292.3664
   8060078.70045   6259230.07944  25003543.4684   25003549.9834
     -3488.5624      -2718.3604
   1484906.96547   1164376.39046  21703522.0464   21703524.8124
     -1530.8444      -1192.8654
   7604305.55546   5920701.54945  23864731.3044   23864735.0544
     -3668.2974      -2858.4134
 98  7  8 21 14  0.0030000  0  7G 3G 6G17G21G22G23G26
  -5693508.63246  -4286010.10345  23943055.1794   23943059.5734
      1285.4844       1001.6764
  13123365.21546  10197437.03045  23650496.7574   23650502.1014
     -4928.5784      -3840.4504
   5143367.75947   4001103.85347  21880019.1634   21880022.6444
     -2342.4534      -1825.2884
  -4068423.89246  -3136498.28946  23159742.5074   23159746.9954
       368.1884        286.8994
   8112456.92045   6300044.20444  25013510.7024   25013516.1164
     -3495.2814      -2723.5964
   1507930.01347   1182316.43646  21707903.4214   21707906.3974
     -1539.0004      -1199.2214
   7659407.60146   5963638.19245  23875216.8274   23875221.1514
     -3678.7664      -2866.5714
 98  7  8 21 14 15.0030000  0  7G 3G 6G17G21G22G23G26
  -5712742.42746  -4300997.44045  23939394.8124   23939398.9374
      1278.9064        996.5504
  13197340.60546  10255080.11645  23664573.6634   23664579.1714
     -4934.9534      -3845.4184
   5178547.15847   4028516.37447  21886713.5854   21886717.0774
     -2348.2814      -1829.8304
  -4073898.56346  -3140764.22046  23158701.1554   23158706.0424
       361.6884        281.8344
   8164932.31745   6340934.06643  25023496.1554   25023501.9794
     -3501.5004      -2728.4424
   1531070.16947   1200347.73446  21712306.5544   21712309.6124
     -1546.3444      -1204.9434
   7714662.59746   6006694.04545  23885731.6324   23885734.9014
     -3688.6724      -2874.2904
 98  7  8 21 14 30.0030000  0  7G 3G 6G17G21G22G23G26
  -5731877.08446  -4315907.53245  23935753.4834   23935757.9954
      1272.6564        991.6804
  13271413.23746  10312798.98345  23678669.3824   23678675.0894
     -4941.0784      -3850.1914
   5213815.66047   4055998.32547  21893424.9834   21893428.2884
     -2353.9374      -1834.2374
  -4079276.79046  -3144955.01946  23157677.7654   23157682.0424
       355.7194        277.1834
   8217501.03045   6381896.64443  25033500.1944   25033505.5854
     -3507.4694      -2733.0934
   1554319.06347   1218463.76946  21716730.5624   21716733.4214
     -1553.2034      -1210.2884
   7770066.39546   6049865.83045  23896274.5384   23896277.6554
     -3698.2504      -2881.7534
 98  7  8 21 14 45.0030000  0  7G 3G 6G17G21G22G23G26
  -5750913.08646  -4330740.72645  23932131.3434   23932136.3704
      1265.8134        986.3474
  13345580.70946  10370591.77345  23692783.0854   23692788.8274
     -4947.5944      -3855.2684
   5249174.79147   4083550.88947  21900153.4764   21900156.9334
     -2360.2974      -1839.1924
  -4084563.02746  -3149074.11846  23156671.7804   23156676.0344
       349.4064        272.2654
   8270165.21445   6422933.61944  25043521.4684   25043528.1834
     -3514.1254      -2738.2794
   1577675.46547   1236663.57046  21721175.3044   21721178.3394
     -1560.6564      -1216.0964
   7825618.97846   6093153.56045  23906846.1324   23906849.5774
     -3708.5164      -2889.7524
 98  7  8 21 15  0.0030000  0  7G 3G 6G17G21G22G23G26
  -5769846.16246  -4345493.74045  23928528.1944   23928532.7764
      1258.8594        980.9294
  13419846.60046  10428461.21745  23706915.5934   23706920.5624
     -4954.2344      -3860.4424
   5284628.84247   4111177.42047  21906900.2264   21906903.4254
     -2366.5944      -1844.0994
  -4089752.80846  -3153118.07146  23155684.0154   23155688.1164
       342.8594        267.1634
   8322929.00044   6464048.21443  25053562.2494   25053568.4134
     -3520.7814      -2743.4664
   1601144.65347   1254951.26246  21725641.3124   21725644.2884
     -1568.3284      -1222.0744
   7881327.23146   6136562.58145  23917446.4764   23917449.9564
     -3718.9694      -2897.8984
 98  7  8 21 15 15.0030000  0  7G 3G 6G17G21G22G23G26
  -5788672.69546  -4360163.71845  23924945.5074   23924949.9374
      1251.2814        975.0244
  13494211.92846  10486408.15745  23721066.8824   23721072.4724
     -4961.2034      -3865.8734
   5320177.65547   4138877.79447  21913664.9134   21913668.2534
     -2373.3124      -1849.3344
  -4094843.97146  -3157085.17046  23154715.3664   23154719.8194
       335.9224        261.7574
   8375792.09345   6505240.18044  25063621.3974   25063626.9644
     -3527.7504      -2748.8964
   1624730.19447   1273329.62046  21730129.7334   21730132.5224
     -1576.4534      -1228.4054
   7937192.58046   6180094.01345  23928077.6084   23928081.0774
     -3729.7194      -2906.2744
 98  7  8 21 15 30.0030000  0  7G 3G 6G17G21G22G23G26
  -5807393.18346  -4374751.08045  23921383.2184   23921387.5544
      1244.7814        969.9594
  13568673.74046  10544430.28545  23735236.2654   23735241.6554
     -4967.0624      -3870.4384
   5355819.67547   4166650.79747  21920447.5154   21920450.8434
     -2378.9374      -1853.7184
  -4099840.76046  -3160978.73246  23153764.5304   23153768.5154
       330.3914        257.4474
   8428752.36945   6546507.83044  25073699.8044   25073706.4014
     -3533.6414      -2753.4864
   1648428.58147   1291795.90346  21734639.3514   21734642.0814
     -1583.2974      -1233.7384
   7993209.22646   6223743.35345  23938737.3274   23938740.9134
     -3739.1564      -2913.6284
 98  7  8 21 15 45.0030000  0  7G 3G 6G17G21G22G23G26
  -5826007.06346  -4389255.34545  23917841.0074   23917845.1674
      1237.2344        964.0794
  13643233.57646  10602528.78745  23749425.0694   23749430.2724
     -4974.1254      -3875.9424
   5391554.31247   4194495.96947  21927247.6874   21927251.1444
     -2385.5314      -1858.8564
  -4104747.93946  -3164802.46846  23152830.6794   23152835.3664
       324.0474        252.5044
   8481809.95644   6587851.32744  25083795.8354   25083801.8584
     -3540.5784      -2758.8924
   1672238.34247   1310348.97646  21739169.9604   21739172.6904
     -1591.2664      -1239.9474
   8049376.58446   6267510.11645  23949425.9834   23949428.9954
     -3749.6724      -2921.8224
 98  7  8 21 16  0.0030000  0  7G 3G 6G17G21G22G23G26
  -5844517.32946  -4403678.89445  23914318.7024   23914322.6634
      1230.3444        958.7094
  13717891.16446  10660703.45645  23763631.9134   23763637.8544
     -4980.5944      -3880.9824
   5427379.52047   4222411.71547  21934065.0224   21934068.5384
     -2391.5624      -1863.5554
  -4109568.11246  -3168558.40646  23151913.3194   23151917.5624
       318.1564        247.9144
   8534963.97444   6629270.01443  25093911.0224   25093917.9764
     -3547.0314      -2763.9204
   1696161.23447   1328990.20146  21743722.6944   21743725.4834
     -1598.8914      -1245.8894
   8105693.75846   6311393.63645  23960142.5854   23960145.4794
     -3759.7194      -2929.6514
 98  7  8 21 16 15.0030000  0  7G 3G 6G17G21G22G23G26
  -5862923.38746  -4418021.22945  23910816.6014   23910820.8314
      1224.1094        953.8514
  13792644.50146  10718952.74545  23777856.9374   23777862.4334
     -4986.2344      -3885.3774
   5463294.74947   4250397.60347  21940899.2264   21940902.7064
     -2396.8444      -1867.6704
  -4114298.72446  -3172244.56246  23151013.1244   23151017.3904
       312.8914        243.8114
   8588215.61145   6670764.70043  25104045.0624   25104051.2264
     -3552.9694      -2768.5474
   1720198.42847   1347720.49546  21748296.3664   21748299.0974
     -1605.8284      -1251.2954
   8162161.91546   6355394.79445  23970888.0154   23970891.0034
     -3769.0784      -2936.9444
 98  7  8 21 16 30.0030000  0  7G 3G 6G17G21G22G23G26
  -5881231.85046  -4432287.52345  23907332.1404   23907336.1474
      1217.4844        948.6894
  13867486.40846  10777271.04445  23792098.8824   23792103.6874
     -4992.1874      -3890.0164
   5499294.47147   4278449.33147  21947749.7414   21947753.1984
     -2402.6724      -1872.2124
  -4118945.33446  -3175865.25446  23150128.9914   23150133.5034
       307.1254        239.3184
   8641562.28545   6712333.50244  25114196.8824   25114204.2924
     -3559.4534      -2773.6004
   1744344.30147   1366535.47046  21752891.1404   21752893.8354
     -1613.2034      -1257.0414
   8218774.21746   6399508.27245  23981660.6014   23981663.7294
     -3778.7974      -2944.5174
 98  7  8 21 16 45.0030000  0  7G 3G 6G17G21G22G23G26
  -5899441.83846  -4446477.09045  23903867.0384   23903871.5734
      1210.5944        943.3204
  13942415.43846  10835657.23045  23806357.4764   23806362.8664
     -4998.2034      -3894.7044
   5535378.81047   4306566.99747  21954616.2654   21954619.5464
     -2408.4064      -1876.6804
  -4123507.43846  -3179420.10246  23149260.5304   23149265.2534
       301.2664        234.7524
   8695003.45845   6753975.89043  25124366.0224   25124372.5974
     -3565.9224      -2778.6404
   1768601.91047   1385437.51346  21757507.4914   21757510.4094
     -1621.0004      -1263.1174
   8275530.87846   6443734.23645  23992461.4294   23992464.8044
     -3788.6254      -2952.1754
 98  7  8 21 17  0.0030000  0  7G 3G 6G17G21G22G23G26
  -5917547.51146  -4460585.35445  23900421.7334   23900426.5264
      1203.6254        937.8904
  14017434.79546  10894113.80845  23820633.3194   23820639.1084
     -5004.2814      -3899.4404
   5571547.37747   4334750.29847  21961498.9134   21961502.3124
     -2413.8914      -1880.9544
  -4127980.50046  -3182905.56346  23148409.5854   23148413.7454
       295.2814        230.0894
   8748540.39845   6795692.95043  25134553.7574   25134560.6754
     -3572.1094      -2783.4624
   1792977.67547   1404431.62546  21762145.9374   21762148.8084
     -1628.8914      -1269.2654
   8332434.34846   6488074.60145  24003289.5544   24003293.7494
     -3798.2814      -2959.7004
 98  7  8 21 17 15.0030000  0  7G 3G 6G17G21G22G23G26
  -5935544.71546  -4474609.11145  23896996.9684   23897001.3974
      1196.5004        932.3384
  14092549.03046  10952644.30445  23834926.5304   23834932.2024
     -5010.4374      -3904.2374
   5607800.29747   4362999.32747  21968397.8194   21968401.1014
     -2419.3594      -1885.2154
  -4132360.98246  -3186318.89546  23147575.8664   23147580.2494
       289.3284        225.4504
   8802171.61045   6837483.44344  25144759.3664   25144767.7374
     -3578.1724      -2788.1864
   1817473.35947   1423519.18246  21766807.2724   21766810.0624
     -1636.7034      -1275.3534
   8389483.40446   6532528.39545  24014145.8744   24014149.5544
     -3807.7504      -2967.0784
 98  7  8 21 17 30.0030000  0  7G 3G 6G17G21G22G23G26
  -5953431.89646  -4488547.14045  23893593.0934   23893597.8274
      1188.5634        926.1534
  14167759.32946  11011249.64845  23849239.2804   23849244.7764
     -5017.5784      -3909.8014
   5644138.67747   4391314.94347  21975312.7264   21975316.1944
     -2425.6874      -1890.1464
  -4136650.49146  -3189661.32146  23146759.7104   23146763.8124
       282.6884        220.2764
   8855896.47445   6879346.88944  25154983.1634   25154990.9014
     -3585.0784      -2793.5674
   1842088.35747   1442699.71046  21771491.3434   21771494.3434
     -1645.1724      -1281.9524
   8446677.95546   6577095.57045  24025029.6084   24025033.3584
     -3818.0624      -2975.1144
 98  7  8 21 17 45.0030000  0  7G 3G 6G17G21G22G23G26
  -5971216.09246  -4502404.89745  23890208.5624   23890212.9914
      1182.1564        921.1614
  14243062.97445  11069927.74445  23863569.1794   23863575.3194
     -5023.4064      -3914.3434
   5680557.96147   4419693.60547  21982243.0304   21982246.4174
     -2430.7194      -1894.0674
  -4140854.46046  -3192937.11546  23145959.6014   23145963.7614
       277.2974        216.0754
   8909709.20245   6921278.82444  25165223.0934   25165230.9834
     -3590.4224      -2797.7314
   1866812.96747   1461965.65546  21776196.2884   21776199.0074
     -1651.9844      -1287.2614
   8504012.98646   6621772.21945  24035940.0934   24035943.5734
     -3827.1564      -2982.2004
 98  7  8 21 18  0.0030000  0  7G 3G 6G17G21G22G23G26
  -5988895.35346  -4516180.91145  23886844.5304   23886849.4174
      1174.8594        915.4754
  14318461.65045  11128679.88345  23877917.0154   23877922.3584
     -5029.9064      -3919.4074
   5717060.82647   4448137.39447  21989189.3434   21989192.6124
     -2436.5474      -1898.6084
  -4144967.60846  -3196142.11546  23145177.0624   23145181.2804
       270.8754        211.0714
   8963610.11745   6963279.46044  25175480.7104   25175487.0974
     -3596.5784      -2802.5284
   1891650.53847   1481319.61546  21780922.8044   21780925.8154
     -1659.9224      -1293.4464
   8561492.23246   6666561.22045  24046877.7184   24046881.2804
     -3836.9224      -2989.8094
 98  7  8 21 18 15.0030000  0  7G 3G 6G17G21G22G23G26
  -6006463.67846  -4529870.48345  23883500.8274   23883505.5504
      1167.6414        909.8504
  14393955.70645  11187506.34445  23892283.0464   23892288.9404
     -5035.7974      -3923.9984
   5753650.86747   4476649.11347  21996152.3974   21996155.6904
     -2441.9844      -1902.8454
  -4148983.84746  -3199271.62146  23144412.4994   23144416.6594
       264.7034        206.2624
   9017603.29145   7005352.02644  25185755.1474   25185761.8624
     -3602.3594      -2807.0334
   1916605.99747   1500765.43946  21785671.3664   21785674.3544
     -1667.3124      -1299.2054
   8619115.53446   6711462.49045  24057842.5934   24057846.3544
     -3846.0004      -2996.8834
 98  7  8 21 18 30.0030000  0  7G 3G 6G17G21G22G23G26
  -6023920.50446  -4543473.17245  23880179.2804   23880184.4134
      1160.1724        904.0304
  14469539.36345  11246402.61545  23906666.2574   23906671.8124
     -5041.7974      -3928.6734
   5790324.39147   4505225.87747  22003130.9914   22003134.2494
     -2447.5944      -1907.2164
  -4152904.70846  -3202326.79446  23143666.4604   23143670.9604
       258.3754        201.3314
   9071685.36045   7047493.79844  25196046.5854   25196053.4444
     -3608.3444      -2811.6964
   1941673.87447   1520298.86146  21790441.5074   21790444.2844
     -1674.8284      -1305.0614
   8676876.31846   6756470.87045  24068834.8824   24068839.0304
     -3855.1874      -3004.0424
 98  7  8 21 18 45.0030000  0  7G 3G 6G17G21G22G23G26
  -6041268.42146  -4556990.98145  23876877.7884   23876882.2764
      1153.0314        898.4664
  14545210.20145  11305366.84145  23921065.8044   23921070.8434
     -5047.5474      -3933.1534
   5827078.52947   4533865.46347  22010125.3434   22010128.4834
     -2452.7814      -1911.2584
  -4156735.37846  -3205311.70646  23142937.2804   23142941.6404
       252.5784        196.8144
   9125850.81445   7089700.59344  25206354.1014   25206360.1594
     -3613.5944      -2815.7874
   1966850.33847   1539916.89246  21795232.7264   21795235.5974
     -1681.9374      -1310.6014
   8734772.11946   6801584.46945  24079851.8434   24079855.8974
     -3864.1564      -3011.0314
 98  7  8 21 19  0.0030000  0  7G 3G 6G17G21G22G23G26
  -6058505.22246  -4570422.21145  23873597.8274   23873601.9764
      1144.8284        892.0744
  14620971.79946  11364401.76845  23935483.1634   23935489.1284
     -5054.3284      -3938.4374
   5863913.18847   4562567.79147  22017134.7104   22017138.0154
     -2458.8754      -1916.0064
  -4160476.49746  -3208226.82046  23142225.4834   23142229.8434
       245.8444        191.5674
   9180098.95445   7131971.80744  25216677.0154   25216684.2024
     -3619.9374      -2820.7314
   1992137.81347   1559621.42746  21800044.9134   21800047.7144
     -1690.0314      -1316.9074
   8792807.20246   6846806.61045  24090895.6634   24090899.4484
     -3874.2194      -3018.8724
 98  7  8 21 19 15.0030000  0  7G 3G 6G17G21G22G23G26
  -6075629.53046  -4583765.80145  23870339.1084   23870343.6204
      1138.1564        886.8754
  14696825.13745  11423508.18045  23949917.0464   23949922.1324
     -5059.7194      -3942.6384
   5900831.43547   4591335.25147  22024159.7334   22024162.9914
     -2463.9374      -1919.9514
  -4164125.39446  -3211070.09346  23141530.9054   23141535.0544
       240.3914        187.3174
   9234435.27245   7174311.70244  25227016.7494   25227023.0074
     -3625.2344      -2824.8584
   2017536.16047   1579412.35746  21804877.7654   21804880.4834
     -1696.6724      -1322.0824
   8850984.28746   6892139.40045  24101966.7654   24101970.7494
     -3883.0624      -3025.7634
 98  7  8 21 19 30.0030000  0  8G 3G 6G 1G17G21G22G23G26
  -6092654.08446  -4597031.64145  23867099.5384   23867104.0034
      1131.7194        881.8594
  14772759.13946  11482677.45445  23964367.0224   23964372.5894
     -5064.9064      -3946.6804
    -22092.75055                  25742036.9764
      2008.2034
   5937829.61147   4620164.99747  22031200.3044   22031203.5034
     -2469.2664      -1924.1034
  -4167691.12246  -3213848.53646  23140852.3514   23140856.6634
       234.9064        183.0444
   9288853.42345   7216715.39644  25237373.0934   25237379.5264
     -3630.6414      -2829.0714
   2043034.71847   1599281.37446  21809730.1474   21809732.8784
     -1703.2664      -1327.2204
   8909296.06446   6937577.13245  24113062.7724   24113067.5894
     -3891.9694      -3032.7034
 98  7  8 21 19 45.0030000  0  8G 3G 6G 1G17G21G22G23G26
  -6109581.63546  -4610221.90745  23863878.0464   23863882.4054
      1125.2034        876.7824
  14848771.09946  11541907.48045  23978832.0544   23978837.7264
     -5070.0944      -3950.7224
    -52209.96344                  25736305.5074
      2007.2974
   5974908.91447   4649057.95447  22038256.4054   22038259.7574
     -2474.7814      -1928.4014
  -4171172.84446  -3216561.54246  23140189.8744   23140193.9764
       229.2194        178.6124
   9343354.75845   7259183.93544  25247743.7104   25247750.9444
     -3636.3444      -2833.5154
   2068633.60147   1619228.56046  21814601.4764   21814604.3234
     -1710.0164      -1332.4804
   8967742.18746   6983119.54745  24124185.0544   24124188.8974
     -3900.9224      -3039.6794
 98  7  8 21 20  0.0040000  0  8G 3G 6G 1G17G21G22G23G26
  -6126406.44146  -4623332.10745  23860676.5044   23860681.2624
      1117.8444        871.0474
  14924870.51646  11601205.63845  23993313.1684   23993318.5234
     -5075.8914      -3955.2394
    -82308.90844                  25730577.1454
      2005.5164
   6012080.61247   4678022.90747  22045330.0204   22045333.3954
     -2481.1254      -1933.3444
  -4174562.38546  -3219202.70146  23139544.9734   23139549.2734
       222.5784        173.4384
   9397951.37345   7301726.66644  25258133.1294   25258138.6844
     -3642.8444      -2838.5804
   2094342.53247   1639261.50746  21819493.6214   21819496.3754
     -1717.7504      -1338.5064
   9026332.60446   7028774.41045  24135334.3484   24135337.4534
     -3910.6874      -3047.2894
 98  7  8 21 20 15.0040000  0  8G 3G 6G 1G17G21G22G23G26
  -6143128.57146  -4636362.30345  23857494.2464   23857498.4304
      1111.4064        866.0314
  15001042.53246  11660560.37245  24007808.5744   24007814.1174
     -5080.7814      -3959.0504
   -112387.65844                  25724853.7384
      2004.6094
   6049334.27847   4707051.73847  22052419.0434   22052422.3714
     -2486.4694      -1937.5084
  -4177860.61446  -3221772.72546  23138917.3794   23138921.1054
       216.7974        168.9334
   9452634.20245   7344336.57744  25268538.6214   25268544.3984
     -3648.5944      -2843.0604
   2120157.21347   1659376.85146  21824405.8404   21824408.5944
     -1724.5004      -1343.7664
   9085054.12746   7074531.43245  24146508.9734   24146512.6994
     -3919.2814      -3053.9854
 98  7  8 21 20 30.0040000  0  8G 3G 6G 1G17G21G22G23G26
  -6159745.45446  -4649310.49145  23854332.2464   23854336.7464
      1105.3284        861.2954
  15077299.24546  11719981.11445  24022319.8484   24022325.8014
     -5085.6874      -3962.8734
   -142445.05244                  25719133.9574
      2004.2034
   6086679.77347   4736152.12047  22059525.5434   22059529.1524
     -2491.8284      -1941.6844
  -4181062.76346  -3224267.86146  23138308.0664   23138312.0744
       211.2504        164.6104
   9507412.92745   7387021.24944  25278963.3094   25278969.8364
     -3654.0944      -2847.3464
   2146080.43747   1679576.77446  21829339.1374   21829341.8444
     -1730.8594      -1348.7224
   9143916.89346   7120398.52845  24157710.3404   24157713.4454
     -3928.0624      -3060.8284
 98  7  8 21 20 45.0040000  0  8G 3G 6G 1G17G21G22G23G26
  -6176270.47146  -4662187.08245  23851187.5514   23851191.9924
      1098.8284        856.2304
  15153634.09746  11779462.74145  24036845.7304   24036851.6844
     -5091.4844      -3967.3904
   -172493.81843    -14045.37951  25713415.1994   25713423.1024
      2003.1884       1560.9254
   6124109.05847   4765317.79347  22066648.0124   22066651.7504
     -2497.9224      -1946.4334
  -4184180.48846  -3226697.22946  23137714.4964   23137718.3284
       205.3134        159.9844
   9562276.74445   7429772.20644  25289403.3094   25289409.5664
     -3660.2344      -2852.1314
   2172102.97447   1699854.08646  21834291.0274   21834293.7234
     -1738.0004      -1354.2864
   9202916.65346   7166372.37145  24168937.1524   24168940.6454
     -3937.7344      -3068.3644
 98  7  8 21 21  0.0040000  0  8G 3G 6G 1G17G21G22G23G26
  -6192705.88146  -4674993.87045  23848060.0664   23848064.2734
      1093.0474        851.7254
  15230048.57246  11839006.39345  24051386.9654   24051392.8014
     -5096.5944      -3971.3724
   -202534.78343    -37453.74842  25707698.5514   25707707.6024
      2002.7504       1560.5844
   6161621.59047   4794548.33446  22073786.3794   22073789.9064
     -2503.2974      -1950.6214
  -4187216.35546  -3229062.80246  23137136.9264   23137140.8984
       199.9224        155.7834
   9617225.42245   7472589.30644  25299860.0204   25299866.7704
     -3665.8594      -2856.5144
   2198224.55947   1720208.57946  21839261.7934   21839264.4884
     -1744.4224      -1359.2904
   9262052.48946   7212452.22745  24180190.4654   24180193.8054
     -3946.5474      -3075.2314
 98  7  8 21 21 15.0040000  0  8G 3G 6G 1G17G21G22G23G26
  -6209048.39246  -4687728.25845  23844950.1054   23844954.3834
      1085.8914        846.1494
  15306544.56846  11898613.58445  24065943.5984   24065949.5044
     -5102.9534      -3976.3274
   -232561.62743    -60851.01641  25701985.0744   25701995.5434
      2000.7814       1559.0504
   6199222.30447   4823847.58847  22080941.8094   22080945.3594
     -2510.2344      -1956.0274
  -4190163.51946  -3231359.25846  23136575.8404   23136579.6724
       192.9064        150.3174
   9672266.32245   7515478.22944  25310333.9964   25310340.7114
     -3672.9844      -2862.0664
   2224448.44247   1740642.78246  21844251.9654   21844254.6604
     -1752.1874      -1365.3414
   9321324.50846   7258638.19945  24191469.5514   24191473.5234
     -3956.4534      -3082.9504
 98  7  8 21 21 30.0040000  0  8G 3G 6G 1G17G21G22G23G26
  -6225298.96146  -4700390.99245  23841857.6764   23841861.8594
      1080.5314        841.9724
  15383121.17446  11958283.58845  24080515.7854   24080521.0704
     -5107.5314      -3979.8944
   -262574.10942    -84237.25541  25696272.6994   25696279.9804
      2000.6414       1558.9414
   6236914.07747   4853217.79647  22088114.2154   22088117.5784
     -2515.6094      -1960.2154
  -4193020.64246  -3233585.55946  23136032.2464   23136036.3714
       187.7664        146.3114
   9727399.12245   7558438.78544  25320825.6294   25320832.0744
     -3678.2664      -2866.1814
   2250775.35447   1761157.26746  21849261.7624   21849264.5044
     -1758.3594      -1370.1504
   9380730.58746   7304928.66145  24202774.0514   24202777.3554
     -3964.5944      -3089.2944
 98  7  8 21 21 45.0040000  0  8G 3G 6G 1G17G21G22G23G26
  -6241458.37046  -4712982.71445  23838782.8324   23838787.3094
      1073.8444        836.7614
  15459775.94845  12018014.49845  24095102.4264   24095108.2034
     -5113.3124      -3984.3994
   -292575.45042   -107614.80241  25690564.1454   25690576.2304
      1999.4064       1557.9794
   6274692.75747   4882655.72447  22095303.2304   22095306.5354
     -2521.6874      -1964.9514
  -4195791.33646  -3235744.51046  23135505.0664   23135508.9104
       181.4844        141.4164
   9782618.04045   7601466.43944  25331333.4024   25331339.4264
     -3684.4534      -2871.0024
   2277203.84947   1781750.91146  21854290.8714   21854293.4964
     -1765.6564      -1375.8364
   9440267.25746   7351320.85745  24214103.8164   24214107.2154
     -3973.7814      -3096.4534
 98  7  8 21 22  0.0040000  0  8G 3G 6G 1G17G21G22G23G26
  -6257522.18446  -4725499.93445  23835725.6214   23835730.3914
      1068.0474        832.2444
  15536510.92845  12077807.90845  24109705.0744   24109710.9104
     -5117.9844      -3988.0404
   -322564.38343   -130982.55641  25684857.6914   25684867.8554
      1999.0944       1557.7354
   6312553.57847   4912157.65946  22102508.0124   22102511.3874
     -2526.3754      -1968.6044
  -4198475.23746  -3237835.82846  23134994.1764   23134998.4414
       176.4064        137.4594
   9837922.41345   7644560.68144  25341857.4494   25341863.6374
     -3689.3914      -2874.8504
   2303734.52347   1802424.17246  21859339.4024   21859342.2034
     -1771.6874      -1380.5364
   9499934.15546   7397814.54945  24225457.9884   24225461.8674
     -3981.7974      -3102.6994
 98  7  8 21 22 15.0040000  0  8G 3G 6G 1G17G21G22G23G26
  -6273491.10746  -4737943.20845  23832686.8094   23832690.8054
      1061.6254        827.2404
  15613325.47445  12137663.32645  24124322.6374   24124328.6024
     -5123.4534      -3992.3014
   -352538.71142   -154339.01842  25679152.5904   25679162.3674
      1997.9694       1556.8594
   6350493.08947   4941720.91747  22109727.8244   22109731.1414
     -2531.7194      -1972.7684
  -4201073.62946  -3239860.51246  23134499.7624   23134503.7234
       170.5474        132.8944
   9893306.82845   7687717.29244  25352396.6524   25352403.9574
     -3694.7194      -2879.0024
   2330362.80847   1823173.50046  21864406.8634   21864409.5124
     -1778.2504      -1385.6494
   9559730.75846   7444409.30045  24236836.6764   24236840.1804
     -3990.6094      -3109.5664
 98  7  8 21 22 30.0040000  0  8G 3G 6G 1G17G21G22G23G26
  -6289363.53046  -4750311.31145  23829666.4184   23829670.4734
      1054.7974        821.9204
  15690221.32445  12197582.07445  24138955.2384   24138961.0744
     -5129.1874      -3996.7694
   -382494.89842   -177681.31842  25673450.9264   25673461.1374
      1996.2814       1555.5444
   6388513.12847   4971346.91447  22116962.5274   22116965.7154
     -2537.5784      -1977.3344
  -4203585.35946  -3241817.67246  23134021.7464   23134025.9884
       164.4844        128.1704
   9948771.18245   7730936.19444  25362950.9884   25362957.0824
     -3700.3914      -2883.4214
   2357089.60047   1843999.57846  21869492.7624   21869495.2934
     -1785.2504      -1391.1044
   9619660.93646   7491108.13445  24248240.9184   24248244.4924
     -4000.0314      -3116.9074
 98  7  8 21 22 45.0040000  0  8G 3G 6G 1G17G21G22G23G26
  -6305136.80846  -4762602.14445  23826665.0124   23826668.5044
      1048.3754        816.9164
  15767197.48145  12257563.42045  24153603.6524   24153609.2544
     -5134.1414      -4000.6294
   -412430.08143   -201007.26541  25667757.3014   25667765.0274
      1995.1094       1554.6314
   6426616.99747   5001038.23846  22124213.5124   22124216.8754
     -2542.8124      -1981.4124
  -4206010.82347  -3243707.60846  23133560.3014   23133564.0164
       159.0314        123.9204
  10004315.57345   7774217.47843  25373521.4264   25373528.8124
     -3705.3754      -2887.3054
   2383919.25747   1864905.81246  21874598.2624   21874601.1804
     -1791.9534      -1396.3274
   9679729.45746   7537914.77345  24259671.5204   24259675.4804
     -4008.9224      -3123.8354
 98  7  8 21 23  0.0040000  0  8G 3G 6G 1G17G21G22G23G26
  -6320810.60046  -4774815.45645  23823682.4734   23823686.4104
      1041.0634        811.2184
  15844247.36745  12317602.19945  24168265.2234   24168270.5314
     -5139.4844      -4004.7934
   -442343.88943   -224316.58342  25662063.1054   25662072.4024
      1993.0314       1553.0114
   6464799.99247   5030791.22046  22131479.6604   22131482.8484
     -2548.5624      -1985.8934
  -4208353.57846  -3245533.09746  23133114.3164   23133118.5004
       152.9694        119.1964
  10059935.69145   7817557.77144  25384105.7234   25384112.2384
     -3710.9374      -2891.6404
   2410851.74547   1885892.18046  21879723.2384   21879726.0274
     -1799.3284      -1402.0744
   9739929.47646   7584823.86245  24271127.5274   24271130.3984
     -4018.0314      -3130.9334
 98  7  8 21 23 15.0040000  0  8G 3G 6G 1G17G21G22G23G26
  -6336376.60846  -4786944.77545  23820720.1134   23820724.1094
      1034.5164        806.1164
  15921372.02845  12377699.26945  24182941.9494   24182947.9264
     -5143.7034      -4008.0804
   -472229.72643   -247604.04842  25656376.7704   25656385.2234
      1991.7974       1552.0504
   6503065.60247   5060608.57246  22138761.2624   22138764.3914
     -2553.4224      -1989.6794
  -4210606.74646  -3247288.77946  23132685.6214   23132689.3834
       147.5474        114.9724
  10115633.97545   7860958.93544  25394704.7384   25394710.8914
     -3715.3444      -2895.0734
   2437890.31847   1906961.20546  21884868.5354   21884871.2664
     -1805.7194      -1407.0544
   9800262.19346   7631836.37345  24282608.2464   24282612.1604
     -4026.2504      -3137.3384
 98  7  8 21 23 30.0040000  0  8G 3G 6G 1G17G21G22G23G26
  -6351838.00746  -4798992.59145  23817777.8244   23817782.0554
      1027.0474        800.2964
  15998566.84945  12437851.00045  24197631.9804   24197637.9344
     -5148.8444      -4012.0864
   -502090.23343   -270871.75042  25650693.8634   25650704.0624
      1989.7194       1550.4304
   6541410.05247   5090487.36546  22146057.9734   22146061.0554
     -2559.0784      -1994.0874
  -4212772.75146  -3248976.54746  23132273.4104   23132277.6174
       141.2974        110.1014
  10171402.32545   7904414.74144  25405316.8404   25405323.6374
     -3720.4064      -2899.0184
   2465031.79847   1928110.41846  21890033.3954   21890036.0784
     -1813.0784      -1412.7884
   9860724.90446   7678950.14945  24294113.5984   24294117.2424
     -4035.4374      -3144.4974
 98  7  8 21 23 45.0040000  0  8G 3G 6G 1G17G21G22G23G26
  -6367187.80546  -4810953.43345  23814856.7624   23814860.9804
      1019.6414        794.5254
  16075836.39445  12498060.94145  24212335.6294   24212341.0434
     -5153.7034      -4015.8734
   -531922.56844   -294117.61843  25645016.7704   25645026.4534
      1988.0164       1549.1034
   6579835.76547   5120429.47746  22153369.9654   22153373.1414
     -2564.2194      -1998.0934
  -4214846.97946  -3250592.79346  23131878.6764   23131882.5784
       135.2974        105.4264
  10227243.78245   7947927.50744  25415943.4804   25415950.1844
     -3725.0164      -2902.6104
   2492281.50147   1949343.96546  21895218.5434   21895221.0514
     -1820.1094      -1418.2674
   9921324.47145   7726170.58945  24305645.2854   24305649.5514
     -4044.4374      -3151.5104
 98  7  8 21 24  0.0040000  0  8G 3G 6G 1G17G21G22G23G26
  -6382426.28546  -4822827.53845  23811957.0904   23811961.3914
      1012.1094        788.6574
  16153179.73045  12558328.38445  24227053.7074   24227059.6844
     -5158.8284      -4019.8664
   -561729.89843   -317343.94243  25639344.1054   25639352.7584
      1986.2504       1547.7274
   6618336.71547   5150430.21547  22160696.6374   22160700.0704
     -2569.3594      -2002.0984
  -4216829.85546  -3252137.86246  23131501.1994   23131505.2194
       129.0004        100.5194
  10283153.87445   7991493.73644  25426582.3554   25426589.5664
     -3729.7344      -2906.2874
   2519635.68647   1970658.92146  21900424.1684   21900426.8284
     -1827.1874      -1423.7824
   9982058.15045   7773495.53345  24317202.3244   24317206.0864
     -4053.4694      -3158.5474
 98  7  8 21 24 15.0040000  0  8G 3G 6G 1G17G21G22G23G26
  -6397557.98146  -4834618.44345  23809077.7934   23809082.0474
      1005.5784        783.5674
  16230593.95345  12618651.06445  24241785.1134   24241790.8204
     -5162.9844      -4023.1054
   -591516.60544   -340554.16343  25633676.4184   25633685.8444
      1985.3914       1547.0584
   6656912.28047   5180489.09246  22168037.1054   22168040.3874
     -2574.0004      -2005.7144
  -4218725.01247  -3253614.56846  23131140.5514   23131144.2544
       123.8134         96.4774
  10339129.72245   8035111.18244  25437234.5124   25437242.2974
     -3733.5944      -2909.2944
   2547090.62447   1992052.39346  21905648.5824   21905651.2664
     -1833.3754      -1428.6044
  10042922.13245   7820921.99745  24328784.6684   24328789.0514
     -4061.6254      -3164.9034
 98  7  8 21 24 30.0040000  0  8G 3G 6G 1G17G21G22G23G26
  -6412586.15246  -4846328.66645  23806218.0984   23806222.1414
       998.2814        777.8814
  16308077.16345  12679027.53245  24256529.7544   24256535.6844
     -5167.9064      -4026.9404
   -621283.35945   -363748.90743  25628011.9884   25628020.0314
      1983.7034       1545.7434
   6695565.98547   5210608.86246  22175392.7464   22175396.0514
     -2579.5944      -2010.0734
  -4220536.94446  -3255026.42846  23130795.6374   23130799.7154
       117.9694         91.9244
  10395170.94445   8078779.61144  25447898.3324   25447905.5784
     -3738.4374      -2913.0684
   2574646.40547   2013524.44246  21910892.3014   21910895.0784
     -1840.5944      -1434.2294
  10103914.96645   7868448.86745  24340390.8484   24340395.7584
     -4070.5944      -3171.8914
 98  7  8 21 24 45.0040000  0  8G 3G 6G 1G17G21G22G23G26
  -6427501.99246  -4857951.36245  23803379.4574   23803383.3954
       990.7974        772.0504
  16385635.07545  12739462.16945  24271288.8874   24271295.0514
     -5172.8444      -4030.7874
   -651024.03344   -386923.30543  25622352.5744   25622362.2234
      1982.0784       1544.4764
   6734304.13947   5240794.43046  22182764.5204   22182767.9064
     -2585.1724      -2014.4204
  -4222260.69846  -3256369.57046  23130467.6214   23130471.6994
       112.1564         87.3944
  10451287.89845   8122507.06043  25458577.2854   25458584.1914
     -3743.4694      -2916.9894
   2602313.24947   2035083.02946  21916157.1134   21916159.9024
     -1847.9064      -1439.9274
  10165042.35445   7916080.59845  24352023.1374   24352027.4734
     -4079.3284      -3178.6974
 98  7  8 21 25  0.0040000  0  8G 3G 6G 1G17G21G22G23G26
  -6442310.10346  -4869490.11645  23800561.4734   23800565.1414
       983.2974        766.2054
  16463263.40745  12799951.68045  24286060.9414   24286067.0824
     -5177.9374      -4034.7564
   -680746.41145   -410083.44143  25616696.1844   25616706.1024
      1980.5784       1543.3084
   6773120.62847   5271041.04646  22190151.2464   22190154.8324
     -2590.6874      -2018.7184
  -4223902.14946  -3257648.60046  23130155.3954   23130159.2504
       106.3914         82.9024
  10507474.01945   8166288.37643  25469269.4494   25469276.7424
     -3748.3444      -2920.7874
   2630081.73647   2056720.82546  21921441.5594   21921444.2194
     -1854.8444      -1445.3334
  10226293.11546   7963808.44845  24363679.2624   24363683.1174
     -4087.7664      -3185.2724
 98  7  8 21 25 15.0040000  0  8G 3G 6G 1G17G21G22G23G26
  -6457003.94146  -4880939.83045  23797765.2154   23797768.9414
       975.6884        760.2764
  16540972.49345  12860504.13745  24300848.3164   24300854.5044
     -5183.5784      -4039.1524
   -710443.35445   -433223.73644  25611044.7854   25611054.5164
      1978.7814       1541.9074
   6812023.76547   5301355.17746  22197554.1844   22197557.8524
     -2596.6724      -2023.3814
  -4225453.90047  -3258857.71246  23129860.2384   23129864.1174
       100.1884         78.0684
  10563736.90545   8210129.49744  25479976.0904   25479982.3714
     -3753.6724      -2924.9394
   2657956.13947   2078441.15146  21926745.4734   21926748.1914
     -1861.9844      -1450.8974
  10287674.88945   8011638.41145  24375359.6374   24375364.3834
     -4096.7974      -3192.3094
 98  7  8 21 25 30.0040000  0  8G 3G 6G 1G17G21G22G23G26
  -6471595.06046  -4892309.48745  23794988.7854   23794993.0274
       969.6254        755.5524
  16618758.82745  12921116.77045  24315650.7154   24315656.8674
     -5188.1414      -4042.7074
   -740122.85245   -456350.48243  25605396.4574   25605406.2344
      1978.2974       1541.5304
   6851008.70547   5331733.05146  22204972.5124   22204976.2274
     -2601.5314      -2027.1674
  -4226920.69946  -3260000.64346  23129580.6764   23129584.6134
        95.2034         74.1844
  10620072.61345   8254027.40544  25490696.1134   25490702.3714
     -3758.0004      -2928.3124
   2685928.43847   2100237.75746  21932068.6054   21932071.3834
     -1867.8754      -1455.4874
  10349184.86545   8059568.25145  24387064.5824   24387069.0354
     -4104.7504      -3198.5064
 98  7  8 21 25 45.0040000  0  8G 3G 6G 1G17G21G22G23G26
  -6486086.39346  -4903601.40545  23792231.2854   23792235.2234
       962.6884        750.1464
  16696622.73145  12981789.84645  24330467.9734   24330473.6914
     -5193.5474      -4046.9204
   -769788.98145   -479466.79544  25599751.4104   25599758.6334
      1977.3594       1540.8004
   6890075.43647   5362174.65546  22212406.6604   22212410.1644
     -2607.2814      -2031.6484
  -4228306.31047  -3261080.29746  23129317.2774   23129320.9454
        89.7194         69.9114
  10676483.14345   8297983.57343  25501430.7074   25501436.8364
     -3763.2974      -2932.4394
   2713997.00447   2122109.37746  21937409.9414   21937412.7664
     -1874.4224      -1460.5884
  10410821.95745   8107597.12645  24398793.9494   24398798.6724
     -4113.3914      -3205.2394
 98  7  8 21 26  0.0040000  0  8G 3G 6G 1G17G21G22G23G26
  -6500482.39246  -4914819.02345  23789491.3634   23789495.4654
       956.7034        745.4834
  16774560.07645  13042520.15745  24345298.4024   24345304.3324
     -5198.1874      -4050.5364
   -799449.61545   -502578.86444  25594107.2154   25594115.3404
      1977.2344       1540.7024
   6929221.18647   5392677.83746  22219855.8794   22219859.2544
     -2612.3124      -2035.5684
  -4229619.33646  -3262103.40746  23129067.3014   23129071.0864
        85.2344         66.4164
  10732964.16345   8341994.69143  25512178.5904   25512187.0434
     -3767.6874      -2935.8604
   2742154.38647   2144050.20446  21942768.0434   21942770.6804
     -1880.0004      -1464.9354
  10472579.05346   8155719.55645  24410546.4344   24410549.9494
     -4121.0004      -3211.1694
 98  7  8 21 26 15.0040000  0  8G 3G 6G 1G17G21G22G23G26
  -6514782.38846  -4925961.84445  23786770.2854   23786774.6564
       950.0004        740.2604
  16852572.83045  13103309.23345  24360143.9654   24360149.3324
     -5203.4064      -4054.6024
   -829099.18844   -525682.27443  25588464.8794   25588473.0864
      1976.1094       1539.8254
   6968450.87747   5423246.42546  22227321.0354   22227324.3054
     -2618.3124      -2040.2444
  -4230858.90947  -3263069.25746  23128831.4264   23128835.1874
        80.1414         62.4474
  10789520.00745   8386064.10143  25522941.6294   25522949.2154
     -3773.0314      -2940.0244
   2770401.19847   2166060.72046  21948143.1454   21948145.8754
     -1886.1724      -1469.7444
  10534457.20846   8203936.28445  24422320.8634   24422324.6844
     -4129.3444      -3217.6704
 98  7  8 21 26 30.0040000  0  8G 3G 6G 1G17G21G22G23G26
  -6528978.59046  -4937023.78745  23784069.0904   23784072.9344
       943.1254        734.9034
  16930663.72345  13164159.18445  24375004.7544   24375010.0274
     -5208.3754      -4058.4744
   -858729.21544   -548770.45243  25582826.9344   25582835.5044
      1974.8914       1538.8764
   7007773.88247   5453887.72846  22234803.8794   22234807.3364
     -2624.4064      -2044.9924
  -4232020.72546  -3263974.54446  23128610.3554   23128614.0124
        75.0004         58.4424
  10846158.78645   8430198.16043  25533719.3954   25533726.6054
     -3778.4694      -2944.2614
   2798742.74147   2188145.04946  21953536.2384   21953539.0044
     -1892.4064      -1474.6024
  10596462.34546   8252251.98445  24434120.1524   24434123.6454
     -4137.6874      -3224.1724
 98  7  8 21 26 45.0040000  0  8G 3G 6G 1G17G21G22G23G26
  -6543078.99646  -4948011.08245  23781385.8484   23781389.9024
       936.8444        730.0084
  17008821.06545  13225060.91445  24389878.0664   24389883.5744
     -5212.6254      -4061.7864
   -888349.44144   -571851.01343  25577189.7074   25577197.4454
      1974.4694       1538.5474
   7047178.56847   5484592.67746  22242302.2854   22242305.4734
     -2629.5314      -2048.9854
  -4233110.45947  -3264823.64746  23128402.8714   23128406.5394
        70.2344         54.7284
  10902871.08645   8474389.48543  25544510.6914   25544518.3594
     -3783.2034      -2947.9504
   2827170.27447   2210296.38346  21958945.9104   21958948.6764
     -1897.9224      -1478.9004
  10658585.64446   8300659.77145  24445941.7074   24445944.8714
     -4145.4064      -3230.1874
 98  7  8 21 27  0.0040000  0  8G 3G 6G 1G17G21G22G23G26
  -6557083.31246  -4958923.49245  23778721.0514   23778725.3404
       930.0004        724.6754
  17087043.51545  13286013.39345  24404762.8714   24404768.3324
     -5217.5164      -4065.5974
   -917962.29344   -594925.86243  25571554.3244   25571564.2194
      1973.4694       1537.7684
   7086662.48747   5515359.36246  22249816.0984   22249819.2504
     -2635.4224      -2053.5754
  -4234125.82746  -3265614.81646  23128209.3874   23128213.5004
        64.6884         50.4064
  10959656.45645   8518637.78343  25555317.5514   25555323.8794
     -3788.5474      -2952.1144
   2855681.94147   2232513.27446  21964371.5514   21964374.3164
     -1904.0784      -1483.6974
  10720825.97945   8349158.71145  24457785.6844   24457789.6214
     -4153.7664      -3236.7004
 98  7  8 21 27 15.0040000  0  8G 3G 6G 1G17G21G22G23G26
  -6570982.15946  -4969753.74045  23776075.8014   23776079.7154
       923.0314        719.2454
  17165342.90445  13347025.80545  24419662.6914   24419669.0664
     -5222.5314      -4069.5054
   -947555.29344   -617985.15143  25565923.7074   25565933.2154
      1972.0474       1536.6604
   7126238.71447   5546197.97846  22257347.0434   22257350.0314
     -2641.5474      -2058.3484
  -4235054.37546  -3266338.31146  23128033.2154   23128036.7074
        58.9064         45.9014
  11016525.29345   8562951.03143  25566138.8014   25566145.0704
     -3794.1414      -2956.4734
   2884291.53347   2254806.47346  21969815.8484   21969818.6374
     -1910.7664      -1488.9084
  10783197.50445   8397759.89445  24469654.7544   24469658.8794
     -4162.6414      -3243.6164
 98  7  8 21 27 30.0040000  0  8G 3G 6G 1G17G21G22G23G26
  -6584781.35446  -4980506.32945  23773450.0204   23773453.5474
       916.4694        714.1314
  17243711.14745  13408091.87945  24434576.3324   24434581.9224
     -5226.8284      -4072.8534
   -977131.55444   -641031.47043  25560294.4414   25560303.4454
      1971.1094       1535.9294
   7165900.96547   5577103.62346  22264894.8324   22264897.9024
     -2647.0004      -2062.5974
  -4235900.13146  -3266997.31846  23127871.9884   23127875.6214
        53.5474         41.7254
  11073472.76844   8607325.62543  25576975.7544   25576982.3874
     -3799.1414      -2960.3694
   2912996.98647   2277174.37046  21975278.2624   21975280.9694
     -1916.9694      -1493.7424
  10845697.13345   8446460.89445  24481548.0744   24481552.0944
     -4170.9224      -3250.0694
 98  7  8 21 27 45.0040000  0  8G 3G 6G 1G17G21G22G23G26
  -6598469.39846  -4991172.30645  23770845.1374   23770849.5784
       908.4224        707.8614
  17322152.31745  13469214.78745  24449503.0664   24449509.2424
     -5232.0314      -4076.9074
  -1006683.26343   -664058.69443  25554670.6214   25554678.5124
      1969.0164       1534.2984
   7205652.64047   5608078.94946  22272459.3714   22272462.3954
     -2653.3124      -2067.5164
  -4236656.96946  -3267587.02046  23127727.7854   23127731.6174
        47.2974         36.8554
  11130503.74744   8651765.31543  25587828.3874   25587835.3754
     -3805.0314      -2964.9594
   2941805.72347   2299622.74446  21980760.2624   21980763.0744
     -1924.3124      -1499.4644
  10908328.94845   8495264.90845  24493466.4654   24493470.9884
     -4180.0314      -3257.1674
 98  7  8 21 28  0.0040000  0  8G 3G 6G 1G17G21G22G23G26
  -6612041.91946  -5001748.26745  23768262.8164   23768267.3634
       901.3444        702.3464
  17400662.80545  13530391.69345  24464443.3324   24464449.5664
     -5235.9374      -4079.9514
  -1036209.79944   -687066.20142  25549052.3634   25549060.9104
      1967.8284       1533.3734
   7245491.18847   5639121.97046  22280040.2384   22280043.2854
     -2658.4224      -2071.4984
  -4237327.95046  -3268109.83446  23127600.2304   23127604.0274
        42.2034         32.8864
  11187614.23445   8696266.88543  25598696.6214   25598703.9024
     -3809.5944      -2968.5154
   2970717.49147   2322151.40446  21986262.0984   21986264.6294
     -1930.5624      -1504.3344
  10971089.10245   8544168.92145  24505409.2704   24505413.4304
     -4187.9064      -3263.3044
 98  7  8 21 28 15.0040000  0  8G 3G 6G 1G17G21G22G23G26
  -6625506.99446  -5012240.49545  23765700.0664   23765704.2274
       893.6884        696.3804
  17479231.74045  13591614.13945  24479394.4804   24479399.9184
     -5240.2194      -4083.2874
  -1065713.70543   -710056.14642  25543437.7934   25543446.2464
      1965.6884       1531.7054
   7285406.47147   5670224.78746  22287636.1604   22287639.3954
     -2663.9224      -2075.7834
  -4237919.14046  -3268570.46446  23127487.7854   23127491.5234
        36.2974         28.2834
  11244794.45144   8740822.79442  25609578.1454   25609583.1954
     -3814.7814      -2972.5574
   2999725.86947   2344755.34946  21991782.1764   21991784.8124
     -1937.5474      -1509.7774
  11033969.38345   8593166.55745  24517374.7854   24517379.3094
     -4196.5164      -3270.0124
 98  7  8 21 28 30.0040000  0  8G 3G 6G 1G17G21G22G23G26
  -6638858.61246  -5022644.32845  23763159.2544   23763163.5904
       886.2974        690.6214
  17557863.13345  13652885.27245  24494357.4184   24494363.3714
     -5244.2194      -4086.4044
  -1095187.38743   -733022.53742  25537829.0044   25537839.1684
      1963.9534       1530.3534
   7325401.70747   5701389.90146  22295246.7234   22295250.0984
     -2668.9844      -2079.7284
  -4238423.38346  -3268963.34746  23127391.5824   23127395.3444
        30.7344         23.9494
  11302049.90444   8785437.42543  25620473.0044   25620480.1094
     -3819.4534      -2976.1974
   3028838.61747   2367440.61346  21997322.2704   21997324.8834
     -1944.4224      -1515.1344
  11096977.21445   8642263.54945  24529364.6684   24529368.8284
     -4204.7664      -3276.4414
 98  7  8 21 28 45.0040000  0  8G 3G 6G 1G17G21G22G23G26
  -6652095.32546  -5032958.61845  23760640.6684   23760644.8874
       878.7664        684.7524
  17636560.03245  13714207.44845  24509333.4024   24509339.4494
     -5248.6094      -4089.8254
  -1124632.37343   -755966.54442  25532225.7304   25532234.0554
      1962.1564       1528.9534
   7365475.61947   5732616.32446  22302872.5594   22302875.6994
     -2674.0624      -2083.6854
  -4238840.06946  -3269287.99746  23127312.4804   23127316.1954
        24.9534         19.4444
  11359379.04744   8830109.34842  25631382.2544   25631388.7704
     -3824.2974      -2979.9724
   3058060.22147   2390210.70646  22002882.7854   22002885.3754
     -1951.6724      -1520.7834
  11160112.97145   8691460.25245  24541378.4574   24541383.2504
     -4213.2034      -3283.0154
 98  7  8 21 29  0.0040000  0  8G 3G 6G 1G17G21G22G23G26
  -6665222.84746  -5043187.80745  23758142.2704   23758146.1484
       871.8444        679.3594
  17715322.24645  13775580.51545  24524320.4734   24524326.1094
     -5252.7034      -4093.0154
  -1154051.66743   -778890.53042  25526626.0274   25526635.9344
      1960.7504       1527.8574
   7405622.51647   5763899.61546  22310512.0984   22310515.1684
     -2678.5314      -2087.1674
  -4239173.20546  -3269547.55446  23127248.7624   23127252.4774
        19.7814         15.4144
  11416777.88844   8874835.68342  25642304.8794   25642311.9264
     -3828.5784      -2983.3084
   3087387.23647   2413062.93146  22008463.7304   22008466.1564
     -1958.2664      -1525.9214
  11223371.70745   8740752.75045  24553417.0984   24553421.9264
     -4220.9694      -3289.0674
 98  7  8 21 29 15.0040000  0  8G 3G 6G 1G17G21G22G23G26
  -6678246.31846  -5053335.94745  23755664.0744   23755668.0594
       864.3284        673.5024
  17794145.56345  13837001.15845  24539320.7304   24539326.7074
     -5257.3444      -4096.6314
  -1183449.73944   -801798.02642  25521032.3874   25521043.4064
      1958.7194       1526.2744
   7445836.73647   5795235.37146  22318164.9734   22318168.0554
     -2683.5944      -2091.1124
  -4239429.11246  -3269746.92546  23127200.1524   23127204.1254
        14.0944         10.9824
  11474239.11544   8919610.55942  25653239.9414   25653247.2934
     -3833.1254      -2986.8514
   3116813.55147   2435992.53846  22014063.2544   22014065.7624
     -1965.4844      -1531.5464
  11286747.01945   8790136.09345  24565477.4344   24565482.0984
     -4229.2974      -3295.5564
 98  7  8 21 29 30.0040000  0  8G 3G 6G 1G17G21G22G23G26
  -6691154.69346  -5063394.39045  23753207.5514   23753211.8164
       856.7974        667.6344
  17873039.49745  13898476.86245  24554333.6294   24554339.3714
     -5261.7974      -4100.1014
  -1212815.45543   -824680.29343  25515444.0514   25515452.1994
      1956.7194       1524.7164
   7486126.95647   5826630.34646  22325831.9024   22325835.1484
     -2688.4374      -2094.8864
  -4239599.98546  -3269880.03746  23127167.3794   23127171.0944
         8.6884          6.7694
  11531767.28644   8964437.69842  25664186.8324   25664195.1454
     -3837.2814      -2990.0894
   3146346.55547   2459005.28046  22019683.1214   22019685.6994
     -1972.1724      -1536.7574
  11350246.52946   8839616.22745  24577560.4264   24577564.6804
     -4237.2814      -3301.7784
 98  7  8 21 29 45.0040000  0  8G 3G 6G 1G17G21G22G23G26
  -6703949.72846  -5073364.51445  23750772.6684   23750776.6874
       849.0474        661.5954
  17952001.26045  13960005.44245  24569359.3324   24569365.4144
     -5266.5944      -4103.8394
  -1242151.44644   -847539.37442  25509862.9024   25509873.9924
      1954.5944       1523.0604
   7526490.53447   5858082.48046  22333512.4734   22333515.6844
     -2693.5164      -2098.8434
  -4239689.12546  -3269949.45946  23127150.7464   23127154.7304
         3.1094          2.4234
  11589357.96144   9009313.42642  25675145.6604   25675152.7304
     -3841.6414      -2993.4864
   3175977.90547   2482094.64646  22025321.8324   22025324.3404
     -1978.8444      -1541.9564
  11413864.49346   8889188.66245  24589667.0664   24589670.5004
     -4245.2344      -3307.9754
 98  7  8 21 30  0.0040000  0  8G 3G 6G 1G17G21G22G23G26
  -6716627.05546  -5083242.91845  23748359.9574   23748364.0124
       841.2194        655.4954
  18031036.23845  14021591.03545  24584399.9804   24584405.8524
     -5271.4694      -4107.6384
  -1271454.92744   -870373.17642  25504286.0824   25504293.1414
      1952.4064       1521.3564
   7566932.99247   5889596.07946  22341208.7234   22341212.1214
     -2698.9534      -2103.0804
  -4239693.49546  -3269952.83846  23127149.8484   23127153.6334
        -2.6564         -2.0704
  11647015.80944   9054241.58842  25686118.2774   25686126.5554
     -3846.1564      -2997.0054
   3205711.34047   2505263.56946  22030979.7154   22030982.1524
     -1985.7034      -1547.3014
  11477601.82846   8938854.12045  24601795.4494   24601799.9264
     -4253.1724      -3314.1604
 98  7  8 21 30 15.0040000  0  8G 3G 6G 1G17G21G22G23G26
  -6729194.28446  -5093035.53345  23745968.7774   23745972.8094
       834.2814        650.0894
  18110139.43745  14083229.77745  24599453.0824   24599458.6134
     -5275.7504      -4110.9744
  -1300730.35844   -893185.07342  25498714.8634   25498721.6604
      1950.8444       1520.1384
   7607452.17347   5921169.46146  22348919.1454   22348922.4024
     -2703.7344      -2106.8064
  -4239615.16246  -3269891.75846  23127164.5904   23127168.4344
        -7.9224         -6.1734
  11704736.03644   9099218.28042  25697101.6914   25697107.5164
     -3850.0164      -3000.0124
   3235541.12747   2528507.56646  22036656.1844   22036658.7154
     -1991.7504      -1552.0134
  11541452.95845   8988608.21945  24613946.1844   24613950.6844
     -4260.4694      -3319.8464
 98  7  8 21 30 30.0040000  0  8G 3G 6G 1G17G21G22G23G26
  -6741652.91346  -5102743.53345  23743597.8164   23743601.8484
       827.6564        644.9274
  18189311.56945  14144922.28445  24614518.7384   24614525.3244
     -5279.7504      -4114.0914
  -1329979.01444   -915976.11243  25493149.1454   25493158.1024
      1949.8444       1519.3594
   7648047.14647   5952801.90346  22356643.9734   22356647.0784
     -2708.1094      -2110.2154
  -4239452.76146  -3269765.18846  23127195.8094   23127199.6764
       -12.8284         -9.9964
  11762519.44944   9144244.23242  25708097.7304   25708105.4224
     -3853.5474      -3002.7644
   3265466.41047   2551825.98046  22042351.0124   22042353.5554
     -1997.4224      -1556.4334
  11605419.22046   9038452.04845  24626118.6134   24626123.2074
     -4267.4694      -3325.3004
 98  7  8 21 30 45.0040000  0  8G 3G 6G 1G17G21G22G23G26
  -6754010.63946  -5112372.89645  23741246.3094   23741250.2934
       820.1884        639.1074
  18268545.68845  14206663.04445  24629596.1374   24629602.3364
     -5284.5944      -4117.8654
  -1359213.50044   -938756.15842  25487585.6214   25487594.4734
      1948.2344       1518.1054
   7688709.42747   5984486.79446  22364381.9264   22364385.0664
     -2713.3754      -2114.3184
  -4239216.29146  -3269580.88746  23127240.5124   23127244.5084
       -18.5624        -14.4644
  11820355.10443   9189310.91942  25719102.7384   25719109.8914
     -3857.6724      -3005.9784
   3295476.27747   2575210.30046  22048061.8404   22048064.3594
     -2003.6874      -1561.3154
  11669489.00646   9088376.55945  24638310.7154   24638314.6054
     -4274.9694      -3331.1444
 98  7  8 21 31  0.0040000  0  8G 3G 6G 1G17G21G22G23G26
  -6766262.90646  -5121920.08545  23738914.6524   23738918.4024
       813.3444        633.7744
  18347844.47745  14268454.19744  24644686.6914   24644692.6454
     -5288.6414      -4121.0194
  -1388430.44144   -961522.47343  25482026.1684   25482034.1994
      1947.2344       1517.3254
   7729444.98747   6016228.78746  22372133.6294   22372136.9574
     -2718.1414      -2118.0324
  -4238899.24446  -3269333.80146  23127300.9734   23127305.0624
       -23.7664        -18.5194
  11878245.07643   9234419.85142  25730119.1454   25730126.3794
     -3861.0314      -3008.5964
   3325571.71047   2598661.29446  22053788.5824   22053791.2074
     -2009.0944      -1565.5284
  11733664.96846   9138383.77845  24650523.4104   24650527.1954
     -4281.9224      -3336.5624
 98  7  8 21 31 15.0040000  0  8G 3G 6G 1G17G21G22G23G26
  -6778408.36446  -5131384.05245  23736603.4574   23736607.2424
       805.5634        627.7114
  18427205.86645  14330294.16545  24659788.8874   24659794.8054
     -5293.2664      -4124.6234
  -1417628.15545   -984273.83643  25476470.3554   25476479.3954
      1945.3914       1515.8894
   7770256.14047   6048029.68646  22379899.7074   22379903.0824
     -2723.7814      -2122.4274
  -4238500.59646  -3269023.12746  23127376.8954   23127380.7504
       -29.7504        -23.1824
  11936187.31643   9279569.59042  25741145.4884   25741153.0044
     -3864.9694      -3011.6644
   3355750.53847   2622177.26946  22059531.4494   22059534.1334
     -2015.2194      -1570.3004
  11797949.39046   9188475.53945  24662756.4184   24662760.0744
     -4289.7814      -3342.6874
 98  7  8 21 31 30.0040000  0  8G 3G 6G 1G17G21G22G23G26
  -6790439.42846  -5140758.88645  23734314.4654   23734318.3674
       798.6094        622.2934
  18506632.02945  14392184.57045  24674903.3164   24674910.2464
     -5296.8754      -4127.4354
  -1446801.68044  -1007006.32343  25470917.9264   25470926.3554
      1944.4064       1515.1224
   7811150.49747   6079895.41246  22387681.7074   22387685.2344
     -2728.7664      -2126.3114
  -4238016.71946  -3268646.05746  23127469.0744   23127473.1524
       -34.7194        -27.0544
  11994183.38444   9324761.24342  25752182.3714   25752191.2934
     -3867.8594      -3013.9164
   3386018.84647   2645762.97246  22065291.4344   22065294.1174
     -2020.4694      -1574.3914
  11862348.87646   9238656.94845  24675010.6764   24675014.8244
     -4296.7974      -3348.1534
 98  7  8 21 31 45.0040000  0  8G 3G 6G 1G17G21G22G23G26
  -6802357.93946  -5150046.00546  23732046.2074   23732050.2274
       790.7194        616.1444
  18586120.45245  14454123.50145  24690029.0434   24690034.8444
     -5301.3444      -4130.9174
  -1475951.69145  -1029720.51443  25465371.3014   25465380.4104
      1942.4694       1513.6124
   7852128.65947   6111826.44446  22395479.4574   22395483.0084
     -2734.7814      -2130.9984
  -4237449.98647  -3268204.40646  23127576.4964   23127580.3284
       -40.7034        -31.7174
  12052233.02944   9369994.65542  25763228.8714   25763233.1374
     -3871.9694      -3017.1194
   3416372.64747   2669415.29146  22071067.2074   22071069.7624
     -2026.5944      -1579.1644
  11926860.49046   9288925.73345  24687287.1374   24687291.0744
     -4304.5624      -3354.2054
 98  7  8 21 32  0.0040000  0  8G 3G 6G 1G17G21G22G23G26
  -6814157.72846  -5159240.62046  23729800.7304   23729804.5274
       782.4844        609.7284
  18665674.81245  14516113.80744  24705168.0904   24705174.0084
     -5305.9694      -4134.5214
  -1505073.71245  -1052412.90443  25459829.6134   25459837.4454
      1940.3754       1511.9814
   7893196.17947   6143827.10546  22403294.5904   22403298.0824
     -2740.9694      -2135.8204
  -4236793.61346  -3267692.91946  23127701.6134   23127705.5394
       -46.8444        -36.5024
  12110345.38543   9415276.96842  25774286.8634   25774291.5984
     -3876.4064      -3020.5764
   3446820.99447   2693141.28446  22076861.2704   22076864.0704
     -2033.3124      -1584.3994
  11991489.23345   9339285.77645  24699585.0984   24699589.2114
     -4312.7194      -3360.5604
 98  7  8 21 32 15.0040000  0  8G 3G 6G 1G17G21G22G23G26
  -6825840.08246  -5168343.72146  23727577.8484   23727581.3754
       774.9064        603.8234
  18745291.97645  14578153.07944  24720318.6524   24720324.6874
     -5309.9694      -4137.6384
  -1534169.71245  -1075084.99544  25454291.8244   25454300.8634
      1938.7974       1510.7514
   7934350.51447   6175895.41146  22411125.8794   22411129.4414
     -2746.5314      -2140.1544
  -4236050.86646  -3267114.11846  23127842.8164   23127846.6134
       -52.5004        -40.9094
  12168516.80843   9460605.26443  25785356.7934   25785364.0624
     -3880.0314      -3023.4014
   3477364.71547   2716941.59346  22082673.6764   22082676.3014
     -2039.4064      -1589.1484
  12056235.65445   9389737.51745  24711905.8954   24711909.8554
     -4320.4374      -3366.5754
 98  7  8 21 32 30.0040000  0  8G 3G 6G 1G17G21G22G23G26
  -6837407.33246  -5177357.13946  23725376.4734   23725380.4694
       767.4064        597.9794
  18824972.61645  14640241.77444  24735481.1054   24735487.3524
     -5314.0314      -4140.8044
  -1563240.56945  -1097737.51744  25448760.4184   25448769.1524
      1937.3754       1509.6434
   7975590.21647   6208030.24246  22418973.6764   22418977.1684
     -2752.0474      -2144.4524
  -4235222.54646  -3266468.65246  23128000.5434   23128004.4454
       -57.8594        -45.0854
  12226744.49244   9505977.39242  25796437.9494   25796446.4374
     -3883.6094      -3026.1894
   3508001.38047   2740814.32546  22088503.7074   22088506.4494
     -2045.4694      -1593.8724
  12121101.35745   9440282.21345  24724249.5824   24724254.1764
     -4328.3284      -3372.7234
 98  7  8 21 32 45.0040000  0  8G 3G 6G 1G17G21G22G23G26
  -6848860.81746  -5186281.90046  23723196.7154   23723200.6874
       759.8444        592.0864
  18904713.83445  14702377.69345  24750655.8094   24750661.7624
     -5318.0164      -4143.9084
  -1592289.53245  -1120372.97944  25443231.8014   25443240.5944
      1935.9534       1508.5354
   8016913.77847   6240230.41546  22426837.0354   22426840.4344
     -2757.6874      -2148.8474
  -4234313.86046  -3265760.54946  23128173.3244   23128177.1804
       -63.1724        -49.2254
  12285025.33243   9551390.93043  25807527.8094   25807535.6054
     -3887.0164      -3028.8434
   3538729.18247   2764758.07646  22094351.0744   22094353.9344
     -2051.4064      -1598.4984
  12186085.88045   9490919.49645  24736615.6604   24736620.5124
     -4336.1414      -3378.8114
 98  7  8 21 33  0.0040000  0  8G 3G 6G 1G17G21G22G23G26
  -6860200.79246  -5195118.21546  23721038.9734   23721042.9454
       752.3284        586.2304
  18984515.59945  14764560.79844  24765841.6374   24765847.6484
     -5322.0624      -4147.0624
  -1621314.82245  -1142989.92144  25437709.0514   25437718.2424
      1934.1564       1507.1354
   8058325.22247   6272499.07046  22434717.5354   22434720.8984
     -2763.7034      -2153.5354
  -4233324.41346  -3264989.52346  23128361.4414   23128365.3554
       -68.6254        -53.4744
  12343358.39844   9596845.20643  25818628.5514   25818636.2304
     -3890.6094      -3031.6444
   3569547.16047   2788772.09146  22100215.4414   22100218.2074
     -2057.5164      -1603.2594
  12251190.03145   9541649.97845  24749003.9574   24749007.7424
     -4344.3284      -3385.1914
 98  7  8 21 33 15.0040000  0  8G 3G 6G 1G17G21G22G23G26
  -6871427.88346  -5203866.57546  23718902.4804   23718905.6334
       745.1094        580.6054
  19064378.35745  14826791.40444  24781039.1684   24781045.1094
     -5325.8444      -4150.0084
  -1650311.11345  -1165584.37044  25432191.0744   25432198.8714
      1932.3914       1505.7594
   8099827.23047   6304838.29446  22442615.1844   22442618.4184
     -2769.4224      -2157.9914
  -4232253.69546  -3264155.16946  23128565.2854   23128568.9184
       -73.6254        -57.3704
  12401748.27544   9642343.70943  25829740.3094   25829748.5984
     -3894.2664      -3034.4934
   3600457.77147   2812858.28846  22106097.4574   22106100.2344
     -2063.4374      -1607.8734
  12316418.95445   9592477.71345  24761417.1134   24761421.8954
     -4352.3914      -3391.4734
 98  7  8 21 33 30.0040000  0  8G 3G 6G 1G17G21G22G23G26
  -6882547.44846  -5212531.13646  23716786.3324   23716789.9414
       737.5784        574.7364
  19144298.29045  14889066.59345  24796248.0514   24796253.7234
     -5330.0624      -4153.2954
  -1679280.26245  -1188157.59544  25426678.0594   25426686.0664
      1930.1884       1504.0424
   8141413.93347   6337243.50846  22450528.8014   22450532.1524
     -2775.3594      -2162.6184
  -4231108.66446  -3263262.90946  23128783.0354   23128786.9374
       -78.9374        -61.5104
  12460194.07244   9687885.77843  25840862.0434   25840868.5474
     -3898.4374      -3037.7444
   3631457.82447   2837014.18446  22111996.6684   22111999.2814
     -2069.7814      -1612.8174
  12381767.68445   9643398.78445  24773852.3484   24773857.0944
     -4360.6254      -3397.8904
 98  7  8 21 33 45.0040000  0  8G 3G 6G 1G17G21G22G23G26
  -6893560.25646  -5221112.51346  23714691.0274   23714695.0354
       731.0944        569.6834
  19224276.90545  14951387.47944  24811467.1914   24811473.1684
     -5333.4844      -4155.9624
  -1708221.22845  -1210708.88344  25421171.3324   25421179.6334
      1928.9384       1503.0684
   8183083.89047   6369713.59946  22458458.4654   22458461.8164
     -2780.2504      -2166.4294
  -4229887.52546  -3262311.33746  23129015.5904   23129019.3524
       -83.6094        -65.1504
  12518699.40044   9733474.31643  25851994.7464   25852002.1684
     -3901.9694      -3040.4954
   3662547.00147   2861239.51746  22117912.7544   22117915.3204
     -2075.0784      -1616.9444
  12447233.53345   9694411.13345  24786310.1374   24786315.1054
     -4367.7974      -3403.4784
 98  7  8 21 34  0.0040000  0  8G 3G 6G 1G17G21G22G23G26
  -6904467.64746  -5229611.74246  23712615.1994   23712619.2664
       723.3754        563.6694
  19304315.32545  15013754.98644  24826697.8244   24826704.2464
     -5338.1724      -4159.6144
  -1737135.68445  -1233239.53044  25415668.9574   25415678.1254
      1926.4844       1501.1574
   8224832.91247   6402245.30146  22466402.8794   22466406.4884
     -2786.1414      -2171.0194
  -4228588.11746  -3261298.78746  23129262.6914   23129266.6054
       -89.5004        -69.7404
  12577266.61645   9779111.01543  25863140.3404   25863148.5124
     -3906.8594      -3044.3064
   3693723.37547   2885532.80446  22123845.6134   22123848.2734
     -2081.6874      -1622.0944
  12512815.37745   9745513.83545  24798790.2384   24798793.2504
     -4376.3914      -3410.1754
 98  7  8 21 34 15.0040000  0  8G 3G 6G 1G17G21G22G23G26
  -6915265.54046  -5238025.66046  23710560.5744   23710564.6294
       716.4534        558.2754
  19384419.35545  15076173.61345  24841941.3014   24841947.3014
     -5342.2664      -4162.8044
  -1766019.25545  -1255746.07344  25410172.1524   25410179.6804
      1924.7664       1499.8174
   8266664.65147   6434841.45446  22474363.2704   22474366.8554
     -2791.3284      -2175.0614
  -4227205.93846  -3260221.73646  23129525.8554   23129529.6294
       -94.7194        -73.8074
  12635900.72245   9824799.87643  25874298.2854   25874306.4694
     -3910.9224      -3047.4724
   3724993.27247   2909898.96546  22129795.8094   22129798.5744
     -2087.5004      -1626.6234
  12578523.34745   9796714.82145  24811294.0354   24811298.5944
     -4384.5314      -3416.5184
 98  7  8 21 34 30.0040000  0  8G 3G 6G 1G17G21G22G23G26
  -6925956.87846  -5246356.53346  23708525.7624   23708529.3364
       709.4384        552.8084
  19464589.09945  15138643.42545  24857197.2624   24857203.2154
     -5346.5944      -4166.1774
  -1794873.07745  -1278229.45144  25404681.4104   25404689.4534
      1922.8134       1498.2954
   8308578.45147   6467501.55446  22482339.0594   22482342.5394
     -2796.7664      -2179.2984
  -4225740.08446  -3259079.48346  23129804.7934   23129808.4264
      -100.2504        -78.1174
  12694600.03444   9870539.49643  25885467.8164   25885476.7734
     -3915.2664      -3050.8564
   3756352.39947   2934334.65746  22135763.2234   22135765.8364
     -2093.3124      -1631.1534
  12644355.73745   9848012.78745  24823821.3634   24823825.3364
     -4392.6414      -3422.8374
 98  7  8 21 34 45.0040000  0  8G 3G 6G 1G17G21G22G23G26
  -6936546.71546  -5254608.33446  23706510.8094   23706514.6054
       702.2974        547.2444
  19544818.16845  15201159.48045  24872464.8324   24872471.2194
     -5350.7504      -4169.4164
  -1823701.25045  -1300692.86044  25399195.9264   25399203.7344
      1920.7034       1496.6524
   8350568.98147   6500221.43746  22490329.7384   22490333.1484
     -2802.1564      -2183.4984
  -4224197.35047  -3257877.32346  23130098.3404   23130101.9964
      -105.7034        -82.3664
  12753361.97644   9916327.97143  25896650.8794   25896659.2854
     -3919.8754      -3054.4484
   3787795.74447   2958835.97046  22141746.6454   22141749.3524
     -2099.3914      -1635.8894
  12710304.41245   9899401.34245  24836371.4734   24836375.4804
     -4400.6874      -3429.1074
 98  7  8 21 35  0.0040000  0  8G 3G 6G 1G17G21G22G23G26
  -6947033.03246  -5262779.45946  23704515.4414   23704519.2154
       695.3594        541.8384
  19625105.05145  15263720.57845  24887742.6054   24887748.8404
     -5354.7194      -4172.5084
  -1852500.33145  -1323133.56944  25393714.6374   25393723.0314
      1918.6724       1495.0694
   8392635.47647   6533000.52046  22498334.8714   22498338.3984
     -2807.2034      -2187.4314
  -4222576.09946  -3256613.98646  23130406.8554   23130410.7934
      -111.0474        -86.5304
  12812188.89645   9962167.00044  25907844.8324   25907851.8204
     -3924.2504      -3057.8574
   3819326.64747   2983405.51546  22147747.0594   22147749.7664
     -2105.2664      -1640.4674
  12776367.80845   9950879.31445  24848942.4574   24848946.5004
     -4408.2664      -3435.0124
 98  7  8 21 35 15.0040000  0  8G 3G 6G 1G17G21G22G23G26
  -6957414.09146  -5270868.56346  23702539.8484   23702543.5864
       688.7814        536.7134
  19705452.33445  15326328.77744  24903032.1374   24903037.9264
     -5358.1724      -4175.1994
  -1881267.17045  -1345549.14644  25388240.8794   25388250.7504
      1916.9224       1493.7054
   8434777.39547   6565838.37246  22506354.0274   22506357.7774
     -2811.6254      -2190.8774
  -4220872.34147  -3255286.35046  23130731.0824   23130734.5044
      -116.0624        -90.4384
  12871083.73945  10008059.01844  25919052.1994   25919060.3594
     -3928.3444      -3061.0474
   3850947.98247   3008045.52346  22153764.1994   22153766.9654
     -2110.8754      -1644.8384
  12842545.16445  10002446.07945  24861535.8244   24861540.0554
     -4415.2814      -3440.4794
 98  7  8 21 35 30.0050000  0  8G 3G 6G 1G17G21G22G23G26
  -6967693.44646  -5278878.42446  23700583.6574   23700587.3954
       681.4064        530.9664
  19785857.28645  15388981.87644  24918332.7824   24918339.3334
     -5362.0474      -4178.2184
  -1910008.62745  -1367945.00144  25382771.7514   25382778.2784
      1914.7504       1492.0134
   8476988.94547   6598730.48546  22514386.6424   22514390.2744
     -2816.5004      -2194.6754
  -4219091.61147  -3253898.74046  23131069.8374   23131073.3174
      -121.6254        -94.7734
  12930044.68745  10054002.52043  25930271.3374   25930279.1814
     -3932.7504      -3064.4814
   3882657.94747   3032754.59046  22159798.6734   22159801.2164
     -2117.1254      -1649.7084
  12908831.85045  10054098.03345  24874149.9854   24874154.2394
     -4422.5784      -3446.1654
 98  7  8 21 35 45.0050000  0  8G 3G 6G 1G17G21G22G23G26
  -6977856.88246  -5286797.95246  23698649.6884   23698653.3214
       673.7664        525.0124
  19866317.94045  15451678.39445  24933644.2744   24933651.4154
     -5365.9224      -4181.2384
  -1938713.95445  -1390312.63144  25377309.2434   25377316.9584
      1912.7034       1490.4184
   8519274.30847   6631680.11246  22522433.3924   22522436.9544
     -2821.4844      -2198.5594
  -4217223.10247  -3252442.73946  23131425.3924   23131428.7674
      -127.4224        -99.2904
  12989068.66945  10099995.15444  25941504.2744   25941511.5444
     -3937.0314      -3067.8174
   3914462.18347   3057537.11746  22165850.7904   22165853.4154
     -2123.3284      -1654.5414
  12975225.07645  10105833.01345  24886784.4544   24886789.5174
     -4429.7664      -3451.7654
 98  7  8 21 36  0.0050000  0  8G 3G 6G 1G17G21G22G23G26
  -6987909.13846  -5294630.84646  23696736.7434   23696740.4464
       666.3134        519.2054
  19946831.73445  15514416.30345  24948965.3604   24948972.4544
     -5369.3914      -4183.9414
  -1967394.15045  -1412660.70644  25371851.6104   25371859.7474
      1911.1724       1489.2254
   8561631.30347   6664685.55546  22530493.7594   22530497.1104
     -2826.2974      -2202.3094
  -4215272.49247  -3250922.75546  23131796.5634   23131799.9974
      -132.8284       -103.5024
  13048151.06845  10146033.31044  25952747.7674   25952755.4704
     -3940.7504      -3070.7144
   3946355.54547   3082389.09546  22171919.7904   22171922.3334
     -2129.2974      -1659.1924
  13041722.32145  10157649.02245  24899437.4704   24899441.7824
     -4436.7034      -3457.1714
 98  7  8 21 36 15.0050000  0  8G 3G 6G 1G17G21G22G23G26
  -6997848.65646  -5302375.89746  23694845.2744   23694849.0244
       658.6884        513.2634
  20027395.73745  15577193.34045  24964295.9384   24964302.7124
     -5372.7194      -4186.5344
  -1996051.03245  -1434990.61944  25366397.8374   25366406.3954
      1909.4384       1487.8734
   8604061.02247   6697747.66646  22538567.8294   22538570.9704
     -2831.3124      -2206.2184
  -4213243.41947  -3249341.63546  23132182.5564   23132185.9424
      -138.0314       -107.5574
  13107287.15345  10192113.31944  25963999.9704   25964008.8214
     -3944.2974      -3073.4784
   3978338.61747   3107310.97746  22178005.9544   22178008.4034
     -2135.3914      -1663.9414
  13108322.67545  10209545.38145  24912111.8604   24912116.3604
     -4443.5784      -3462.5284
 98  7  8 21 36 30.0050000  0  8G 3G 6G 1G17G21G22G23G26
  -7007677.88846  -5310035.01446  23692974.8374   23692978.4934
       651.8134        507.9064
  20108004.26945  15640005.06144  24979635.2284   24979641.9784
     -5375.0944      -4188.3854
  -2024685.19045  -1457302.80244  25360949.2044   25360957.7164
      1908.3914       1487.0584
   8646564.07547   6730866.92246  22546655.7984   22546659.4194
     -2835.7664      -2209.6874
  -4211140.63247  -3247703.06846  23132582.8454   23132586.3724
      -142.3284       -110.9054
  13166470.15945  10238229.85243  25975262.6344   25975268.6814
     -3946.8124      -3075.4384
   4010408.37647   3132300.40346  22184108.5954   22184111.1734
     -2140.6254      -1668.0194
  13175018.56645  10261516.18045  24924803.7514   24924808.0284
     -4449.1564      -3466.8754
 98  7  8 21 36 45.0050000  0  8G 3G 6G 1G17G21G22G23G26
  -7017392.29546  -5317604.64846  23691126.1734   23691129.8174
       643.3284        501.2954
  20188657.91245  15702851.95144  24994982.9074   24994990.3534
     -5378.7504      -4191.2344
  -2053292.64144  -1479594.19143  25355504.8064   25355512.1924
      1905.9064       1485.1224
   8689143.71547   6764045.85946  22554758.3844   22554762.0174
     -2841.5314      -2214.1804
  -4208965.35347  -3246008.02646  23132996.7434   23133000.1884
      -147.7504       -115.1304
  13225700.23245  10284383.06043  25986533.5094   25986542.0094
     -3950.5944      -3078.3854
   4042567.34347   3157359.35046  22190228.0794   22190230.7044
     -2147.3124      -1673.2314
  13241807.37045  10313559.39245  24937512.9544   24937517.3604
     -4456.0784      -3472.2694
 98  7  8 21 37  0.0050000  0  8G 3G 6G 1G17G21G22G23G26
  -7026983.01446  -5325077.90646  23689300.8064   23689304.2394
       635.6254        495.2924
  20269361.09445  15765737.44344  25010340.2204   25010346.8884
     -5381.4694      -4193.3524
  -2081867.84845  -1501860.46444  25350067.3214   25350075.1884
      1904.3134       1483.8804
   8731804.68247   6797288.16346  22562876.5564   22562880.0714
     -2846.4224      -2217.9914
  -4206711.37347  -3244251.65046  23133425.3924   23133429.0714
      -152.5784       -118.8924
  13284981.71845  10330576.35844  25997814.5404   25997822.7594
     -3953.3444      -3080.5284
   4074821.65547   3182492.58146  22196366.0564   22196368.7284
     -2153.0164      -1677.6754
  13308696.15045  10365680.51445  24950241.4784   24950245.6494
     -4462.2814      -3477.1024
 98  7  8 21 37 15.0050000  0  8G 3G 6G 1G17G21G22G23G26
  -7036450.00946  -5332454.75346  23687499.6034   23687503.7164
       626.5164        488.1944
  20350114.24645  15828661.88444  25025707.9784   25025715.1884
     -5385.7194      -4196.6644
  -2110411.58645  -1524102.21344  25344635.7674   25344644.4894
      1901.4384       1481.6404
   8774548.33747   6830594.90246  22571010.6734   22571014.2704
     -2852.8594      -2223.0074
  -4204377.40147  -3242432.94646  23133869.8214   23133873.2904
      -158.7194       -123.6774
  13344310.49545  10376806.47444  26009104.5874   26009111.5174
     -3957.2814      -3083.5964
   4107166.82147   3207696.62046  22202521.1494   22202523.8564
     -2159.7504      -1682.9224
  13375686.29545  10417880.61445  24962989.5634   24962994.4034
     -4469.8914      -3483.0324
 98  7  8 21 37 30.0050000  0  8G 3G 6G 1G17G21G22G23G26
  -7045796.31646  -5339737.56546  23685720.9464   23685724.3924
       618.9064        482.2654
  20430912.92745  15891621.76444  25041082.6184   25041089.1344
     -5388.1724      -4198.5754
  -2138928.22645  -1546322.81144  25339209.4624   25339217.6814
      1900.1094       1480.6054
   8817373.29847   6863964.99546  22579159.8214   22579163.0094
     -2857.8444      -2226.8914
  -4201969.43347  -3240556.57646  23134327.9314   23134331.5284
      -163.0314       -127.0374
  13403681.95845  10423069.86844  26020402.2984   26020409.5674
     -3959.5944      -3085.3984
   4139595.41347   3232965.65546  22208691.9784   22208694.5324
     -2164.7194      -1686.7944
  13442775.02745  10470157.53745  24975755.7904   24975759.3294
     -4475.9844      -3487.7804
 98  7  8 21 37 45.0050000  0  8G 3G 6G 1G17G21G22G23G26
  -7055016.42846  -5346922.04346  23683966.2904   23683969.6534
       610.7974        475.9464
  20511761.17645  15954620.28644  25056468.5014   25056475.9934
     -5391.3444      -4201.0474
  -2167414.51344  -1568519.78443  25333787.4234   25333795.1964
      1898.3914       1479.2654
   8860284.79247   6897402.51246  22587325.5794   22587329.0244
     -2863.3444      -2231.1774
  -4199485.93247  -3238621.36746  23134800.6574   23134804.3604
      -167.7974       -130.7514
  13463099.81245  10469369.43044  26031709.2124   26031717.4784
     -3962.5004      -3087.6624
   4172110.12147   3258301.80146  22214879.2204   22214881.8924
     -2170.2034      -1691.0674
  13509967.70745  10522515.44045  24988541.8534   24988546.6224
     -4482.7504      -3493.0524
 98  7  8 21 38  0.0050000  0  8G 3G 6G 1G17G21G22G23G26
  -7064113.28946  -5354010.47446  23682235.1574   23682238.9784
       602.2034        469.2494
  20592659.97845  16017658.21244  25071862.5874   25071868.7864
     -5395.1724      -4204.0304
  -2195873.12745  -1590695.19144  25328372.8134   25328381.1964
      1896.0164       1477.4154
   8903280.32347   6930905.52046  22595507.1734   22595510.4314
     -2869.4064      -2235.9014
  -4196928.30947  -3236628.38446  23135287.3064   23135290.8684
      -173.1874       -134.9514
  13522565.58745  10515706.31344  26043025.5324   26043033.5054
     -3966.2504      -3090.5844
   4204708.01147   3283702.75946  22221082.5324   22221085.3564
     -2176.2194      -1695.7554
  13577264.56845  10574954.53045  25001348.1654   25001351.7634
     -4490.1874      -3498.8474
 98  7  8 21 38 15.0050000  0  8G 3G 6G 1G17G21G22G23G26
  -7073098.56546  -5361011.96046  23680525.5484   23680528.8994
       594.9064        463.5634
  20673600.18145  16080728.37244  25087266.0014   25087272.7044
     -5397.7664      -4206.0514
  -2224310.09545  -1612853.76544  25322960.9934   25322968.4974
      1894.5944       1476.3074
   8946350.58547   6964466.75446  22603703.2984   22603706.5324
     -2874.1874      -2239.6274
  -4194306.10447  -3234585.07846  23135785.8764   23135789.4624
      -177.3754       -138.2144
  13582070.55245  10562073.72143  26054348.9314   26054357.3024
     -3968.7034      -3092.4964
   4237381.74747   3309162.82246  22227300.2824   22227302.9424
     -2181.1724      -1699.6144
  13644658.09945  10627468.96945  25014172.7044   25014176.9114
     -4496.5624      -3503.8154
 98  7  8 21 38 30.0050000  0  8G 3G 6G 1G17G21G22G23G26
  -7081968.50446  -5367923.57946  23678837.7354   23678840.8414
       588.0004        458.1824
  20754586.55545  16143834.50644  25102677.1104   25102683.7314
     -5400.2034      -4207.9504
  -2252715.30545  -1634987.52744  25317555.4384   25317562.2004
      1893.0164       1475.0774
   8989499.01547   6998088.90546  22611914.2984   22611917.4034
     -2878.6724      -2243.1214
  -4191613.76647  -3232487.12746  23136298.6264   23136302.0014
      -181.4064       -141.3564
  13641622.30444  10608477.60143  26065680.9544   26065687.9544
     -3971.2974      -3094.5174
   4270135.56847   3334685.29046  22233533.0484   22233535.7554
     -2185.7814      -1703.2064
  13712154.69745  10680063.71345  25027017.2284   25027020.3454
     -4502.7814      -3508.6614
 98  7  8 21 38 45.0050000  0  8G 3G 6G 1G17G21G22G23G26
  -7090729.53846  -5374750.32846  23677170.2824   23677173.7514
       580.2194        452.1194
  20835615.43645  16206973.78844  25118096.2824   25118101.6614
     -5403.5314      -4210.5444
  -2281092.88345  -1657099.78944  25312155.4154   25312162.0834
      1890.7664       1473.3244
   9032718.33447   7031766.29446  22620138.2354   22620141.5754
     -2883.7344      -2247.0664
  -4188855.24447  -3230337.60346  23136823.3764   23136826.7284
      -186.3754       -145.2274
  13701218.50544  10654916.13843  26077022.7824   26077030.6264
     -3974.8124      -3097.2564
   4302963.15847   3360265.23746  22239779.7514   22239782.3534
     -2191.1414      -1707.3824
  13779750.54945  10732735.77444  25039880.5014   25039885.3994
     -4509.9224      -3514.2254
 98  7  8 21 39  0.0050000  0  8G 3G 6G 1G17G21G22G23G26
  -7099375.45746  -5381487.38446  23675524.9234   23675528.6034
       572.4384        446.0554
  20916692.52945  16270150.63144  25133524.3454   25133531.6264
     -5406.9064      -4213.1744
  -2309439.42645  -1679187.90644  25306760.8684   25306768.2434
      1888.6094       1471.6444
   9076009.82147   7065499.91346  22628376.6814   22628380.0324
     -2888.6254      -2250.8774
  -4186021.33347  -3228129.33046  23137362.4384   23137365.7784
      -191.6564       -149.3434
  13760865.82945  10701394.51043  26088372.9234   26088379.5444
     -3978.3444      -3100.0084
   4335868.05347   3385905.42946  22246041.4624   22246044.1694
     -2196.3124      -1711.4124
  13847452.31845  10785490.36745  25052763.3134   25052767.8954
     -4517.1414      -3519.8504
 98  7  8 21 39 15.0050000  0  8G 3G 6G 1G17G21G22G23G26
  -7107906.24646  -5388134.73346  23673901.7124   23673905.4384
       565.0944        440.3334
  20997821.28345  16333367.72444  25148963.1104   25148970.2634
     -5410.1564      -4215.7064
  -2337753.00845  -1701250.28444  25301372.9234   25301379.9934
      1886.5784       1470.0614
   9119375.38647   7099291.25946  22636628.7594   22636631.9814
     -2893.3754      -2254.5784
  -4183107.77447  -3225858.99846  23137917.0634   23137920.4504
      -196.6414       -153.2264
  13820565.52944  10747913.63943  26099733.2904   26099740.1344
     -3981.5474      -3102.5044
   4368849.66447   3411605.38746  22252317.6184   22252320.2674
     -2201.2194      -1715.2354
  13915261.46745  10838328.67845  25065666.9234   25065670.7904
     -4523.9694      -3525.1704
 98  7  8 21 39 30.0050000  0  8G 3G 6G 1G17G21G22G23G26
  -7116329.37346  -5394698.18046  23672298.8134   23672302.6224
       557.6724        434.5504
  21078995.46445  16396620.21444  25164410.0174   25164416.1454
     -5413.3594      -4218.2024
  -2366038.27245  -1723290.60844  25295990.3064   25295997.3994
      1884.4844       1468.4294
   9162809.78947   7133136.24346  22644894.1964   22644897.4074
     -2898.1724      -2258.3164
  -4180123.03447  -3223533.20446  23138485.0484   23138488.4114
      -201.6564       -157.1354
  13880312.91444  10794470.01243  26111102.5174   26111110.3024
     -3985.1094      -3105.2804
   4401903.38147   3437361.54646  22258607.5714   22258610.4784
     -2206.3124      -1719.2054
  13983169.31745  10891243.85745  25078589.6264   25078592.9894
     -4530.7034      -3530.4184
 98  7  8 21 39 45.0050000  0  8G 3G 6G 1G17G21G22G23G26
  -7124638.99846  -5401173.19046  23670717.4384   23670721.1064
       550.7034        429.1194
  21160217.93245  16459910.31544  25179866.0174   25179873.4154
     -5415.9844      -4220.2484
  -2394289.94745  -1745304.78644  25290614.0404   25290620.5094
      1882.8594       1467.1634
   9206317.06447   7167038.01446  22653173.3924   22653176.4384
     -2902.3914      -2261.6034
  -4177061.09647  -3221147.24246  23139067.6814   23139071.0444
      -206.2504       -160.7144
  13940114.88944  10841068.84543  26122482.6104   26122490.0094
     -3988.0624      -3107.5814
   4435037.78047   3463180.56646  22264912.7514   22264915.4704
     -2211.2194      -1723.0284
  14051180.04545  10944239.22544  25091531.3534   25091534.7634
     -4536.9694      -3535.3004
 98  7  8 21 40  0.0050000  0  8G 3G 6G 1G17G21G22G23G26
  -7132841.62546  -5407564.82446  23669156.5564   23669159.8374
       543.6254        423.6044
  21241484.84345  16523235.08243  25195330.8994   25195337.1574
     -5418.9694      -4222.5734
  -2422514.81045  -1767297.99344  25285243.2434   25285251.2394
      1881.0944       1465.7874
   9249891.48047   7200992.10046  22661465.1814   22661468.4974
     -2906.9374      -2265.1464
  -4173924.70047  -3218703.27546  23139664.4784   23139667.9584
      -211.3124       -164.6594
  13999964.64744  10887704.93743  26133871.5324   26133878.4504
     -3991.2034      -3110.0284
   4468250.24747   3489060.42146  22271233.0324   22271235.9154
     -2216.4534      -1727.1064
  14119289.15945  10997311.26645  25104492.3294   25104495.2004
     -4543.5944      -3540.4634
 98  7  8 21 40 15.0050000  0  8G 3G 6G 1G17G21G22G23G26
  -7140934.98746  -5413871.32446  23667616.2284   23667619.8724
       535.4694        417.2484
  21322799.13045  16586596.73244  25210804.9234   25210811.7674
     -5422.9534      -4225.6784
  -2450710.03945  -1789268.20844  25279877.4934   25279885.3954
      1878.2194       1463.5474
   9293539.21847   7235003.32146  22669770.9544   22669774.3994
     -2912.7664      -2269.6874
  -4170708.77947  -3216197.32846  23140276.1104   23140279.4624
      -217.4844       -169.4684
  14059862.82643  10934378.74243  26145270.0794   26145278.8954
     -3995.1564      -3113.1094
   4501543.96547   3515003.58746  22277568.4784   22277571.2904
     -2222.7034      -1731.9764
  14187499.40545  11050462.08044  25117472.6814   25117475.5174
     -4551.1414      -3546.3434
 98  7  8 21 40 30.0050000  0  8G 3G 6G 1G17G21G22G23G26
  -7148916.62646  -5420090.75546  23666097.4784   23666101.1104
       528.2974        411.6604
  21404162.12945  16649996.35143  25226288.0094   25226295.8644
     -5425.8594      -4227.9424
  -2478873.84045  -1811213.86845  25274518.1574   25274524.9544
      1876.5474       1462.2444
   9337261.88047   7269072.92446  22678091.2744   22678094.6734
     -2917.3754      -2273.2794
  -4167412.21847  -3213628.55846  23140903.7204   23140907.0834
      -222.4694       -173.3524
  14119807.53944  10981088.84443  26156677.5404   26156686.8374
     -3997.8914      -3115.2394
   4534918.57847   3541009.78846  22283919.4074   22283921.9504
     -2227.6414      -1735.8244
  14255810.49345  11103691.47645  25130471.4704   25130474.2944
     -4557.4224      -3551.2384
 98  7  8 21 40 45.0050000  0  8G 3G 6G 1G17G21G22G23G26
  -7156782.82046  -5426220.23746  23664600.7204   23664604.2354
       520.4384        405.5364
  21485576.57445  16713436.05043  25241779.9314   25241786.7284
     -5429.4374      -4230.7314
  -2507005.99145  -1833134.86544  25269164.4854   25269171.3454
      1874.3754       1460.5524
   9381061.62547   7303202.59546  22686425.9464   22686429.2864
     -2922.7034      -2277.4314
  -4164033.72347  -3210995.93146  23141546.7904   23141549.9424
      -228.0784       -177.7234
  14179799.14144  11027835.42543  26168093.3214   26168101.0134
     -4000.9844      -3117.6504
   4568373.70847   3567078.73446  22290285.6184   22290288.4074
     -2233.1724      -1740.1344
  14324221.96545  11156999.10745  25143489.6034   25143493.7864
     -4564.1564      -3556.4854
 98  7  8 21 41  0.0050000  0  8G 3G 6G 1G17G21G22G23G26
  -7164530.63646  -5432257.47046  23663126.1814   23663129.7674
       513.2664        399.9474
  21567044.27245  16776917.24544  25257283.2744   25257289.8494
     -5432.2344      -4232.9104
  -2535106.76145  -1855031.42444  25263817.1264   25263823.2434
      1873.0164       1459.4934
   9424943.10747   7337395.95546  22694776.4704   22694779.9854
     -2927.5164      -2281.1814
  -4160570.19447  -3208297.05346  23142205.6344   23142208.9274
      -233.0474       -181.5954
  14239834.99543  11074616.54843  26179518.0244   26179525.1064
     -4003.1094      -3119.3064
   4601913.47747   3593213.62646  22296667.9154   22296670.7984
     -2238.1564      -1744.0184
  14392733.93545  11210385.05745  25156526.9234   25156531.0714
     -4570.0944      -3561.1124
 98  7  8 21 41 15.0050000  0  8G 3G 6G 1G17G21G22G23G26
  -7172168.18546  -5438208.78246  23661673.2674   23661677.0634
       504.7504        393.3124
  21648556.63145  16840433.27244  25272794.1884   25272802.3604
     -5436.4374      -4236.1854
  -2563183.02645  -1876908.91244  25258474.0404   25258481.3804
      1870.1094       1457.2284
   9468900.52047   7371648.48346  22703141.2204   22703144.5604
     -2933.8284      -2286.1004
  -4157030.13547  -3205538.53346  23142879.3134   23142882.6884
      -239.2344       -186.4164
  14299905.57843  11121424.68942  26190948.9314   26190957.5714
     -4006.6414      -3122.0584
   4635532.35047   3619410.15946  22303065.6734   22303068.3924
     -2244.7194      -1749.1314
  14461338.16945  11263842.87645  25169582.0564   25169585.1964
     -4577.5164      -3566.8954
 98  7  8 21 41 30.0050000  0  8G 3G 6G 1G17G21G22G23G26
  -7179690.88846  -5444070.60546  23660241.3924   23660244.7674
       498.2194        388.2224
  21730119.35945  16903988.50944  25288315.1494   25288322.7594
     -5438.6094      -4237.8774
  -2591226.38145  -1898760.71144  25253137.5874   25253145.3374
      1869.0314       1456.3884
   9512940.97047   7405965.71346  22711521.9154   22711525.2434
     -2938.2344      -2289.5334
  -4153410.87947  -3202718.31246  23143567.9704   23143571.3924
      -243.3124       -189.5944
  14360017.83143  11168265.33442  26202388.0404   26202395.2634
     -4008.3594      -3123.3974
   4669240.11047   3645675.95546  22309479.9784   22309482.5444
     -2249.6724      -1752.9914
  14530043.49945  11317379.46545  25182656.5874   25182661.0174
     -4583.1874      -3571.3154
 98  7  8 21 41 45.0050000  0  8G 3G 6G 1G17G21G22G23G26
  -7187101.83546  -5449845.33646  23658831.2284   23658834.5564
       490.1254        381.9164
  21811726.82745  16967578.60544  25303845.1494   25303852.7594
     -5442.2194      -4240.6904
  -2619242.38245  -1920591.21445  25247806.3454   25247813.8134
      1866.6094       1454.5014
   9557058.80547   7440343.25146  22719917.1964   22719920.4314
     -2943.9374      -2293.9774
  -4149717.76347  -3199840.52446  23144270.8764   23144274.3454
      -248.8754       -193.9294
  14420167.81243  11215135.40142  26213833.6734   26213841.8804
     -4011.3444      -3125.7224
   4703034.18647   3672009.01646  22315910.7434   22315913.4274
     -2256.0004      -1757.9224
  14598847.21645  11370992.72544  25195749.0634   25195753.3174
     -4590.4064      -3576.9404
 98  7  8 21 42  0.0050000  0  8G 3G 6G 1G17G21G22G23G26
  -7194399.59846  -5455531.88046  23657442.5634   23657446.1494
       483.2344        376.5464
  21893380.87245  17031204.99644  25319383.3764   25319390.2704
     -5444.7034      -4242.6264
  -2647230.88645  -1942400.27144  25242479.9384   25242486.6064
      1865.4384       1453.5884
   9601252.51947   7474779.90146  22728326.8844   22728329.8134
     -2948.2344      -2297.3254
  -4145950.21347  -3196904.74946  23144987.6574   23144991.1614
      -253.1874       -197.2894
  14480351.17243  11262031.44742  26225287.0324   26225295.4154
     -4012.8124      -3126.8674
   4736913.50447   3698408.48746  22322357.5794   22322360.2284
     -2260.9374      -1761.7694
  14667748.90545  11424682.33345  25208860.8134   25208865.8884
     -4596.1724      -3581.4334
 98  7  8 21 42 15.0050000  0  8G 3G 6G 1G17G21G22G23G26
  -7201584.40946  -5461130.40946  23656075.2354   23656078.5754
       474.6414        369.8504
  21975082.01545  17094868.12643  25334930.9624   25334938.3374
     -5448.8444      -4245.8524
  -2675189.90545  -1964186.39044  25237159.7984   25237166.0674
      1862.2974       1451.1404
   9645519.29547   7509273.49546  22736750.8064   22736753.9584
     -2954.0314      -2301.8434
  -4142108.38847  -3193911.08946  23145718.8534   23145722.0284
      -259.1094       -201.9034
  14540567.01743  11308952.82342  26236744.6734   26236753.8534
     -4016.0474      -3129.3874
   4770876.09747   3724872.86046  22328820.6814   22328823.1884
     -2267.4534      -1766.8474
  14736746.58045  11478446.73644  25221991.0634   25221995.2354
     -4603.4694      -3587.1194
 98  7  8 21 42 30.0050000  0  8G 3G 6G 1G17G21G22G23G26
  -7208649.02946  -5466635.28546  23654731.0174   23654734.4504
       467.6414        364.3954
  22056836.06345  17158572.45944  25350487.8994   25350495.3564
     -5451.3284      -4247.7884
  -2703108.67845  -1985941.12445  25231847.0794   25231853.9854
      1860.5164       1449.7524
   9689861.31947   7543825.71646  22745188.5634   22745191.7634
     -2957.8444      -2304.8134
  -4138187.64947  -3190855.93846  23146464.7904   23146468.1774
      -263.3284       -205.1914
  14600821.62842  11355904.36942  26248211.1814   26248222.1534
     -4017.5624      -3130.5684
   4804925.97447   3751405.23946  22335300.3214   22335302.8644
     -2272.1874      -1770.5364
  14805841.94545  11532287.28345  25235139.0634   25235143.7044
     -4608.9374      -3591.3804
 98  7  8 21 42 45.0050000  0  8G 3G 6G 1G17G21G22G23G26
  -7215600.97946  -5472052.35446  23653407.8684   23653411.3954
       459.4384        358.0034
  22138632.76845  17222310.01444  25366053.7744   25366060.1494
     -5454.7504      -4250.4554
  -2730993.94345  -2007669.75844  25226540.0954   25226547.0014
      1857.7034       1447.5614
   9734266.59347   7578427.22646  22753638.9544   22753641.9074
     -2962.7814      -2308.6614
  -4134197.18847  -3187746.46646  23147224.1494   23147227.7474
      -268.5944       -209.2944
  14661106.70242  11402879.67642  26259683.4154   26259692.2674
     -4020.3284      -3132.7234
   4839053.83047   3777998.38146  22341794.3994   22341796.9544
     -2278.0474      -1775.1014
  14875026.96945  11586197.67844  25248304.4934   25248308.6774
     -4615.5944      -3596.5674
 98  7  8 21 43  0.0050000  0  8G 3G 6G 1G17G21G22G23G26
  -7222437.80146  -5477379.72446  23652106.6654   23652109.8994
       451.9064        352.1354
  22220472.08445  17286080.80943  25381627.2044   25381634.4154
     -5457.3754      -4252.5004
  -2758844.78145  -2029371.57844  25221240.2744   25221247.4384
      1855.5004       1445.8444
   9778738.92047   7613080.99046  22762101.5794   22762104.4504
     -2967.1254      -2312.0454
  -4130135.24947  -3184581.28446  23147997.2044   23148000.5914
      -273.2814       -212.9464
  14721425.76243  11449881.43542  26271162.1884   26271171.0874
     -4022.5944      -3134.4894
   4873261.55347   3804653.76146  22348303.8844   22348306.4744
     -2283.2814      -1779.1804
  14944304.70745  11640180.33144  25261487.7904   25261492.4784
     -4621.7194      -3601.3394
 98  7  8 21 43 15.0050000  0  8G 3G 6G 1G17G21G22G23G26
  -7229158.27546  -5482616.42746  23650828.0094   23650831.4894
       444.4844        346.3514
  22302354.94945  17349885.50944  25397209.5794   25397216.0364
     -5460.0004      -4254.5454
  -2786659.57445  -2051045.31044  25215946.8294   25215953.2394
      1853.4224       1444.2254
   9823279.20747   7647787.70346  22770577.1814   22770580.2984
     -2971.2034      -2315.2234
  -4125999.36947  -3181358.50046  23148783.9704   23148787.1694
      -277.8124       -216.4774
  14781784.99743  11496914.47742  26282648.0484   26282655.9034
     -4025.0164      -3136.3764
   4907551.66947   3831373.34246  22354829.1734   22354831.7864
     -2288.3914      -1783.1624
  15013678.91745  11694238.09044  25274689.0174   25274693.4704
     -4627.8754      -3606.1364
 98  7  8 21 43 30.0050000  0  8G 3G 6G 1G17G21G22G23G26
  -7235761.77846  -5487761.98446  23649571.3684   23649575.1064
       436.1414        339.8504
  22384281.74645  17413724.41643  25412799.6964   25412806.0604
     -5463.3914      -4257.1874
  -2814437.31545  -2072690.15145  25210661.3294   25210669.0674
      1850.4534       1441.9124
   9867885.40747   7682545.78146  22779065.5484   22779068.6064
     -2976.1254      -2319.0584
  -4121790.46147  -3178078.80146  23149585.2904   23149588.6534
      -283.2194       -220.6904
  14842187.09243  11543981.00442  26294142.1104   26294151.3254
     -4028.4064      -3139.0184
   4941921.75647   3858155.23546  22361369.3374   22361372.0444
     -2294.0624      -1787.5814
  15083150.72645  11748371.94644  25287909.1574   25287913.4584
     -4634.8444      -3611.5674
 98  7  8 21 43 45.0050000  0  8G 3G 6G 1G17G21G22G23G26
  -7242253.45046  -5492820.40546  23648335.8844   23648339.5404
       428.4064        333.8234
  22466244.52645  17477591.39343  25428396.5954   25428404.0634
     -5465.9694      -4259.1964
  -2842185.04845  -2094311.62145  25205380.5714   25205388.0994
      1848.3134       1440.2444
   9912552.07447   7717350.97346  22787565.3844   22787568.7944
     -2980.4374      -2322.4194
  -4117513.87547  -3174746.37146  23150398.6184   23150402.0524
      -288.0164       -224.4284
  14902625.66343  11591075.94142  26305644.3374   26305653.8804
     -4030.9694      -3141.0154
   4976361.67247   3884991.54546  22367923.4934   22367926.0244
     -2298.8124      -1791.2824
  15152711.43245  11802575.04544  25301146.0094   25301149.9114
     -4640.8124      -3616.2184
 98  7  8 21 44  0.0050000  0  8G 3G 6G 1G17G21G22G23G26
  -7248624.73546  -5497785.00946  23647123.3924   23647126.9194
       421.0634        328.1014
  22548247.94145  17541490.03743  25444001.2044   25444008.2284
     -5467.8284      -4260.6454
  -2869897.64445  -2115905.68545  25200106.9854   25200113.2784
      1846.6254       1438.9294
   9957287.05647   7752209.39946  22796077.8764   22796081.4154
     -2984.3284      -2325.4504
  -4113161.68647  -3171355.02246  23151227.0714   23151230.4234
      -292.3124       -227.7764
  14963104.42343  11638202.17841  26317153.1104   26317162.8884
     -4032.8914      -3142.5124
   5010873.75947   3911884.08546  22374490.9464   22374493.4784
     -2302.8754      -1794.4484
  15222362.59345  11856848.66644  25314400.2904   25314404.2394
     -4646.0314      -3620.2844
 98  7  8 21 44 15.0050000  0  8G 3G 6G 1G17G21G22G23G26
  -7254876.94646  -5502656.83646  23645933.8764   23645937.2634
       412.9844        321.8064
  22630286.63045  17605416.13043  25459612.8994   25459620.3454
     -5470.2664      -4262.5454
  -2897576.07645  -2137473.18345  25194839.7044   25194848.2284
      1844.1724       1437.0174
  10002090.00847   7787120.79046  22804603.8214   22804607.3254
     -2989.0314      -2329.1154
  -4108737.29547  -3167907.42446  23152068.8214   23152072.2084
      -297.2034       -231.5874
  15023621.21742  11685357.99942  26328667.9624   26328673.8684
     -4035.6724      -3144.6794
   5045455.17047   3938830.64946  22381071.1734   22381073.9034
     -2307.6254      -1798.1494
  15292100.56545  11911189.91344  25327671.1184   25327675.1034
     -4652.0474      -3624.9724
 98  7  8 21 44 30.0050000  0  8G 3G 6G 1G17G21G22G23G26
  -7261011.83046  -5507437.23846  23644766.1654   23644769.5174
       405.1094        315.6704
  22712359.31644  17669368.78043  25475230.6654   25475237.5244
     -5472.6254      -4264.3834
  -2925220.56045  -2159014.16845  25189579.3684   25189586.6034
      1841.9384       1435.2764
  10046963.07447   7822086.81346  22813142.9624   22813146.7124
     -2993.9534      -2332.9504
  -4104243.47047  -3164405.71546  23152923.8924   23152927.3954
      -301.8444       -235.2034
  15084178.19043  11732545.13842  26340191.4234   26340201.7044
     -4038.4224      -3146.8224
   5080105.01047   3965830.53146  22387664.9544   22387667.4854
     -2312.2194      -1801.7294
  15361926.03545  11965599.36544  25340958.5404   25340962.5954
     -4657.8754      -3629.5134
 98  7  8 21 44 45.0050000  0  8G 3G 6G 1G17G21G22G23G26
  -7267027.23946  -5512124.54346  23643621.4154   23643624.7674
       396.9384        309.3024
  22794467.79244  17733349.27143  25490855.4314   25490862.3254
     -5475.1254      -4266.3314
  -2952831.96645  -2180529.44044  25184324.3134   25184331.2554
      1839.5634       1433.4254
  10091914.66547   7857114.02346  22821697.0634   22821700.4744
     -2999.6414      -2337.3824
  -4099677.92647  -3160848.12846  23153792.9544   23153796.5994
      -306.9224       -239.1604
  15144776.27243  11779764.39042  26351723.8604   26351731.2704
     -4041.4064      -3149.1484
   5114825.18947   3992885.22746  22394272.0404   22394274.7244
     -2317.2034      -1805.6134
  15431841.68145  12020079.03044  25354262.8534   25354267.0954
     -4664.2974      -3634.5174
 98  7  8 21 45  0.0050000  0  8G 3G 6G 1G17G21G22G23G26
  -7272932.52946  -5516726.04046  23642497.6884   23642500.9584
       390.0474        303.9334
  22876600.40444  17797348.60843  25506484.4314   25506491.8174
     -5476.2974      -4267.2444
  -2980420.20545  -2202026.60145  25179074.9384   25179083.0634
      1838.4694       1432.5734
  10136940.84047   7892199.35246  22830265.1104   22830268.6614
     -3004.2664      -2340.9864
  -4095048.92447  -3157241.08946  23154673.7284   23154677.0564
      -310.7034       -242.1064
  15205407.83943  11827009.65642  26363260.4464   26363270.0484
     -4043.1724      -3150.5244
   5149609.30747   4019989.74146  22400891.3064   22400893.9074
     -2321.0944      -1808.6444
  15501842.73545  12074625.29744  25367583.9784   25367588.3604
     -4669.5004      -3638.5714
 98  7  8 21 45 15.0050000  0  8G 3G 6G 1G17G21G22G23G26
  -7278722.10646  -5521237.37746  23641395.8214   23641398.8564
       382.5784        298.1134
  22958764.49744  17861372.39943  25522119.9314   25522127.1654
     -5478.2664      -4268.7784
  -3007975.94545  -2223498.50045  25173830.7354   25173838.1224
      1836.2974       1430.8814
  10182049.00347   7927348.56246  22838849.0954   22838852.3994
     -3009.4694      -2345.0414
  -4090349.71047  -3153579.34446  23155567.9154   23155571.2784
      -315.1724       -245.5884
  15266078.93943  11874285.77742  26374806.5484   26374814.0054
     -4045.5944      -3152.4114
   5184465.95347   4047150.77046  22407523.9544   22407526.5564
     -2325.8284      -1812.3344
  15571934.06245  12129241.89144  25380921.6964   25380925.2124
     -4675.3284      -3643.1134
 98  7  8 21 45 30.0050000  0  8G 3G 6G 1G17G21G22G23G26
  -7284399.78346  -5525661.51246  23640315.6184   23640318.9464
       374.6414        291.9284
  23040958.62644  17925419.68943  25537761.5174   25537768.5284
     -5480.6874      -4270.6664
  -3035498.62045  -2244944.60645  25168594.0244   25168601.6344
      1833.5944       1428.7744
  10227234.73447   7962558.22046  22847447.4154   22847450.8254
     -3015.0784      -2349.4124
  -4085584.50447  -3149866.17746  23156474.7514   23156477.9974
      -319.9844       -249.3384
  15326783.82744  11921588.23641  26386359.1964   26386366.4784
     -4048.1254      -3154.3834
   5219393.96647   4074367.41346  22414170.7354   22414173.3954
     -2330.9694      -1816.3394
  15642112.25545  12183926.17144  25394276.5794   25394280.8684
     -4681.4844      -3647.9104
 98  7  8 21 45 45.0050000  0  8G 3G 6G 1G17G21G22G23G26
  -7289960.64146  -5529994.62146  23639257.2984   23639260.9074
       367.3284        286.2304
  23123184.48844  17989491.63544  25553408.2204   25553417.0014
     -5482.3284      -4271.9444
  -3062984.21445  -2266361.81245  25163362.8374   25163370.5054
      1831.6724       1427.2774
  10272501.83747   7997831.28446  22856061.4934   22856064.6924
     -3020.0314      -2353.2714
  -4080749.40247  -3146098.54246  23157394.7824   23157397.8764
      -324.2034       -252.6264
  15387521.65543  11968916.31141  26397915.9854   26397922.7354
     -4049.7504      -3155.6494
   5254394.23047   4101640.35146  22420831.0174   22420833.5244
     -2335.2344      -1819.6634
  15712378.57145  12238679.12643  25407647.6264   25407652.9584
     -4686.8444      -3652.0864
 98  7  8 21 46  0.0050000  0  8G 3G 6G 1G17G21G22G23G26
  -7295408.75746  -5534239.87946  23638220.6964   23638224.2704
       359.6564        280.2524
  23205441.01445  18053587.48743  25569061.8214   25569070.8024
     -5484.6724      -4273.7704
  -3090435.94345  -2287752.66145  25158139.0954   25158145.7744
      1829.1254       1425.2924
  10317848.37547   8033166.24546  22864690.6424   22864693.8884
     -3025.6094      -2357.6184
  -4075847.58147  -3142278.92646  23158327.5014   23158330.7124
      -328.8284       -256.2304
  15448286.93443  12016265.74642  26409480.0094   26409489.5524
     -4051.7664      -3157.2204
   5289464.41247   4128967.77346  22427504.5094   22427507.1574
     -2340.2504      -1823.5714
  15782729.54845  12293498.03244  25421034.5794   25421039.2554
     -4692.7344      -3656.6764
 98  7  8 21 46 15.0050000  0  8G 3G 6G 1G17G21G22G23G26
  -7300761.22746  -5538410.60446  23637202.0174   23637205.1574
       353.4224        275.3944
  23287713.46545  18117695.76243  25584717.7204   25584726.2434
     -5485.6874      -4274.5624
  -3117868.86645  -2309128.82745  25152918.7514   25152925.8334
      1827.9694       1424.3914
  10363258.30047   8068550.59546  22873331.9784   22873335.3644
     -3029.6724      -2360.7834
  -4070895.47347  -3138420.11746  23159269.9154   23159273.2434
      -332.0944       -258.7744
  15509063.50544  12063624.04142  26421046.1184   26421051.2514
     -4052.4534      -3157.7564
   5324591.39147   4156339.45346  22434189.0324   22434191.5404
     -2344.0004      -1826.4944
  15853151.43345  12348372.21544  25434435.9314   25434440.3724
     -4697.5164      -3660.4024
 98  7  8 21 46 30.0050000  0  8G 3G 6G 1G17G21G22G23G26
  -7306006.35246  -5542497.69546  23636204.0874   23636207.3454
       345.9694        269.5864
  23370019.30644  18181830.03843  25600379.6574   25600388.1694
     -5488.3754      -4276.6564
  -3145269.30845  -2330479.72345  25147704.4384   25147711.3564
      1825.4844       1422.4554
  10408743.65647   8103993.72946  22881987.3604   22881991.0054
     -3035.0004      -2364.9354
  -4065878.52247  -3134510.79146  23160224.6104   23160227.9034
      -336.8124       -262.4514
  15569865.79443  12111002.34542  26432615.0174   26432621.3214
     -4054.4844      -3159.3384
   5359789.44247   4183766.51046  22440887.2984   22440889.9814
     -2349.0624      -1830.4384
  15923661.74645  12403315.28644  25447853.0094   25447858.6924
     -4703.7974      -3665.2964
 98  7  8 21 46 45.0050000  0  8G 3G 6G 1G17G21G22G23G26
  -7311142.09146  -5546499.54246  23635226.7204   23635230.0604
       338.9844        264.1444
  23452362.97244  18245993.79343  25616050.0094   25616058.4974
     -5490.5314      -4278.3364
  -3172635.04245  -2351803.51245  25142497.2124   25142504.2474
      1823.4844       1420.8974
  10454306.93147   8139497.57546  22890657.9544   22890661.4814
     -3039.8594      -2368.7224
  -4060791.43547  -3130546.81046  23161192.8134   23161195.9194
      -341.2664       -265.9214
  15630695.50643  12158402.07842  26444192.0874   26444201.0674
     -4055.9224      -3160.4594
   5395061.08147   4211250.91046  22447598.9384   22447601.7164
     -2353.6094      -1833.9814
  15994262.59845  12458328.91544  25461288.6654   25461293.6924
     -4709.5004      -3669.7404
 98  7  8 21 47  0.0050000  0  8G 3G 6G 1G17G21G22G23G26
  -7316166.31946  -5550414.49546  23634270.7744   23634274.1614
       331.4224        258.2514
  23534744.59744  18310187.15643  25631726.2594   25631732.9154
     -5493.1414      -4280.3694
  -3199963.38545  -2373098.24745  25137296.2044   25137302.5204
      1820.8594       1418.8514
  10499947.06447   8175061.30746  22899342.8994   22899346.3334
     -3044.8914      -2372.6424
  -4055631.09247  -3126525.74346  23162174.5174   23162177.7744
      -346.2194       -269.7814
  15691553.67344  12205823.93342  26455772.1104   26455780.2354
     -4057.9694      -3162.0544
   5430406.97147   4238793.16546  22454325.1424   22454327.8134
     -2358.6414      -1837.9024
  16064956.67445  12513415.18844  25474740.6344   25474745.5204
     -4715.8284      -3674.6714
 98  7  8 21 47 15.0050000  0  8G 3G 6G 1G17G21G22G23G26
  -7321079.94446  -5554243.27646  23633335.7204   23633339.0714
       323.6884        252.2244
  23617161.43944  18374407.92743  25647409.4544   25647417.7434
     -5495.7664      -4282.4154
  -3227257.93445  -2394366.57045  25132102.5874   25132108.5754
      1818.4384       1416.9644
  10545656.22047   8210678.82946  22908041.1104   22908044.3564
     -3049.6414      -2376.3434
  -4050402.21647  -3122451.27746  23163169.8134   23163173.0714
      -350.9064       -273.4334
  15752436.20043  12253264.74342  26467357.6654   26467365.7784
     -4059.6874      -3163.3934
   5465823.17047   4266390.20846  22461064.7124   22461067.2674
     -2363.4844      -1841.6764
  16135738.90445  12568570.14744  25488210.1104   25488214.9034
     -4721.7814      -3679.3104
 98  7  8 21 47 30.0050000  0  8G 3G 6G 1G17G21G22G23G26
  -7325876.01946  -5557980.45246  23632422.7204   23632426.0364
       315.5314        245.8694
  23699618.87644  18438660.33843  25663100.6184   25663108.1104
     -5498.7974      -4284.7774
  -3254515.74545  -2415606.31845  25126914.9704   25126921.5674
      1815.7974       1414.9074
  10591436.41447   8246351.70346  22916752.8134   22916755.9894
     -3054.6414      -2380.2394
  -4045103.43047  -3118322.33646  23164178.0794   23164181.1384
      -355.8444       -277.2814
  15813345.34344  12300726.32942  26478949.4384   26478958.7704
     -4061.7814      -3165.0244
   5501312.42047   4294044.17946  22467818.2124   22467820.7314
     -2368.5944      -1845.6574
  16206610.50645  12623794.73843  25501697.0484   25501702.0524
     -4727.9534      -3684.1194
 98  7  8 21 47 45.0050000  0  8G 3G 6G 1G17G21G22G23G26
  -7330546.61846  -5561619.85146  23631534.1884   23631537.8564
       307.4534        239.5744
  23782122.45844  18502948.71843  25678801.4384   25678809.9624
     -5501.3914      -4286.7984
  -3281734.90745  -2436815.92845  25121736.0484   25121742.1304
      1813.6884       1413.2634
  10637293.20547   8282084.26146  22925479.0874   22925482.4504
     -3059.3594      -2383.9164
  -4039728.44747  -3114134.02546  23165200.7284   23165203.9504
      -360.5784       -280.9704
  15874287.75444  12348213.85942  26490546.5874   26490555.5674
     -4063.5624      -3166.4124
   5536878.49347   4321758.01146  22474586.0794   22474588.6814
     -2373.2194      -1849.2614
  16277575.75045  12679092.30143  25515201.0794   25515205.5674
     -4733.7664      -3688.6494
 98  7  8 21 48  0.0050000  0  8G 3G 6G 1G17G21G22G23G26
  -7335096.86946  -5565165.48046  23630668.2434   23630671.3494
       298.9224        232.9264
  23864664.39544  18567266.96543  25694508.4854   25694514.6034
     -5504.5314      -4289.2454
  -3308923.33145  -2458001.57545  25116561.8454   25116568.5244
      1811.0944       1411.2424
  10683219.92747   8317871.31046  22934218.6344   22934222.0564
     -3064.5474      -2387.9594
  -4034284.16347  -3109891.70246  23166236.7284   23166239.9154
      -365.6094       -284.8904
  15935256.21744  12395721.64742  26502147.0404   26502156.3604
     -4065.9224      -3168.2514
   5572513.59847   4349525.62646  22481366.9154   22481369.6104
     -2378.5474      -1853.4134
  16348626.87645  12734456.79343  25528721.8134   25528725.5994
     -4740.0474      -3693.5434
 98  7  8 21 48 15.0050000  0  8G 3G 6G 1G17G21G22G23G26
  -7339523.17946  -5568614.52846  23629825.7984   23629829.3254
       290.4694        226.3394
  23947247.56245  18631617.33143  25710223.1814   25710230.9784
     -5507.1874      -4291.3154
  -3336077.60145  -2479160.65245  25111395.0014   25111400.9424
      1808.7974       1409.4524
  10729219.13947   8353714.84846  22942971.9464   22942975.4274
     -3069.3284      -2391.6844
  -4028770.35047  -3105595.21446  23167285.9854   23167289.0674
      -370.2974       -288.5434
  15996255.40144  12443253.38643  26513756.0714   26513765.2044
     -4068.0624      -3169.9194
   5608225.91647   4377353.41446  22488162.8924   22488165.5754
     -2383.7194      -1857.4434
  16419767.33845  12789890.92344  25542259.4544   25542263.5204
     -4746.0474      -3698.2184
 98  7  8 21 48 30.0050000  0  8G 3G 6G 1G17G21G22G23G26
  -7343823.88346  -5571965.70546  23629007.5484   23629010.8644
       283.0944        220.5934
  24029866.88645  18695995.93043  25725946.3684   25725953.6494
     -5508.5944      -4292.4114
  -3363200.11045  -2500294.93745  25106233.1964   25106240.8994
      1807.6724       1408.5754
  10775286.62747   8389611.58646  22951738.4154   22951741.7084
     -3072.8594      -2394.4364
  -4023188.33347  -3101245.56346  23168348.0794   23168351.2204
      -373.7974       -291.2704
  16057284.71644  12490808.60443  26525369.9314   26525379.5324
     -4069.0164      -3170.6624
   5644010.68047   4405237.65246  22494972.5484   22494975.2434
     -2387.4224      -1860.3294
  16490995.04945  12845393.00144  25555813.4234   25555817.9814
     -4750.7344      -3701.8714
 98  7  8 21 48 45.0050000  0  8G 3G 6G 1G17G21G22G23G26
  -7348003.20646  -5575222.29346  23628211.9784   23628215.4464
       274.4064        213.8234
  24112516.53945  18760398.07143  25741673.8454   25741681.3844
     -5511.0474      -4294.3224
  -3390294.66245  -2521407.47845  25101077.0014   25101083.3994
      1805.1724       1406.6274
  10821415.87447   8425556.44546  22960516.6104   22960520.1144
     -3077.4844      -2398.0404
  -4017544.52947  -3096847.77846  23169422.1494   23169425.3844
      -378.4534       -294.8994
  16118337.93043  12538382.43743  26536986.8214   26536994.8764
     -4071.1564      -3172.3304
   5679860.33547   4433172.45446  22501794.3214   22501796.9704
     -2392.3124      -1864.1404
  16562300.15845  12900955.40744  25569382.7434   25569385.7314
     -4756.3124      -3706.2184
 98  7  8 21 49  0.0050000  0  8G 3G 6G 1G17G21G22G23G26
  -7352054.53346  -5578379.15346  23627440.7984   23627444.4314
       265.7974        207.1144
  24195199.67345  18824826.37443  25757407.7594   25757414.9234
     -5513.2974      -4296.0754
  -3417353.42245  -2542492.09445  25095928.2904   25095935.3134
      1802.7034       1404.7044
  10867613.01147   8461554.21046  22969307.5014   22969310.9814
     -3082.0784      -2401.6194
  -4011832.51347  -3092396.83746  23170509.0714   23170512.2244
      -383.0474       -298.4784
  16179421.42044  12585979.88243  26548611.8294   26548620.0014
     -4073.2034      -3173.9254
   5715781.88447   4461163.28146  22508629.9854   22508632.5524
     -2397.1874      -1867.9384
  16633686.32845  12956580.96844  25582967.3374   25582970.6534
     -4761.7664      -3710.4674
 98  7  8 21 49 15.0050000  0  8G 3G 6G 1G17G21G22G23G26
  -7355977.23346  -5581435.77546  23626694.5404   23626697.9974
       257.6414        200.7594
  24277914.73145  18889279.52343  25773148.2744   25773156.2124
     -5514.9534      -4297.3664
  -3444376.55545  -2563548.97645  25090785.1034   25090791.1964
      1800.7504       1403.1824
  10913877.42147   8497604.39446  22978111.4544   22978115.0994
     -3086.1414      -2404.7854
  -4006053.46947  -3087893.66346  23171608.8534   23171612.0284
      -387.0784       -301.6194
  16240533.60944  12633599.65443  26560240.7514   26560249.5564
     -4074.6254      -3175.0324
   5751776.39647   4489210.95146  22515479.7204   22515482.4274
     -2401.7034      -1871.4574
  16705151.16145  13012267.83144  25596566.5244   25596571.1064
     -4766.5164      -3714.1684
 98  7  8 21 49 30.0050000  0  8G 3G 6G 1G17G21G22G23G26
  -7359772.05446  -5584392.75346  23625972.6344   23625976.1734
       248.6724        193.7704
  24360660.23045  18953756.40543  25788894.2204   25788902.6494
     -5517.5004      -4299.3514
  -3471363.42545  -2584577.59945  25085650.2514   25085656.5564
      1797.7504       1400.8444
  10960209.38247   8533707.20746  22986928.0174   22986931.4744
     -3091.1564      -2408.6934
  -4000208.65947  -3083339.24946  23172720.7674   23172723.8954
      -392.0164       -305.4674
  16301672.43344  12681240.18643  26571874.8994   26571882.1224
     -4076.9534      -3176.8474
   5787845.00547   4517316.37146  22522343.3294   22522345.8954
     -2407.1874      -1875.7314
  16776693.41945  13068015.00544  25610179.9934   25610184.7164
     -4772.1874      -3718.5884
 98  7  8 21 49 45.0050000  0  8G 3G 6G 1G17G21G22G23G26
  -7363439.80946  -5587250.72546  23625274.5094   23625278.4464
       240.5784        187.4634
  24443437.95645  19018258.40343  25804646.9544   25804654.3884
     -5519.3284      -4300.7754
  -3498309.05245  -2605574.08045  25080521.9704   25080527.8764
      1795.2194       1398.8724
  11006611.51947   8569864.71646  22995758.2594   22995761.7044
     -3095.6094      -2412.1634
  -3994291.85847  -3078728.73246  23173847.0714   23173850.0364
      -396.7344       -309.1444
  16362842.52444  12728905.14743  26583515.7124   26583523.7904
     -4078.8444      -3178.3204
   5823990.53647   4545481.72346  22529221.5794   22529224.0754
     -2411.9694      -1879.4564
  16848316.60445  13123825.28443  25623809.4934   25623815.9034
     -4777.3444      -3722.6064
 98  7  8 21 50  0.0050000  0  8G 3G 6G 1G17G21G22G23G26
  -7366989.50746  -5590016.70446  23624599.1654   23624602.6694
       232.4384        181.1204
  24526239.91244  19082779.26043  25820402.7124   25820409.0284
     -5521.2344      -4302.2614
  -3525217.83245  -2626541.86445  25075401.8994   25075407.8174
      1792.2664       1396.5714
  11053078.90547   8606073.06346  23004600.5634   23004604.2784
     -3100.4224      -2415.9134
  -3988306.54347  -3074064.83546  23174985.9704   23174989.1224
      -401.6254       -312.9554
  16424037.19344  12776589.19043  26595160.6344   26595169.6384
     -4080.7664      -3179.8174
   5860204.88747   4573700.70746  22536112.6654   22536115.1144
     -2416.9064      -1883.3044
  16920015.02745  13179694.13044  25637453.5324   25637458.5364
     -4782.7504      -3726.8184
 98  7  8 21 50 15.0050000  0  8G 3G 6G 1G17G21G22G23G26
  -7370419.94946  -5592689.75946  23623946.2204   23623950.1574
       224.3914        174.8504
  24609069.44044  19147321.61842  25836164.7044   25836170.4354
     -5523.2504      -4303.8314
  -3552082.65445  -2647475.36445  25070289.4784   25070296.0284
      1789.1094       1394.1114
  11099619.25047   8642338.25946  23013457.0014   23013460.7864
     -3105.5314      -2419.8944
  -3982249.55747  -3069345.08446  23176138.6264   23176141.6384
      -406.5784       -316.8144
  16485260.72544  12824295.73342  26606811.0324   26606819.1454
     -4082.9374      -3181.5104
   5896491.53147   4601976.01846  22543017.9314   22543020.6964
     -2421.8284      -1887.1394
  16991794.57145  13235626.22343  25651112.3134   25651116.3804
     -4788.4064      -3731.2264
 98  7  8 21 50 30.0060000  0  8G 3G 6G 1G17G21G22G23G26
  -7373732.53946  -5595270.98046  23623315.9284   23623319.1864
       217.1254        169.1884
  24691932.34144  19211889.96542  25851933.6544   25851941.4984
     -5524.5314      -4304.8304
  -3578903.55945  -2668374.67545  25065185.8184   25065191.8424
      1786.5944       1392.1514
  11146238.27047   8678664.76046  23022328.2874   23022332.2834
     -3110.0624      -2423.4254
  -3976118.23247  -3064567.41346  23177305.4754   23177308.5334
      -410.9844       -320.2484
  16546517.68944  12872028.36642  26618468.3264   26618476.4044
     -4084.2344      -3182.5204
   5932849.14347   4630306.62946  22549936.5374   22549939.3384
     -2425.6414      -1890.1104
  17063661.30045  13291626.26443  25664788.5144   25664793.9164
     -4793.2974      -3735.0374
 98  7  8 21 50 45.0060000  0  8G 3G 6G 1G17G21G22G23G26
  -7376935.20546  -5597766.53946  23622706.4904   23622709.5144
       209.5634        163.2954
  24774810.39344  19276470.13142  25867705.0534   25867709.8934
     -5526.1874      -4306.1204
  -3605681.61245  -2689240.56345  25060090.3654   25060096.2714
      1783.5164       1389.7524
  11192923.71047   8715043.01946  23031212.0924   23031215.9714
     -3114.9534      -2427.2364
  -3969920.10347  -3059737.68146  23178484.7564   23178487.8504
      -415.7194       -323.9374
  16607790.67444  12919773.40343  26630127.2484   26630137.0374
     -4085.7664      -3183.7134
   5969263.47447   4658681.44246  22556865.7954   22556868.3734
     -2429.9694      -1893.4824
  17135597.05245  13347680.06543  25678477.3264   25678482.2254
     -4798.4694      -3739.0674
 98  7  8 21 51  0.0060000  0  8G 3G 6G 1G17G21G22G23G26
  -7380019.36346  -5600169.75846  23622119.5684   23622122.5454
       201.8754        157.3054
  24857716.78144  19341072.40842  25883481.7564   25883489.7754
     -5527.8444      -4307.4114
  -3632408.56545  -2710066.68445  25055003.2644   25055009.4394
      1780.3284       1387.2694
  11239686.95347   8751481.90546  23040110.9754   23040114.7834
     -3120.0474      -2431.2054
  -3963645.92947  -3054848.69546  23179678.7254   23179681.6784
      -420.6254       -327.7604
  16669090.06344  12967539.07243  26641792.8264   26641798.0294
     -4087.3284      -3184.9314
   6005749.05547   4687111.76946  22563808.7014   22563811.1744
     -2434.5624      -1897.0624
  17207617.16345  13403799.62644  25692182.8264   25692187.1154
     -4804.0314      -3743.4014
 98  7  8 21 51 15.0060000  0  8G 3G 6G 1G17G21G22G23G26
  -7382991.25846  -5602485.50446  23621554.0144   23621556.7564
       194.2504        151.3644
  24940644.14644  19405690.96442  25899262.2644   25899268.9204
     -5529.2034      -4308.4704
  -3659092.88745  -2730859.53145  25049925.8034   25049932.1664
      1777.4844       1385.0534
  11286524.95147   8787979.04046  23049023.8964   23049027.2834
     -3125.0314      -2435.0894
  -3957303.65447  -3049906.64246  23180885.5534   23180888.6584
      -425.0624       -331.2184
  16730409.08743  13015320.07243  26653460.9594   26653469.0844
     -4088.6094      -3185.9294
   6042298.89247   4715592.16546  22570763.9904   22570766.6504
     -2438.8444      -1900.3984
  17279718.00145  13459982.06843  25705902.8814   25705907.0184
     -4809.5314      -3747.6874
 98  7  8 21 51 30.0060000  0  8G 3G 6G 1G17G21G22G23G26
  -7385845.35946  -5604709.45546  23621010.6154   23621013.5104
       185.5004        144.5454
  25023594.24243  19470327.29742  25915046.9594   25915057.2284
     -5531.6094      -4310.3454
  -3685730.87245  -2751616.31845  25044856.8114   25044862.8694
      1773.4534       1381.9124
  11333439.58947   8824535.89246  23057951.6004   23057954.8694
     -3131.0314      -2439.7654
  -3950892.15447  -3044910.64746  23182105.7254   23182108.7604
      -430.6254       -335.5524
  16791749.71944  13063117.83543  26665133.8344   26665142.4514
     -4090.9844      -3187.7804
   6078915.45547   4744124.56346  22577732.0144   22577734.7684
     -2444.1094      -1904.5014
  17351904.88345  13516231.59743  25719639.1004   25719644.2914
     -4816.1724      -3752.8614
 98  7  8 21 51 45.0060000  0  8G 3G 6G 1G17G21G22G23G26
  -7388576.97146  -5606837.96246  23620491.2174   23620494.3814
       178.4224        139.0304
  25106570.56243  19534984.01142  25930836.6314   25930840.1464
     -5532.1724      -4310.7834
  -3712317.57345  -2772333.09345  25039797.3114   25039803.6034
      1771.2034       1380.1584
  11380434.36147   8861155.19146  23066894.3344   23066897.5214
     -3135.2504      -2443.0524
  -3944405.56147  -3039856.14046  23183339.7174   23183342.8344
      -434.5314       -338.5964
  16853117.50344  13110936.77043  26676811.7644   26676820.1464
     -4091.6874      -3188.3284
   6115600.51947   4772710.33446  22584713.0294   22584715.9364
     -2447.5314      -1907.1674
  17424181.28545  13572550.82644  25733393.1314   25733398.3694
     -4820.9064      -3756.5504
 98  7  8 21 52  0.0060000  0  8G 3G 6G 1G17G21G22G23G26
  -7391197.28746  -5608879.75046  23619992.4124   23619995.5064
       171.0314        133.2714
  25189559.11043  19599650.22741  25946628.4434   25946634.4554
     -5532.7974      -4311.2704
  -3738867.13645  -2793020.96745  25034745.1074   25034751.2364
      1768.8914       1378.3564
  11427498.12747   8897828.25246  23075850.2484   23075853.4124
     -3139.7974      -2446.5954
  -3937857.46647  -3034753.70646  23184585.9754   23184589.2444
      -438.3284       -341.5544
  16914499.02443  13158766.43543  26688493.1074   26688500.4364
     -4092.2974      -3188.8034
   6152340.57147   4801338.94946  22591704.4364   22591706.9904
     -2451.0004      -1909.8704
  17496532.20245  13628928.14944  25747160.8894   25747164.3814
     -4825.7664      -3760.3374
 98  7  8 21 52 15.0060000  0  8G 3G 6G 1G17G21G22G23G26
  -7393702.42146  -5610831.78946  23619515.6464   23619519.0574
       162.7814        126.8434
  25272558.39943  19664324.90342  25962423.1234   25962431.9634
     -5534.0164      -4312.2204
  -3765380.55845  -2813680.69845  25029699.4824   25029705.2254
      1766.0474       1376.1404
  11474632.45047   8934556.29046  23084819.5144   23084822.7834
     -3144.9374      -2450.6014
  -3931253.02647  -3029607.37046  23185842.7094   23185845.8614
      -442.5004       -344.8054
  16975890.36144  13206603.75143  26700174.5534   26700182.1624
     -4093.4224      -3189.6794
   6189136.41847   4830011.04846  22598706.5454   22598708.9824
     -2455.3124      -1913.2314
  17568959.04245  13685364.61443  25760943.3504   25760948.7174
     -4831.3914      -3764.7204
 98  7  8 21 52 30.0060000  0  8G 3G 6G 1G17G21G22G23G26
  -7396087.11946  -5612689.96946  23619061.7714   23619065.2524
       154.6094        120.4754
  25355572.50743  19729011.04242  25978220.8654   25978229.9984
     -5535.0004      -4312.9874
  -3791856.68445  -2834311.30645  25024661.6464   25024667.8464
      1763.6414       1374.2654
  11521836.38547   8971338.57246  23093802.3654   23093805.3424
     -3149.3444      -2454.0344
  -3924590.66447  -3024415.90246  23187110.7484   23187113.8774
      -446.3284       -347.7884
  17037293.65144  13254450.40943  26711859.7644   26711869.6704
     -4094.1414      -3190.2394
   6225992.82547   4858730.33546  22605720.0144   22605722.4164
     -2459.4534      -1916.4574
  17641465.27045  13741862.97243  25774741.2954   25774746.2524
     -4836.5474      -3768.7384
 98  7  8 21 52 45.0060000  0  8G 3G 6G 1G17G21G22G23G26
  -7398343.33846  -5614448.05446  23618632.4124   23618635.6114
       146.5164        114.1684
  25438604.79343  19793711.39842  25994021.2324   25994027.8534
     -5535.6414      -4313.4864
  -3818294.78445  -2854912.35945  25019629.7484   25019636.0184
      1761.7194       1372.7684
  11569108.57947   9008174.04346  23102797.9594   23102801.2524
     -3153.2814      -2457.1024
  -3917866.41047  -3019176.20446  23188390.1934   23188393.2284
      -449.9224       -350.5884
  17098711.22543  13302308.17142  26723546.0144   26723554.0214
     -4094.6094      -3190.6054
   6262917.45447   4887502.78046  22612746.8264   22612749.4754
     -2463.6094      -1919.6964
  17714051.23845  13798423.44043  25788553.7644   25788556.9514
     -4841.2194      -3772.3784
 98  7  8 21 53  0.0060000  0  8G 3G 6G 1G17G21G22G23G26
  -7400471.27046  -5616106.17246  23618227.3184   23618230.7284
       137.3134        106.9974
  25521653.00343  19858424.10742  26009824.4204   26009832.4754
     -5537.3594      -4314.8254
  -3844696.81145  -2875485.24045  25014606.2094   25014612.0104
      1758.7344       1370.4424
  11616446.44947   9045060.69046  23111805.9984   23111809.4784
     -3158.3284      -2461.0354
  -3911080.20747  -3013888.23546  23189681.3964   23189684.4554
      -454.7974       -354.3874
  17160142.87343  13350176.88542  26735237.7404   26735247.4944
     -4096.1724      -3191.8224
   6299913.48647   4916330.86146  22619786.7954   22619789.4324
     -2469.0624      -1923.9454
  17786713.82245  13855043.63243  25802381.3814   25802385.4714
     -4846.9694      -3776.8594
 98  7  8 21 53 15.0060000  0  8G 3G 6G 1G17G21G22G23G26
  -7402464.48546  -5617659.30046  23617848.1154   23617851.5964
       128.2034         99.8994
  25604724.26343  19923154.82842  26025633.1394   26025642.4474
     -5539.0474      -4316.1404
  -3871059.04045  -2896027.14045  25009589.4754   25009595.7214
      1756.0314       1368.3364
  11663857.64747   9082004.47746  23120828.0534   23120831.6624
     -3163.4064      -2464.9924
  -3904225.04847  -3008546.53146  23190986.1464   23190989.0534
      -459.4374       -358.0034
  17221595.87243  13398062.22942  26746931.3184   26746940.7324
     -4097.7974      -3193.0884
   6336987.22647   4945219.49446  22626841.4674   22626843.9864
     -2474.3284      -1928.0484
  17859458.64445  13911727.91243  25816223.7874   25816229.3774
     -4852.4374      -3781.1204
 98  7  8 21 53 30.0060000  0  8G 3G 6G 1G17G21G22G23G26
  -7404324.72946  -5619108.82246  23617494.1704   23617497.4044
       120.1254         93.6044
  25687816.31144  19987901.72042  26041445.2484   26041454.2054
     -5539.6564      -4316.6154
  -3897384.36545  -2916540.26445  25004579.5534   25004586.3034
      1754.2664       1366.9604
  11711339.22447   9119003.10646  23129863.3734   23129867.2054
     -3167.1564      -2467.9144
  -3897304.82947  -3003154.13946  23192302.7954   23192305.7364
      -463.0474       -360.8164
  17283068.83343  13445963.17742  26758629.8264   26758637.1194
     -4098.2814      -3193.4664
   6374136.15247   4974166.72246  22633911.0064   22633913.5254
     -2478.5944      -1931.3724
  17932279.48145  13968471.42644  25830081.0214   25830085.8854
     -4856.6874      -3784.4324
 98  7  8 21 53 45.0060000  0  8G 3G 6G 1G17G21G22G23G26
  -7406056.52546  -5620458.26146  23617164.5064   23617167.4824
       111.0474         86.5304
  25770927.62244  20052663.60642  26057260.9204   26057268.6934
     -5541.5944      -4318.1254
  -3923674.21245  -2937025.75145  24999576.8424   24999583.1584
      1751.3914       1364.7204
  11758886.25047   9156052.73346  23138911.2094   23138914.9594
     -3172.2194      -2471.8594
  -3890318.53947  -2997710.25746  23193632.0764   23193635.1354
      -468.1564       -364.7974
  17344558.49743  13493877.10342  26770331.2564   26770339.1704
     -4100.0474      -3194.8424
   6411357.85547   5003170.65446  22640993.7324   22640996.4044
     -2484.0164      -1935.5974
  18005171.38345  14025270.26944  25843952.1864   25843956.4864
     -4861.9224      -3788.5114
 98  7  8 21 54  0.0060000  0  8G 3G 6G 1G17G21G22G23G26
  -7407657.40046  -5621705.68446  23616860.2254   23616863.2134
       102.0004         79.4814
  25854063.66444  20117444.79943  26073081.6864   26073088.0144
     -5543.6564      -4319.7324
  -3949927.08945  -2957482.44845  24994580.7484   24994587.0294
      1748.5474       1362.5044
  11806505.38147   9193158.54546  23147972.8504   23147976.4714
     -3177.4534      -2475.9374
  -3883262.20547  -2992211.79946  23194975.1004   23194978.2054
      -473.0944       -368.6444
  17406069.29943  13541807.48643  26782035.9204   26782044.9474
     -4101.7814      -3196.1934
   6448657.17947   5032235.06746  22648091.5454   22648094.1354
     -2489.6254      -1939.9684
  18078136.31345  14082126.06043  25857837.1934   25857842.2324
     -4867.2034      -3792.6264
 98  7  8 21 54 15.0060000  0  8G 3G 6G 1G17G21G22G23G26
  -7409127.79946  -5622851.42846  23616580.1004   23616583.4164
        93.2664         72.6754
  25937227.03044  20182247.28443  26088906.7484   26088914.4044
     -5545.5624      -4321.2184
  -3976140.69345  -2977908.52145  24989592.4754   24989598.3344
      1745.8284       1360.3864
  11854198.38547   9230321.91446  23157048.6394   23157052.2134
     -3182.3754      -2479.7734
  -3876137.28547  -2986659.89246  23196330.7874   23196333.9634
      -477.6874       -372.2244
  17467600.70443  13589753.91943  26793744.3424   26793753.5334
     -4103.1874      -3197.2894
   6486034.70347   5061360.41346  22655204.3504   22655206.9754
     -2494.7974      -1943.9984
  18151177.42645  14139041.18243  25871736.0454   25871740.7794
     -4872.3914      -3796.6684
 98  7  8 21 54 30.0060000  0  8G 3G 6G 1G17G21G22G23G26
  -7410477.17246  -5623902.86746  23616323.3034   23616326.5724
        86.4534         67.3664
  26020411.47845  20247066.15943  26104736.4284   26104745.0214
     -5545.9064      -4321.4854
  -4002321.72445  -2998309.21545  24984610.5214   24984616.9674
      1744.7194       1359.5214
  11901955.87447   9267535.53846  23166136.6784   23166140.5684
     -3185.5164      -2482.2204
  -3868949.81147  -2981059.24546  23197698.5064   23197701.7994
      -480.9224       -374.7444
  17529146.14543  13637711.28142  26805457.0374   26805465.5144
     -4103.1564      -3197.2654
   6523481.24847   5090539.55046  22662329.9824   22662332.7484
     -2498.2664      -1946.7004
  18224286.27145  14196009.08643  25885648.9364   25885651.9944
     -4875.6414      -3799.2004
 98  7  8 21 54 45.0060000  0  8G 3G 6G 1G17G21G22G23G26
  -7411710.33346  -5624863.76146  23616088.6394   23616091.9674
        78.2974         61.0114
  26103613.82545  20311898.97943  26120569.7874   26120578.2994
     -5547.3594      -4322.6184
  -4028472.18545  -3018686.11145  24979634.0924   24979640.2324
      1742.3594       1357.6834
  11949774.25647   9304796.61246  23175236.2094   23175240.1824
     -3190.0004      -2485.7144
  -3861699.54247  -2975409.66846  23199078.3034   23199081.3614
      -485.4224       -378.2514
  17590705.17943  13685679.22042  26817170.9674   26817179.8774
     -4104.3594      -3198.2024
   6560992.18447   5119768.86146  22669468.3814   22669471.0644
     -2502.8284      -1950.2564
  18297455.14345  14253023.79043  25899572.1934   25899576.9164
     -4879.8444      -3802.4764
 98  7  8 21 55  0.0060000  0  8G 3G 6G 1G17G21G22G23G26
  -7412813.37546  -5625723.26446  23615878.7174   23615882.1394
        69.4064         54.0834
  26186845.71745  20376754.88543  26136408.5844   26136417.9044
     -5549.6094      -4324.3714
  -4054576.95746  -3039027.36145  24974667.0064   24974673.1354
      1738.8134       1354.9194
  11997671.82247   9342119.38846  23184350.7644   23184354.4434
     -3195.7034      -2490.1584
  -3854371.56447  -2969699.53446  23200472.6704   23200475.9284
      -491.0004       -382.5974
  17652291.21042  13733668.24442  26828890.5214   26828903.3574
     -4106.4534      -3199.8344
   6598579.77147   5149057.89846  22676620.7794   22676623.4394
     -2508.1564      -1954.4074
  18370696.98345  14310095.28843  25913509.6154   25913513.9044
     -4885.0784      -3806.5544
 98  7  8 21 55 15.0060000  0  8G 3G 6G 1G17G21G22G23G26
  -7413794.22246  -5626487.53946  23615692.1624   23615695.7714
        61.0784         47.5934
  26270100.55545  20441628.63944  26152251.4364   26152261.2834
     -5551.2504      -4325.6494
  -4080638.71045  -3059335.12645  24969707.0534   24969712.7954
      1735.8284       1352.5934
  12045643.11947   9379499.61346  23193479.5214   23193483.0724
     -3200.7344      -2494.0794
  -3846973.50447  -2963934.79646  23201880.4824   23201883.8464
      -495.6414       -386.2134
  17713897.28342  13781672.97742  26840614.3894   26840621.8934
     -4107.9534      -3201.0024
   6636233.82047   5178398.72246  22683786.0844   22683788.4864
     -2512.5784      -1957.8534
  18444006.31045  14367219.45243  25927459.9594   25927464.4824
     -4889.7504      -3810.1954
 98  7  8 21 55 30.0060000  0  8G 3G 6G 1G17G21G22G23G26
  -7414648.90046  -5627153.50546  23615529.3574   23615533.0024
        52.7504         41.1044
  26353381.78344  20506522.89943  26168098.9904   26168110.0214
     -5553.0474      -4327.0504
  -4106652.56545  -3079605.57745  24964756.5614   24964762.5494
      1732.4844       1349.9884
  12093691.11047   9416939.60246  23202622.4674   23202626.1934
     -3205.8594      -2498.0724
  -3839505.74647  -2958115.74346  23203301.6704   23203305.0214
      -500.2664       -389.8174
  17775528.28742  13829696.91142  26852343.0534   26852351.5764
     -4109.6724      -3202.3424
   6673954.21247   5207791.24646  22690964.0924   22690966.7524
     -2516.9374      -1961.2504
  18517387.69445  14424399.75543  25941423.8894   25941428.0724
     -4894.5944      -3813.9694
 98  7  8 21 55 45.0060000  0  8G 3G 6G 1G17G21G22G23G26
  -7415382.82146  -5627725.37946  23615390.0614   23615393.3774
        44.9224         35.0044
  26436686.96645  20571435.90844  26183951.5684   26183960.6784
     -5554.4534      -4328.1454
  -4132617.00146  -3099837.47045  24959816.1074   24959822.2484
      1729.2664       1347.4804
  12141813.32147   9454437.42746  23211779.8114   23211783.7604
     -3210.6564      -2501.8104
  -3831970.30347  -2952243.94946  23204735.4904   23204738.6894
      -504.6874       -393.2634
  17837181.79142  13877738.55042  26864074.2174   26864085.1074
     -4110.9374      -3203.3284
   6711735.16147   5237230.95546  22698153.6704   22698156.1194
     -2520.7034      -1964.1844
  18590839.70045  14481635.05743  25955401.1234   25955405.5294
     -4899.1724      -3817.5374
 98  7  8 21 56  0.0060000  0  8G 3G 6G 1G17G21G22G23G26
  -7415996.60446  -5628203.65046  23615273.1154   23615276.4554
        36.4534         28.4054
  26520014.59245  20636366.36543  26199808.6544   26199816.5454
     -5556.2664      -4329.5584
  -4158531.93345  -3120030.84945  24954883.7714   24954889.7014
      1725.6254       1344.6434
  12190010.48347   9491993.64746  23220951.3114   23220955.0024
     -3216.0164      -2505.9864
  -3824366.29847  -2946318.73346  23206182.3964   23206185.5144
      -509.4694       -396.9894
  17898856.58342  13925796.64641  26875811.5534   26875819.3264
     -4112.7504      -3204.7404
   6749574.47947   5266716.15046  22705354.0924   22705356.7404
     -2524.9064      -1967.4594
  18664362.83745  14538925.80743  25969392.7714   25969397.6234
     -4904.3284      -3821.5544
 98  7  8 21 56 15.0060000  0  8G 3G 6G 1G17G21G22G23G26
  -7416484.68346  -5628583.94646  23615180.2484   23615183.2954
        28.1564         21.9404
  26603366.37544  20701315.64243  26215670.1314   26215678.1624
     -5557.7344      -4330.7024
  -4184392.91245  -3140182.12945  24949963.1154   24949968.7404
      1722.0944       1341.8914
  12238283.97946   9529609.35446  23230137.6074   23230141.0764
     -3220.8284      -2509.7364
  -3816696.00247  -2940341.86046  23207641.8264   23207645.0254
      -513.6724       -400.2644
  17960553.92042  13973872.38241  26887551.4904   26887556.9514
     -4113.9534      -3205.6784
   6787472.15747   5296246.81346  22712566.0144   22712568.4864
     -2528.4374      -1970.2114
  18737961.28945  14596275.23043  25983397.5294   25983402.5214
     -4909.2034      -3825.3534
 98  7  8 21 56 30.0060000  0  8G 3G 6G 1G17G21G22G23G26
  -7416844.35046  -5628864.18846  23615111.4674   23615114.4324
        19.8134         15.4384
  26686741.78944  20766283.36143  26231536.2174   26231544.5884
     -5558.9534      -4331.6524
  -4210199.52445  -3160291.07845  24945052.1704   24945058.3934
      1718.8914       1339.3954
  12286630.42546   9567281.89646  23239337.7564   23239341.1664
     -3225.3594      -2513.2674
  -3808959.85347  -2934313.67546  23209113.9514   23209116.8694
      -517.8284       -403.5024
  18022272.40842  14021964.66442  26899295.8184   26899307.0254
     -4115.0784      -3206.5544
   6825423.10047   5325818.98546  22719787.7404   22719790.1894
     -2531.6724      -1972.7314
  18811633.65945  14653682.24943  25997416.5614   25997421.7404
     -4913.7504      -3828.8964
 98  7  8 21 56 45.0060000  0  8G 3G 6G 1G17G21G22G23G26
  -7417072.95447  -5629042.31046  23615068.4204   23615071.1624
        10.6094          8.2674
  26770142.33144  20831270.65943  26247406.3114   26247415.5144
     -5561.0624      -4333.2954
  -4235952.56345  -3180358.28745  24940151.1934   24940157.2174
      1714.8754       1336.2664
  12335050.52946   9605011.84446  23248551.7874   23248555.4674
     -3230.6414      -2517.3824
  -3801153.85347  -2928231.05746  23210599.6704   23210602.9044
      -522.9534       -407.4964
  18084012.95742  14070074.02942  26911044.8264   26911055.5414
     -4116.9374      -3208.0034
   6863430.64547   5355435.25546  22727020.5454   22727022.9364
     -2535.9844      -1976.0924
  18885380.81645  14711147.56143  26011450.4594   26011454.3504
     -4919.1094      -3833.0724
